<?xml version="1.0" encoding="UTF-8" standalone="no" ?>
<gpx xmlns="http://www.topografix.com/GPX/1/1" xmlns:xsi="http://www.w3.org/2001/XMLSchema-instance" xsi:schemaLocation="http://www.topografix.com/GPX/1/1 http://www.topografix.com/GPX/1/1/gpx.xsd" version="1.1" creator="VisuGPX - https://www.visugpx.com">
  <metadata>
    <name>PIC ROUGE DE BASSIES en boucle depuis parking de l'Artigue</name>
    <desc><![CDATA[Très belle boucle en terme de paysages.
Nuit au refuge de Bassiès.

La trace diffère quelque peu du chemin, du fait de la présence importante de la neige, qui a rendue l'utilisation des crampons plus que raisonnable.

Attention : la vallée empruntée par la trace de descente est vraiment superbe, mais le chemin est vraiment compliqué et technique : très étroit, mangé par une végétation d'un mètre de haut parfois, et avec des passages où le chemin est érodé ou effondré.... qui n'autorise pas l'erreur : j'en ai vraiment bavé et j'ai finalement trouvé la descente plus dure que la montée par les crêtes de Bassiès.

Je pense que je ne suis pas près de repasser par cette vallée de la descente de sitôt !]]></desc>
  </metadata>
  <trk>
    <name><![CDATA[PIC ROUGE DE BASSIES EN BOUCLE]]></name>
    <trkseg>
      <trkpt lat="42.71032" lon="1.42515">
        <ele>1200.34</ele>
        <time>2018-06-23T06:59:19Z</time>
      </trkpt>
      <trkpt lat="42.71036" lon="1.42512">
        <ele>1198.42</ele>
        <time>2018-06-23T07:01:33Z</time>
      </trkpt>
      <trkpt lat="42.71041" lon="1.42505">
        <ele>1200.34</ele>
        <time>2018-06-23T07:01:50Z</time>
      </trkpt>
      <trkpt lat="42.71049" lon="1.42515">
        <ele>1199.86</ele>
        <time>2018-06-23T07:02:02Z</time>
      </trkpt>
      <trkpt lat="42.71055" lon="1.42527">
        <ele>1202.75</ele>
        <time>2018-06-23T07:02:15Z</time>
      </trkpt>
      <trkpt lat="42.71061" lon="1.42541">
        <ele>1202.75</ele>
        <time>2018-06-23T07:02:27Z</time>
      </trkpt>
      <trkpt lat="42.71065" lon="1.42557">
        <ele>1205.15</ele>
        <time>2018-06-23T07:02:36Z</time>
      </trkpt>
      <trkpt lat="42.7107" lon="1.42575">
        <ele>1206.11</ele>
        <time>2018-06-23T07:02:49Z</time>
      </trkpt>
      <trkpt lat="42.71078" lon="1.42586">
        <ele>1206.59</ele>
        <time>2018-06-23T07:03:00Z</time>
      </trkpt>
      <trkpt lat="42.71083" lon="1.42602">
        <ele>1207.55</ele>
        <time>2018-06-23T07:03:11Z</time>
      </trkpt>
      <trkpt lat="42.71089" lon="1.42613">
        <ele>1208.51</ele>
        <time>2018-06-23T07:03:22Z</time>
      </trkpt>
      <trkpt lat="42.71095" lon="1.42627">
        <ele>1209</ele>
        <time>2018-06-23T07:03:35Z</time>
      </trkpt>
      <trkpt lat="42.71098" lon="1.42642">
        <ele>1209.96</ele>
        <time>2018-06-23T07:03:44Z</time>
      </trkpt>
      <trkpt lat="42.71103" lon="1.42656">
        <ele>1211.88</ele>
        <time>2018-06-23T07:03:55Z</time>
      </trkpt>
      <trkpt lat="42.71111" lon="1.42669">
        <ele>1212.36</ele>
        <time>2018-06-23T07:04:10Z</time>
      </trkpt>
      <trkpt lat="42.71114" lon="1.42695">
        <ele>1213.8</ele>
        <time>2018-06-23T07:04:26Z</time>
      </trkpt>
      <trkpt lat="42.71119" lon="1.4271">
        <ele>1215.24</ele>
        <time>2018-06-23T07:04:37Z</time>
      </trkpt>
      <trkpt lat="42.71121" lon="1.42721">
        <ele>1216.21</ele>
        <time>2018-06-23T07:04:47Z</time>
      </trkpt>
      <trkpt lat="42.7113" lon="1.42732">
        <ele>1216.21</ele>
        <time>2018-06-23T07:05:01Z</time>
      </trkpt>
      <trkpt lat="42.71136" lon="1.42742">
        <ele>1219.57</ele>
        <time>2018-06-23T07:05:13Z</time>
      </trkpt>
      <trkpt lat="42.71143" lon="1.42752">
        <ele>1219.09</ele>
        <time>2018-06-23T07:05:24Z</time>
      </trkpt>
      <trkpt lat="42.71149" lon="1.42766">
        <ele>1219.09</ele>
        <time>2018-06-23T07:05:33Z</time>
      </trkpt>
      <trkpt lat="42.71157" lon="1.42778">
        <ele>1219.09</ele>
        <time>2018-06-23T07:05:44Z</time>
      </trkpt>
      <trkpt lat="42.71165" lon="1.42789">
        <ele>1218.61</ele>
        <time>2018-06-23T07:05:54Z</time>
      </trkpt>
      <trkpt lat="42.71173" lon="1.42802">
        <ele>1218.61</ele>
        <time>2018-06-23T07:06:04Z</time>
      </trkpt>
      <trkpt lat="42.7118" lon="1.42812">
        <ele>1219.57</ele>
        <time>2018-06-23T07:06:13Z</time>
      </trkpt>
      <trkpt lat="42.71191" lon="1.42815">
        <ele>1221.97</ele>
        <time>2018-06-23T07:06:27Z</time>
      </trkpt>
      <trkpt lat="42.71198" lon="1.42828">
        <ele>1223.9</ele>
        <time>2018-06-23T07:06:43Z</time>
      </trkpt>
      <trkpt lat="42.71203" lon="1.4284">
        <ele>1224.86</ele>
        <time>2018-06-23T07:06:54Z</time>
      </trkpt>
      <trkpt lat="42.71209" lon="1.42859">
        <ele>1225.34</ele>
        <time>2018-06-23T07:07:10Z</time>
      </trkpt>
      <trkpt lat="42.71213" lon="1.42878">
        <ele>1224.86</ele>
        <time>2018-06-23T07:07:26Z</time>
      </trkpt>
      <trkpt lat="42.71221" lon="1.42892">
        <ele>1227.74</ele>
        <time>2018-06-23T07:07:39Z</time>
      </trkpt>
      <trkpt lat="42.71228" lon="1.42906">
        <ele>1229.18</ele>
        <time>2018-06-23T07:07:51Z</time>
      </trkpt>
      <trkpt lat="42.71238" lon="1.42917">
        <ele>1230.62</ele>
        <time>2018-06-23T07:08:05Z</time>
      </trkpt>
      <trkpt lat="42.71246" lon="1.42926">
        <ele>1229.18</ele>
        <time>2018-06-23T07:08:16Z</time>
      </trkpt>
      <trkpt lat="42.71259" lon="1.42935">
        <ele>1229.18</ele>
        <time>2018-06-23T07:08:28Z</time>
      </trkpt>
      <trkpt lat="42.71274" lon="1.42944">
        <ele>1231.11</ele>
        <time>2018-06-23T07:08:47Z</time>
      </trkpt>
      <trkpt lat="42.71292" lon="1.42945">
        <ele>1234.95</ele>
        <time>2018-06-23T07:09:11Z</time>
      </trkpt>
      <trkpt lat="42.71305" lon="1.42951">
        <ele>1238.8</ele>
        <time>2018-06-23T07:09:33Z</time>
      </trkpt>
      <trkpt lat="42.71315" lon="1.42963">
        <ele>1238.8</ele>
        <time>2018-06-23T07:09:48Z</time>
      </trkpt>
      <trkpt lat="42.71325" lon="1.42973">
        <ele>1236.87</ele>
        <time>2018-06-23T07:10:00Z</time>
      </trkpt>
      <trkpt lat="42.71333" lon="1.42988">
        <ele>1236.39</ele>
        <time>2018-06-23T07:10:15Z</time>
      </trkpt>
      <trkpt lat="42.71344" lon="1.42999">
        <ele>1236.39</ele>
        <time>2018-06-23T07:10:29Z</time>
      </trkpt>
      <trkpt lat="42.71363" lon="1.43007">
        <ele>1234.47</ele>
        <time>2018-06-23T07:10:48Z</time>
      </trkpt>
      <trkpt lat="42.71378" lon="1.43024">
        <ele>1235.43</ele>
        <time>2018-06-23T07:11:06Z</time>
      </trkpt>
      <trkpt lat="42.71391" lon="1.43035">
        <ele>1237.83</ele>
        <time>2018-06-23T07:11:26Z</time>
      </trkpt>
      <trkpt lat="42.714" lon="1.43052">
        <ele>1239.76</ele>
        <time>2018-06-23T07:11:44Z</time>
      </trkpt>
      <trkpt lat="42.71407" lon="1.43061">
        <ele>1241.68</ele>
        <time>2018-06-23T07:11:56Z</time>
      </trkpt>
      <trkpt lat="42.71419" lon="1.43066">
        <ele>1245.04</ele>
        <time>2018-06-23T07:12:18Z</time>
      </trkpt>
      <trkpt lat="42.71436" lon="1.4308">
        <ele>1250.33</ele>
        <time>2018-06-23T07:12:51Z</time>
      </trkpt>
      <trkpt lat="42.71454" lon="1.4309">
        <ele>1256.1</ele>
        <time>2018-06-23T07:13:30Z</time>
      </trkpt>
      <trkpt lat="42.71465" lon="1.431">
        <ele>1257.54</ele>
        <time>2018-06-23T07:13:47Z</time>
      </trkpt>
      <trkpt lat="42.71479" lon="1.43112">
        <ele>1260.91</ele>
        <time>2018-06-23T07:14:07Z</time>
      </trkpt>
      <trkpt lat="42.71491" lon="1.43129">
        <ele>1258.02</ele>
        <time>2018-06-23T07:14:29Z</time>
      </trkpt>
      <trkpt lat="42.71504" lon="1.43137">
        <ele>1255.62</ele>
        <time>2018-06-23T07:14:45Z</time>
      </trkpt>
      <trkpt lat="42.71512" lon="1.43161">
        <ele>1253.22</ele>
        <time>2018-06-23T07:15:00Z</time>
      </trkpt>
      <trkpt lat="42.71523" lon="1.43178">
        <ele>1251.77</ele>
        <time>2018-06-23T07:15:15Z</time>
      </trkpt>
      <trkpt lat="42.71535" lon="1.43194">
        <ele>1249.85</ele>
        <time>2018-06-23T07:15:32Z</time>
      </trkpt>
      <trkpt lat="42.71548" lon="1.43216">
        <ele>1244.56</ele>
        <time>2018-06-23T07:15:58Z</time>
      </trkpt>
      <trkpt lat="42.71557" lon="1.4324">
        <ele>1239.76</ele>
        <time>2018-06-23T07:16:19Z</time>
      </trkpt>
      <trkpt lat="42.71562" lon="1.43264">
        <ele>1235.43</ele>
        <time>2018-06-23T07:16:40Z</time>
      </trkpt>
      <trkpt lat="42.71573" lon="1.43276">
        <ele>1234.95</ele>
        <time>2018-06-23T07:17:04Z</time>
      </trkpt>
      <trkpt lat="42.71588" lon="1.43282">
        <ele>1235.91</ele>
        <time>2018-06-23T07:17:20Z</time>
      </trkpt>
      <trkpt lat="42.71606" lon="1.433">
        <ele>1236.39</ele>
        <time>2018-06-23T07:17:42Z</time>
      </trkpt>
      <trkpt lat="42.71624" lon="1.43308">
        <ele>1234.95</ele>
        <time>2018-06-23T07:17:58Z</time>
      </trkpt>
      <trkpt lat="42.71641" lon="1.43315">
        <ele>1237.35</ele>
        <time>2018-06-23T07:18:17Z</time>
      </trkpt>
      <trkpt lat="42.7165" lon="1.4332">
        <ele>1239.76</ele>
        <time>2018-06-23T07:18:28Z</time>
      </trkpt>
      <trkpt lat="42.71659" lon="1.43331">
        <ele>1239.76</ele>
        <time>2018-06-23T07:18:41Z</time>
      </trkpt>
      <trkpt lat="42.7167" lon="1.43339">
        <ele>1235.43</ele>
        <time>2018-06-23T07:18:59Z</time>
      </trkpt>
      <trkpt lat="42.71687" lon="1.43352">
        <ele>1233.99</ele>
        <time>2018-06-23T07:19:19Z</time>
      </trkpt>
      <trkpt lat="42.71699" lon="1.43362">
        <ele>1232.07</ele>
        <time>2018-06-23T07:19:34Z</time>
      </trkpt>
      <trkpt lat="42.71714" lon="1.43377">
        <ele>1232.55</ele>
        <time>2018-06-23T07:19:56Z</time>
      </trkpt>
      <trkpt lat="42.71727" lon="1.43384">
        <ele>1232.55</ele>
        <time>2018-06-23T07:20:07Z</time>
      </trkpt>
      <trkpt lat="42.71739" lon="1.43397">
        <ele>1233.03</ele>
        <time>2018-06-23T07:20:20Z</time>
      </trkpt>
      <trkpt lat="42.71752" lon="1.43408">
        <ele>1232.55</ele>
        <time>2018-06-23T07:20:33Z</time>
      </trkpt>
      <trkpt lat="42.71763" lon="1.43422">
        <ele>1233.03</ele>
        <time>2018-06-23T07:20:48Z</time>
      </trkpt>
      <trkpt lat="42.71774" lon="1.43441">
        <ele>1232.55</ele>
        <time>2018-06-23T07:21:04Z</time>
      </trkpt>
      <trkpt lat="42.71783" lon="1.43457">
        <ele>1233.03</ele>
        <time>2018-06-23T07:21:20Z</time>
      </trkpt>
      <trkpt lat="42.71789" lon="1.43475">
        <ele>1233.03</ele>
        <time>2018-06-23T07:21:32Z</time>
      </trkpt>
      <trkpt lat="42.71795" lon="1.43492">
        <ele>1234.47</ele>
        <time>2018-06-23T07:21:48Z</time>
      </trkpt>
      <trkpt lat="42.71802" lon="1.43509">
        <ele>1233.99</ele>
        <time>2018-06-23T07:22:03Z</time>
      </trkpt>
      <trkpt lat="42.71812" lon="1.43524">
        <ele>1231.59</ele>
        <time>2018-06-23T07:22:18Z</time>
      </trkpt>
      <trkpt lat="42.71825" lon="1.4354">
        <ele>1229.66</ele>
        <time>2018-06-23T07:22:55Z</time>
      </trkpt>
      <trkpt lat="42.71821" lon="1.43557">
        <ele>1231.59</ele>
        <time>2018-06-23T07:23:13Z</time>
      </trkpt>
      <trkpt lat="42.71826" lon="1.43572">
        <ele>1233.03</ele>
        <time>2018-06-23T07:23:25Z</time>
      </trkpt>
      <trkpt lat="42.71831" lon="1.43586">
        <ele>1233.03</ele>
        <time>2018-06-23T07:23:37Z</time>
      </trkpt>
      <trkpt lat="42.71836" lon="1.436">
        <ele>1233.03</ele>
        <time>2018-06-23T07:23:47Z</time>
      </trkpt>
      <trkpt lat="42.71844" lon="1.43608">
        <ele>1233.51</ele>
        <time>2018-06-23T07:23:56Z</time>
      </trkpt>
      <trkpt lat="42.71852" lon="1.43618">
        <ele>1233.51</ele>
        <time>2018-06-23T07:24:06Z</time>
      </trkpt>
      <trkpt lat="42.7186" lon="1.43629">
        <ele>1233.51</ele>
        <time>2018-06-23T07:24:16Z</time>
      </trkpt>
      <trkpt lat="42.7187" lon="1.43637">
        <ele>1234.95</ele>
        <time>2018-06-23T07:24:27Z</time>
      </trkpt>
      <trkpt lat="42.71876" lon="1.43649">
        <ele>1235.91</ele>
        <time>2018-06-23T07:24:38Z</time>
      </trkpt>
      <trkpt lat="42.71882" lon="1.43665">
        <ele>1234.47</ele>
        <time>2018-06-23T07:25:05Z</time>
      </trkpt>
      <trkpt lat="42.71884" lon="1.43677">
        <ele>1232.07</ele>
        <time>2018-06-23T07:25:18Z</time>
      </trkpt>
      <trkpt lat="42.71889" lon="1.43695">
        <ele>1231.59</ele>
        <time>2018-06-23T07:25:30Z</time>
      </trkpt>
      <trkpt lat="42.71898" lon="1.43704">
        <ele>1232.55</ele>
        <time>2018-06-23T07:25:43Z</time>
      </trkpt>
      <trkpt lat="42.71906" lon="1.43717">
        <ele>1232.55</ele>
        <time>2018-06-23T07:25:58Z</time>
      </trkpt>
      <trkpt lat="42.71903" lon="1.43731">
        <ele>1231.11</ele>
        <time>2018-06-23T07:26:09Z</time>
      </trkpt>
      <trkpt lat="42.71903" lon="1.43739">
        <ele>1231.11</ele>
        <time>2018-06-23T07:26:25Z</time>
      </trkpt>
      <trkpt lat="42.71907" lon="1.4375">
        <ele>1230.62</ele>
        <time>2018-06-23T07:26:36Z</time>
      </trkpt>
      <trkpt lat="42.71908" lon="1.43765">
        <ele>1229.66</ele>
        <time>2018-06-23T07:26:46Z</time>
      </trkpt>
      <trkpt lat="42.71911" lon="1.43783">
        <ele>1227.26</ele>
        <time>2018-06-23T07:26:57Z</time>
      </trkpt>
      <trkpt lat="42.71913" lon="1.43801">
        <ele>1224.86</ele>
        <time>2018-06-23T07:27:09Z</time>
      </trkpt>
      <trkpt lat="42.71916" lon="1.43815">
        <ele>1223.9</ele>
        <time>2018-06-23T07:27:16Z</time>
      </trkpt>
      <trkpt lat="42.71917" lon="1.43831">
        <ele>1224.86</ele>
        <time>2018-06-23T07:27:27Z</time>
      </trkpt>
      <trkpt lat="42.7192" lon="1.43848">
        <ele>1224.86</ele>
        <time>2018-06-23T07:27:38Z</time>
      </trkpt>
      <trkpt lat="42.71922" lon="1.43864">
        <ele>1224.86</ele>
        <time>2018-06-23T07:27:48Z</time>
      </trkpt>
      <trkpt lat="42.71921" lon="1.43882">
        <ele>1224.86</ele>
        <time>2018-06-23T07:28:00Z</time>
      </trkpt>
      <trkpt lat="42.71919" lon="1.439">
        <ele>1226.3</ele>
        <time>2018-06-23T07:28:14Z</time>
      </trkpt>
      <trkpt lat="42.71919" lon="1.4392">
        <ele>1225.34</ele>
        <time>2018-06-23T07:28:26Z</time>
      </trkpt>
      <trkpt lat="42.7192" lon="1.43938">
        <ele>1225.34</ele>
        <time>2018-06-23T07:28:40Z</time>
      </trkpt>
      <trkpt lat="42.71926" lon="1.43965">
        <ele>1228.22</ele>
        <time>2018-06-23T07:29:22Z</time>
      </trkpt>
      <trkpt lat="42.71928" lon="1.43994">
        <ele>1228.7</ele>
        <time>2018-06-23T07:30:00Z</time>
      </trkpt>
      <trkpt lat="42.71926" lon="1.44019">
        <ele>1226.3</ele>
        <time>2018-06-23T07:30:33Z</time>
      </trkpt>
      <trkpt lat="42.71931" lon="1.44037">
        <ele>1227.26</ele>
        <time>2018-06-23T07:30:45Z</time>
      </trkpt>
      <trkpt lat="42.71934" lon="1.44053">
        <ele>1228.22</ele>
        <time>2018-06-23T07:30:57Z</time>
      </trkpt>
      <trkpt lat="42.71939" lon="1.44068">
        <ele>1230.14</ele>
        <time>2018-06-23T07:31:08Z</time>
      </trkpt>
      <trkpt lat="42.71945" lon="1.44081">
        <ele>1231.59</ele>
        <time>2018-06-23T07:31:22Z</time>
      </trkpt>
      <trkpt lat="42.71946" lon="1.44101">
        <ele>1232.07</ele>
        <time>2018-06-23T07:31:59Z</time>
      </trkpt>
      <trkpt lat="42.71946" lon="1.4412">
        <ele>1230.62</ele>
        <time>2018-06-23T07:32:14Z</time>
      </trkpt>
      <trkpt lat="42.71946" lon="1.44146">
        <ele>1228.22</ele>
        <time>2018-06-23T07:32:31Z</time>
      </trkpt>
      <trkpt lat="42.71951" lon="1.44167">
        <ele>1227.74</ele>
        <time>2018-06-23T07:32:45Z</time>
      </trkpt>
      <trkpt lat="42.71955" lon="1.44183">
        <ele>1227.26</ele>
        <time>2018-06-23T07:32:55Z</time>
      </trkpt>
      <trkpt lat="42.71955" lon="1.44202">
        <ele>1226.78</ele>
        <time>2018-06-23T07:33:07Z</time>
      </trkpt>
      <trkpt lat="42.71953" lon="1.44223">
        <ele>1224.86</ele>
        <time>2018-06-23T07:33:20Z</time>
      </trkpt>
      <trkpt lat="42.71952" lon="1.44242">
        <ele>1223.9</ele>
        <time>2018-06-23T07:33:29Z</time>
      </trkpt>
      <trkpt lat="42.71949" lon="1.44258">
        <ele>1222.93</ele>
        <time>2018-06-23T07:33:38Z</time>
      </trkpt>
      <trkpt lat="42.71946" lon="1.44276">
        <ele>1221.49</ele>
        <time>2018-06-23T07:33:48Z</time>
      </trkpt>
      <trkpt lat="42.71944" lon="1.44292">
        <ele>1220.53</ele>
        <time>2018-06-23T07:33:59Z</time>
      </trkpt>
      <trkpt lat="42.71944" lon="1.44309">
        <ele>1220.53</ele>
        <time>2018-06-23T07:34:09Z</time>
      </trkpt>
      <trkpt lat="42.71948" lon="1.44327">
        <ele>1220.53</ele>
        <time>2018-06-23T07:34:18Z</time>
      </trkpt>
      <trkpt lat="42.7195" lon="1.44345">
        <ele>1220.05</ele>
        <time>2018-06-23T07:34:27Z</time>
      </trkpt>
      <trkpt lat="42.71952" lon="1.44359">
        <ele>1220.05</ele>
        <time>2018-06-23T07:34:37Z</time>
      </trkpt>
      <trkpt lat="42.71956" lon="1.44373">
        <ele>1218.61</ele>
        <time>2018-06-23T07:34:46Z</time>
      </trkpt>
      <trkpt lat="42.71959" lon="1.4439">
        <ele>1217.65</ele>
        <time>2018-06-23T07:34:56Z</time>
      </trkpt>
      <trkpt lat="42.71967" lon="1.44405">
        <ele>1217.65</ele>
        <time>2018-06-23T07:35:05Z</time>
      </trkpt>
      <trkpt lat="42.71971" lon="1.4442">
        <ele>1217.65</ele>
        <time>2018-06-23T07:35:14Z</time>
      </trkpt>
      <trkpt lat="42.71974" lon="1.44435">
        <ele>1218.61</ele>
        <time>2018-06-23T07:35:23Z</time>
      </trkpt>
      <trkpt lat="42.71978" lon="1.4445">
        <ele>1221.01</ele>
        <time>2018-06-23T07:35:36Z</time>
      </trkpt>
      <trkpt lat="42.71982" lon="1.44464">
        <ele>1221.97</ele>
        <time>2018-06-23T07:35:46Z</time>
      </trkpt>
      <trkpt lat="42.71987" lon="1.4448">
        <ele>1221.49</ele>
        <time>2018-06-23T07:35:57Z</time>
      </trkpt>
      <trkpt lat="42.71991" lon="1.44495">
        <ele>1221.49</ele>
        <time>2018-06-23T07:36:06Z</time>
      </trkpt>
      <trkpt lat="42.71995" lon="1.44511">
        <ele>1222.45</ele>
        <time>2018-06-23T07:36:17Z</time>
      </trkpt>
      <trkpt lat="42.72001" lon="1.44524">
        <ele>1222.93</ele>
        <time>2018-06-23T07:36:28Z</time>
      </trkpt>
      <trkpt lat="42.72005" lon="1.44539">
        <ele>1223.42</ele>
        <time>2018-06-23T07:36:38Z</time>
      </trkpt>
      <trkpt lat="42.72007" lon="1.44541">
        <ele>1221.01</ele>
        <time>2018-06-23T07:58:32Z</time>
      </trkpt>
      <trkpt lat="42.72007" lon="1.44552">
        <ele>1220.05</ele>
        <time>2018-06-23T07:59:09Z</time>
      </trkpt>
      <trkpt lat="42.72" lon="1.44556">
        <ele>1217.17</ele>
        <time>2018-06-23T07:59:24Z</time>
      </trkpt>
      <trkpt lat="42.71995" lon="1.4454">
        <ele>1214.28</ele>
        <time>2018-06-23T07:59:37Z</time>
      </trkpt>
      <trkpt lat="42.71985" lon="1.44534">
        <ele>1210.44</ele>
        <time>2018-06-23T07:59:52Z</time>
      </trkpt>
      <trkpt lat="42.71978" lon="1.44517">
        <ele>1208.03</ele>
        <time>2018-06-23T08:00:11Z</time>
      </trkpt>
      <trkpt lat="42.71971" lon="1.44525">
        <ele>1200.82</ele>
        <time>2018-06-23T08:00:50Z</time>
      </trkpt>
      <trkpt lat="42.71961" lon="1.44544">
        <ele>1194.58</ele>
        <time>2018-06-23T08:01:16Z</time>
      </trkpt>
      <trkpt lat="42.71963" lon="1.44565">
        <ele>1194.58</ele>
        <time>2018-06-23T08:01:28Z</time>
      </trkpt>
      <trkpt lat="42.71962" lon="1.44584">
        <ele>1193.13</ele>
        <time>2018-06-23T08:01:41Z</time>
      </trkpt>
      <trkpt lat="42.71956" lon="1.44599">
        <ele>1191.21</ele>
        <time>2018-06-23T08:01:52Z</time>
      </trkpt>
      <trkpt lat="42.71953" lon="1.44618">
        <ele>1188.81</ele>
        <time>2018-06-23T08:02:03Z</time>
      </trkpt>
      <trkpt lat="42.71955" lon="1.44632">
        <ele>1188.81</ele>
        <time>2018-06-23T08:02:11Z</time>
      </trkpt>
      <trkpt lat="42.71957" lon="1.44646">
        <ele>1188.81</ele>
        <time>2018-06-23T08:02:19Z</time>
      </trkpt>
      <trkpt lat="42.71958" lon="1.44661">
        <ele>1187.37</ele>
        <time>2018-06-23T08:02:29Z</time>
      </trkpt>
      <trkpt lat="42.71948" lon="1.4467">
        <ele>1184</ele>
        <time>2018-06-23T08:02:38Z</time>
      </trkpt>
      <trkpt lat="42.7194" lon="1.44665">
        <ele>1182.56</ele>
        <time>2018-06-23T08:02:46Z</time>
      </trkpt>
      <trkpt lat="42.71934" lon="1.44655">
        <ele>1183.52</ele>
        <time>2018-06-23T08:02:55Z</time>
      </trkpt>
      <trkpt lat="42.71931" lon="1.44669">
        <ele>1181.6</ele>
        <time>2018-06-23T08:03:04Z</time>
      </trkpt>
      <trkpt lat="42.71935" lon="1.44681">
        <ele>1179.67</ele>
        <time>2018-06-23T08:03:11Z</time>
      </trkpt>
      <trkpt lat="42.7193" lon="1.44689">
        <ele>1178.23</ele>
        <time>2018-06-23T08:03:26Z</time>
      </trkpt>
      <trkpt lat="42.71935" lon="1.447">
        <ele>1175.83</ele>
        <time>2018-06-23T08:03:36Z</time>
      </trkpt>
      <trkpt lat="42.71945" lon="1.44694">
        <ele>1176.31</ele>
        <time>2018-06-23T08:03:45Z</time>
      </trkpt>
      <trkpt lat="42.71956" lon="1.44684">
        <ele>1175.83</ele>
        <time>2018-06-23T08:03:55Z</time>
      </trkpt>
      <trkpt lat="42.71967" lon="1.44675">
        <ele>1175.83</ele>
        <time>2018-06-23T08:04:08Z</time>
      </trkpt>
      <trkpt lat="42.71978" lon="1.44678">
        <ele>1175.83</ele>
        <time>2018-06-23T08:04:18Z</time>
      </trkpt>
      <trkpt lat="42.71991" lon="1.44675">
        <ele>1175.35</ele>
        <time>2018-06-23T08:04:27Z</time>
      </trkpt>
      <trkpt lat="42.72003" lon="1.44674">
        <ele>1174.87</ele>
        <time>2018-06-23T08:04:39Z</time>
      </trkpt>
      <trkpt lat="42.72013" lon="1.4467">
        <ele>1175.35</ele>
        <time>2018-06-23T08:04:49Z</time>
      </trkpt>
      <trkpt lat="42.72022" lon="1.44657">
        <ele>1174.39</ele>
        <time>2018-06-23T08:04:59Z</time>
      </trkpt>
      <trkpt lat="42.72033" lon="1.44651">
        <ele>1175.35</ele>
        <time>2018-06-23T08:05:10Z</time>
      </trkpt>
      <trkpt lat="42.72048" lon="1.44636">
        <ele>1174.87</ele>
        <time>2018-06-23T08:05:24Z</time>
      </trkpt>
      <trkpt lat="42.72062" lon="1.44624">
        <ele>1175.35</ele>
        <time>2018-06-23T08:05:43Z</time>
      </trkpt>
      <trkpt lat="42.72073" lon="1.44629">
        <ele>1175.35</ele>
        <time>2018-06-23T08:05:51Z</time>
      </trkpt>
      <trkpt lat="42.72083" lon="1.44633">
        <ele>1174.87</ele>
        <time>2018-06-23T08:05:59Z</time>
      </trkpt>
      <trkpt lat="42.721" lon="1.44636">
        <ele>1174.87</ele>
        <time>2018-06-23T08:06:15Z</time>
      </trkpt>
      <trkpt lat="42.72116" lon="1.4464">
        <ele>1174.87</ele>
        <time>2018-06-23T08:06:27Z</time>
      </trkpt>
      <trkpt lat="42.72127" lon="1.44645">
        <ele>1174.87</ele>
        <time>2018-06-23T08:06:36Z</time>
      </trkpt>
      <trkpt lat="42.72137" lon="1.4465">
        <ele>1174.87</ele>
        <time>2018-06-23T08:06:46Z</time>
      </trkpt>
      <trkpt lat="42.72151" lon="1.44652">
        <ele>1173.43</ele>
        <time>2018-06-23T08:06:57Z</time>
      </trkpt>
      <trkpt lat="42.72163" lon="1.44657">
        <ele>1173.91</ele>
        <time>2018-06-23T08:07:09Z</time>
      </trkpt>
      <trkpt lat="42.72178" lon="1.44661">
        <ele>1173.91</ele>
        <time>2018-06-23T08:07:23Z</time>
      </trkpt>
      <trkpt lat="42.72192" lon="1.44663">
        <ele>1174.39</ele>
        <time>2018-06-23T08:07:35Z</time>
      </trkpt>
      <trkpt lat="42.72205" lon="1.44673">
        <ele>1174.39</ele>
        <time>2018-06-23T08:07:47Z</time>
      </trkpt>
      <trkpt lat="42.72212" lon="1.44685">
        <ele>1173.91</ele>
        <time>2018-06-23T08:07:56Z</time>
      </trkpt>
      <trkpt lat="42.72222" lon="1.44693">
        <ele>1173.91</ele>
        <time>2018-06-23T08:08:05Z</time>
      </trkpt>
      <trkpt lat="42.72234" lon="1.44697">
        <ele>1173.91</ele>
        <time>2018-06-23T08:08:16Z</time>
      </trkpt>
      <trkpt lat="42.72251" lon="1.44698">
        <ele>1173.43</ele>
        <time>2018-06-23T08:08:31Z</time>
      </trkpt>
      <trkpt lat="42.72267" lon="1.44702">
        <ele>1173.43</ele>
        <time>2018-06-23T08:08:43Z</time>
      </trkpt>
      <trkpt lat="42.72281" lon="1.44711">
        <ele>1172.95</ele>
        <time>2018-06-23T08:08:54Z</time>
      </trkpt>
      <trkpt lat="42.72291" lon="1.44725">
        <ele>1173.43</ele>
        <time>2018-06-23T08:09:05Z</time>
      </trkpt>
      <trkpt lat="42.72302" lon="1.44735">
        <ele>1172.95</ele>
        <time>2018-06-23T08:09:16Z</time>
      </trkpt>
      <trkpt lat="42.72314" lon="1.4474">
        <ele>1173.43</ele>
        <time>2018-06-23T08:09:27Z</time>
      </trkpt>
      <trkpt lat="42.72329" lon="1.44743">
        <ele>1172.47</ele>
        <time>2018-06-23T08:09:39Z</time>
      </trkpt>
      <trkpt lat="42.72346" lon="1.44748">
        <ele>1172.95</ele>
        <time>2018-06-23T08:09:55Z</time>
      </trkpt>
      <trkpt lat="42.72358" lon="1.44758">
        <ele>1172.95</ele>
        <time>2018-06-23T08:10:05Z</time>
      </trkpt>
      <trkpt lat="42.72369" lon="1.44768">
        <ele>1172.47</ele>
        <time>2018-06-23T08:10:16Z</time>
      </trkpt>
      <trkpt lat="42.72382" lon="1.4477">
        <ele>1172.47</ele>
        <time>2018-06-23T08:10:30Z</time>
      </trkpt>
      <trkpt lat="42.72398" lon="1.44781">
        <ele>1172.47</ele>
        <time>2018-06-23T08:10:43Z</time>
      </trkpt>
      <trkpt lat="42.7241" lon="1.4479">
        <ele>1172.47</ele>
        <time>2018-06-23T08:10:56Z</time>
      </trkpt>
      <trkpt lat="42.72425" lon="1.44795">
        <ele>1172.47</ele>
        <time>2018-06-23T08:11:09Z</time>
      </trkpt>
      <trkpt lat="42.72439" lon="1.44801">
        <ele>1172.95</ele>
        <time>2018-06-23T08:11:24Z</time>
      </trkpt>
      <trkpt lat="42.7246" lon="1.44809">
        <ele>1172.47</ele>
        <time>2018-06-23T08:11:41Z</time>
      </trkpt>
      <trkpt lat="42.72489" lon="1.44822">
        <ele>1171.98</ele>
        <time>2018-06-23T08:12:05Z</time>
      </trkpt>
      <trkpt lat="42.72514" lon="1.44832">
        <ele>1172.47</ele>
        <time>2018-06-23T08:12:27Z</time>
      </trkpt>
      <trkpt lat="42.72532" lon="1.44839">
        <ele>1171.98</ele>
        <time>2018-06-23T08:12:43Z</time>
      </trkpt>
      <trkpt lat="42.72548" lon="1.44833">
        <ele>1171.98</ele>
        <time>2018-06-23T08:13:01Z</time>
      </trkpt>
      <trkpt lat="42.72566" lon="1.4485">
        <ele>1171.98</ele>
        <time>2018-06-23T08:13:18Z</time>
      </trkpt>
      <trkpt lat="42.7258" lon="1.44855">
        <ele>1171.98</ele>
        <time>2018-06-23T08:13:32Z</time>
      </trkpt>
      <trkpt lat="42.72597" lon="1.44856">
        <ele>1171.98</ele>
        <time>2018-06-23T08:13:47Z</time>
      </trkpt>
      <trkpt lat="42.72611" lon="1.44847">
        <ele>1171.5</ele>
        <time>2018-06-23T08:14:00Z</time>
      </trkpt>
      <trkpt lat="42.72627" lon="1.44832">
        <ele>1171.5</ele>
        <time>2018-06-23T08:14:18Z</time>
      </trkpt>
      <trkpt lat="42.72643" lon="1.44813">
        <ele>1171.5</ele>
        <time>2018-06-23T08:14:36Z</time>
      </trkpt>
      <trkpt lat="42.72656" lon="1.4479">
        <ele>1171.02</ele>
        <time>2018-06-23T08:14:57Z</time>
      </trkpt>
      <trkpt lat="42.72662" lon="1.4477">
        <ele>1171.02</ele>
        <time>2018-06-23T08:15:11Z</time>
      </trkpt>
      <trkpt lat="42.72674" lon="1.44752">
        <ele>1170.54</ele>
        <time>2018-06-23T08:15:32Z</time>
      </trkpt>
      <trkpt lat="42.72678" lon="1.44737">
        <ele>1170.06</ele>
        <time>2018-06-23T08:15:48Z</time>
      </trkpt>
      <trkpt lat="42.727" lon="1.4472">
        <ele>1170.06</ele>
        <time>2018-06-23T08:16:03Z</time>
      </trkpt>
      <trkpt lat="42.72725" lon="1.44712">
        <ele>1170.06</ele>
        <time>2018-06-23T08:16:26Z</time>
      </trkpt>
      <trkpt lat="42.72745" lon="1.44697">
        <ele>1170.54</ele>
        <time>2018-06-23T08:16:43Z</time>
      </trkpt>
      <trkpt lat="42.72757" lon="1.44683">
        <ele>1170.54</ele>
        <time>2018-06-23T08:16:57Z</time>
      </trkpt>
      <trkpt lat="42.72778" lon="1.44675">
        <ele>1171.5</ele>
        <time>2018-06-23T08:17:19Z</time>
      </trkpt>
      <trkpt lat="42.72794" lon="1.44682">
        <ele>1171.02</ele>
        <time>2018-06-23T08:17:45Z</time>
      </trkpt>
      <trkpt lat="42.72785" lon="1.44693">
        <ele>1169.58</ele>
        <time>2018-06-23T08:18:02Z</time>
      </trkpt>
      <trkpt lat="42.72781" lon="1.44708">
        <ele>1169.1</ele>
        <time>2018-06-23T08:18:13Z</time>
      </trkpt>
      <trkpt lat="42.72777" lon="1.44725">
        <ele>1169.58</ele>
        <time>2018-06-23T08:18:25Z</time>
      </trkpt>
      <trkpt lat="42.72773" lon="1.4474">
        <ele>1170.06</ele>
        <time>2018-06-23T08:18:35Z</time>
      </trkpt>
      <trkpt lat="42.72772" lon="1.44759">
        <ele>1169.58</ele>
        <time>2018-06-23T08:18:47Z</time>
      </trkpt>
      <trkpt lat="42.72768" lon="1.44777">
        <ele>1169.58</ele>
        <time>2018-06-23T08:19:00Z</time>
      </trkpt>
      <trkpt lat="42.72767" lon="1.44793">
        <ele>1170.06</ele>
        <time>2018-06-23T08:19:10Z</time>
      </trkpt>
      <trkpt lat="42.72767" lon="1.44812">
        <ele>1168.62</ele>
        <time>2018-06-23T08:19:22Z</time>
      </trkpt>
      <trkpt lat="42.72779" lon="1.44839">
        <ele>1169.1</ele>
        <time>2018-06-23T08:19:40Z</time>
      </trkpt>
      <trkpt lat="42.72782" lon="1.44873">
        <ele>1169.1</ele>
        <time>2018-06-23T08:20:00Z</time>
      </trkpt>
      <trkpt lat="42.72785" lon="1.44896">
        <ele>1169.1</ele>
        <time>2018-06-23T08:20:16Z</time>
      </trkpt>
      <trkpt lat="42.7279" lon="1.4492">
        <ele>1168.62</ele>
        <time>2018-06-23T08:20:30Z</time>
      </trkpt>
      <trkpt lat="42.72796" lon="1.44943">
        <ele>1169.1</ele>
        <time>2018-06-23T08:20:43Z</time>
      </trkpt>
      <trkpt lat="42.72805" lon="1.44968">
        <ele>1168.62</ele>
        <time>2018-06-23T08:21:03Z</time>
      </trkpt>
      <trkpt lat="42.72818" lon="1.44996">
        <ele>1168.62</ele>
        <time>2018-06-23T08:21:23Z</time>
      </trkpt>
      <trkpt lat="42.72827" lon="1.45015">
        <ele>1168.62</ele>
        <time>2018-06-23T08:21:37Z</time>
      </trkpt>
      <trkpt lat="42.72839" lon="1.45032">
        <ele>1168.62</ele>
        <time>2018-06-23T08:21:53Z</time>
      </trkpt>
      <trkpt lat="42.72852" lon="1.45052">
        <ele>1168.62</ele>
        <time>2018-06-23T08:22:08Z</time>
      </trkpt>
      <trkpt lat="42.72866" lon="1.45061">
        <ele>1168.62</ele>
        <time>2018-06-23T08:22:22Z</time>
      </trkpt>
      <trkpt lat="42.72884" lon="1.45068">
        <ele>1168.62</ele>
        <time>2018-06-23T08:22:41Z</time>
      </trkpt>
      <trkpt lat="42.72903" lon="1.45081">
        <ele>1167.66</ele>
        <time>2018-06-23T08:23:17Z</time>
      </trkpt>
      <trkpt lat="42.72922" lon="1.45083">
        <ele>1167.66</ele>
        <time>2018-06-23T08:23:34Z</time>
      </trkpt>
      <trkpt lat="42.72941" lon="1.45093">
        <ele>1167.66</ele>
        <time>2018-06-23T08:23:49Z</time>
      </trkpt>
      <trkpt lat="42.72955" lon="1.45101">
        <ele>1167.66</ele>
        <time>2018-06-23T08:24:03Z</time>
      </trkpt>
      <trkpt lat="42.7297" lon="1.45115">
        <ele>1167.66</ele>
        <time>2018-06-23T08:24:18Z</time>
      </trkpt>
      <trkpt lat="42.72984" lon="1.45126">
        <ele>1167.66</ele>
        <time>2018-06-23T08:24:33Z</time>
      </trkpt>
      <trkpt lat="42.72997" lon="1.4514">
        <ele>1167.66</ele>
        <time>2018-06-23T08:24:45Z</time>
      </trkpt>
      <trkpt lat="42.73007" lon="1.45151">
        <ele>1168.14</ele>
        <time>2018-06-23T08:24:58Z</time>
      </trkpt>
      <trkpt lat="42.7302" lon="1.45162">
        <ele>1167.66</ele>
        <time>2018-06-23T08:25:12Z</time>
      </trkpt>
      <trkpt lat="42.73033" lon="1.45181">
        <ele>1168.14</ele>
        <time>2018-06-23T08:25:27Z</time>
      </trkpt>
      <trkpt lat="42.73048" lon="1.45191">
        <ele>1167.66</ele>
        <time>2018-06-23T08:25:40Z</time>
      </trkpt>
      <trkpt lat="42.7306" lon="1.452">
        <ele>1167.66</ele>
        <time>2018-06-23T08:25:53Z</time>
      </trkpt>
      <trkpt lat="42.73071" lon="1.45213">
        <ele>1166.7</ele>
        <time>2018-06-23T08:26:04Z</time>
      </trkpt>
      <trkpt lat="42.73086" lon="1.45229">
        <ele>1166.7</ele>
        <time>2018-06-23T08:26:20Z</time>
      </trkpt>
      <trkpt lat="42.73101" lon="1.45242">
        <ele>1167.18</ele>
        <time>2018-06-23T08:26:33Z</time>
      </trkpt>
      <trkpt lat="42.7311" lon="1.45258">
        <ele>1166.7</ele>
        <time>2018-06-23T08:26:46Z</time>
      </trkpt>
      <trkpt lat="42.73121" lon="1.45274">
        <ele>1166.7</ele>
        <time>2018-06-23T08:26:59Z</time>
      </trkpt>
      <trkpt lat="42.73132" lon="1.45287">
        <ele>1166.7</ele>
        <time>2018-06-23T08:27:11Z</time>
      </trkpt>
      <trkpt lat="42.73142" lon="1.45301">
        <ele>1166.22</ele>
        <time>2018-06-23T08:27:23Z</time>
      </trkpt>
      <trkpt lat="42.73153" lon="1.45311">
        <ele>1166.22</ele>
        <time>2018-06-23T08:27:34Z</time>
      </trkpt>
      <trkpt lat="42.73166" lon="1.45319">
        <ele>1166.22</ele>
        <time>2018-06-23T08:27:45Z</time>
      </trkpt>
      <trkpt lat="42.73175" lon="1.4533">
        <ele>1166.22</ele>
        <time>2018-06-23T08:27:56Z</time>
      </trkpt>
      <trkpt lat="42.73188" lon="1.45341">
        <ele>1166.22</ele>
        <time>2018-06-23T08:28:07Z</time>
      </trkpt>
      <trkpt lat="42.73197" lon="1.45355">
        <ele>1166.22</ele>
        <time>2018-06-23T08:28:18Z</time>
      </trkpt>
      <trkpt lat="42.73206" lon="1.45367">
        <ele>1165.74</ele>
        <time>2018-06-23T08:28:27Z</time>
      </trkpt>
      <trkpt lat="42.73216" lon="1.45374">
        <ele>1165.74</ele>
        <time>2018-06-23T08:28:37Z</time>
      </trkpt>
      <trkpt lat="42.73228" lon="1.45378">
        <ele>1165.26</ele>
        <time>2018-06-23T08:28:47Z</time>
      </trkpt>
      <trkpt lat="42.73244" lon="1.45381">
        <ele>1164.77</ele>
        <time>2018-06-23T08:30:49Z</time>
      </trkpt>
      <trkpt lat="42.73259" lon="1.45385">
        <ele>1164.77</ele>
        <time>2018-06-23T08:31:03Z</time>
      </trkpt>
      <trkpt lat="42.73274" lon="1.45374">
        <ele>1164.77</ele>
        <time>2018-06-23T08:31:19Z</time>
      </trkpt>
      <trkpt lat="42.73287" lon="1.45356">
        <ele>1164.77</ele>
        <time>2018-06-23T08:31:34Z</time>
      </trkpt>
      <trkpt lat="42.73297" lon="1.45339">
        <ele>1164.77</ele>
        <time>2018-06-23T08:31:49Z</time>
      </trkpt>
      <trkpt lat="42.73308" lon="1.45314">
        <ele>1164.29</ele>
        <time>2018-06-23T08:32:04Z</time>
      </trkpt>
      <trkpt lat="42.73315" lon="1.45291">
        <ele>1164.77</ele>
        <time>2018-06-23T08:32:20Z</time>
      </trkpt>
      <trkpt lat="42.73313" lon="1.45275">
        <ele>1164.77</ele>
        <time>2018-06-23T08:32:33Z</time>
      </trkpt>
      <trkpt lat="42.73315" lon="1.45255">
        <ele>1163.81</ele>
        <time>2018-06-23T08:32:45Z</time>
      </trkpt>
      <trkpt lat="42.73317" lon="1.4524">
        <ele>1164.77</ele>
        <time>2018-06-23T08:32:53Z</time>
      </trkpt>
      <trkpt lat="42.73323" lon="1.45227">
        <ele>1164.29</ele>
        <time>2018-06-23T08:32:59Z</time>
      </trkpt>
      <trkpt lat="42.7333" lon="1.45217">
        <ele>1164.29</ele>
        <time>2018-06-23T08:33:04Z</time>
      </trkpt>
      <trkpt lat="42.73343" lon="1.45196">
        <ele>1164.29</ele>
        <time>2018-06-23T08:33:15Z</time>
      </trkpt>
      <trkpt lat="42.73348" lon="1.45173">
        <ele>1164.29</ele>
        <time>2018-06-23T08:33:26Z</time>
      </trkpt>
      <trkpt lat="42.73343" lon="1.45164">
        <ele>1162.85</ele>
        <time>2018-06-23T08:33:36Z</time>
      </trkpt>
      <trkpt lat="42.73338" lon="1.45175">
        <ele>1166.22</ele>
        <time>2018-06-23T08:33:55Z</time>
      </trkpt>
      <trkpt lat="42.73345" lon="1.45187">
        <ele>1164.29</ele>
        <time>2018-06-23T08:34:05Z</time>
      </trkpt>
      <trkpt lat="42.73351" lon="1.45198">
        <ele>1163.33</ele>
        <time>2018-06-23T08:34:15Z</time>
      </trkpt>
      <trkpt lat="42.73361" lon="1.45209">
        <ele>1163.81</ele>
        <time>2018-06-23T08:34:27Z</time>
      </trkpt>
      <trkpt lat="42.73377" lon="1.45214">
        <ele>1163.33</ele>
        <time>2018-06-23T08:34:46Z</time>
      </trkpt>
      <trkpt lat="42.73399" lon="1.45221">
        <ele>1163.81</ele>
        <time>2018-06-23T08:35:02Z</time>
      </trkpt>
      <trkpt lat="42.73416" lon="1.45225">
        <ele>1163.33</ele>
        <time>2018-06-23T08:35:18Z</time>
      </trkpt>
      <trkpt lat="42.73434" lon="1.45235">
        <ele>1163.33</ele>
        <time>2018-06-23T08:35:31Z</time>
      </trkpt>
      <trkpt lat="42.73451" lon="1.45249">
        <ele>1163.33</ele>
        <time>2018-06-23T08:35:49Z</time>
      </trkpt>
      <trkpt lat="42.73468" lon="1.45259">
        <ele>1163.81</ele>
        <time>2018-06-23T08:36:04Z</time>
      </trkpt>
      <trkpt lat="42.73486" lon="1.45251">
        <ele>1163.33</ele>
        <time>2018-06-23T08:36:21Z</time>
      </trkpt>
      <trkpt lat="42.73512" lon="1.45234">
        <ele>1162.85</ele>
        <time>2018-06-23T08:36:45Z</time>
      </trkpt>
      <trkpt lat="42.73542" lon="1.45227">
        <ele>1163.33</ele>
        <time>2018-06-23T08:37:10Z</time>
      </trkpt>
      <trkpt lat="42.73559" lon="1.4522">
        <ele>1162.37</ele>
        <time>2018-06-23T08:37:25Z</time>
      </trkpt>
      <trkpt lat="42.73571" lon="1.45217">
        <ele>1162.85</ele>
        <time>2018-06-23T08:37:35Z</time>
      </trkpt>
      <trkpt lat="42.73588" lon="1.45212">
        <ele>1162.37</ele>
        <time>2018-06-23T08:37:48Z</time>
      </trkpt>
      <trkpt lat="42.7361" lon="1.45213">
        <ele>1162.37</ele>
        <time>2018-06-23T08:38:07Z</time>
      </trkpt>
      <trkpt lat="42.73629" lon="1.45199">
        <ele>1162.37</ele>
        <time>2018-06-23T08:38:26Z</time>
      </trkpt>
      <trkpt lat="42.73652" lon="1.45184">
        <ele>1159.97</ele>
        <time>2018-06-23T08:38:55Z</time>
      </trkpt>
      <trkpt lat="42.73663" lon="1.45203">
        <ele>1162.37</ele>
        <time>2018-06-23T08:39:12Z</time>
      </trkpt>
      <trkpt lat="42.73679" lon="1.45215">
        <ele>1162.85</ele>
        <time>2018-06-23T08:39:28Z</time>
      </trkpt>
      <trkpt lat="42.73693" lon="1.45221">
        <ele>1161.89</ele>
        <time>2018-06-23T08:39:41Z</time>
      </trkpt>
      <trkpt lat="42.73715" lon="1.45219">
        <ele>1161.89</ele>
        <time>2018-06-23T08:40:00Z</time>
      </trkpt>
      <trkpt lat="42.73739" lon="1.45206">
        <ele>1162.37</ele>
        <time>2018-06-23T08:40:20Z</time>
      </trkpt>
      <trkpt lat="42.73745" lon="1.45187">
        <ele>1161.89</ele>
        <time>2018-06-23T08:40:33Z</time>
      </trkpt>
      <trkpt lat="42.73758" lon="1.45177">
        <ele>1161.41</ele>
        <time>2018-06-23T08:40:56Z</time>
      </trkpt>
      <trkpt lat="42.73774" lon="1.45159">
        <ele>1163.33</ele>
        <time>2018-06-23T08:41:17Z</time>
      </trkpt>
      <trkpt lat="42.73794" lon="1.45155">
        <ele>1163.81</ele>
        <time>2018-06-23T08:41:34Z</time>
      </trkpt>
      <trkpt lat="42.73797" lon="1.45169">
        <ele>1163.33</ele>
        <time>2018-06-23T08:41:47Z</time>
      </trkpt>
      <trkpt lat="42.73792" lon="1.45186">
        <ele>1163.33</ele>
        <time>2018-06-23T08:42:00Z</time>
      </trkpt>
      <trkpt lat="42.73793" lon="1.45203">
        <ele>1161.89</ele>
        <time>2018-06-23T08:42:15Z</time>
      </trkpt>
      <trkpt lat="42.73806" lon="1.45218">
        <ele>1161.89</ele>
        <time>2018-06-23T08:42:29Z</time>
      </trkpt>
      <trkpt lat="42.73817" lon="1.45237">
        <ele>1161.41</ele>
        <time>2018-06-23T08:42:44Z</time>
      </trkpt>
      <trkpt lat="42.73829" lon="1.45251">
        <ele>1160.93</ele>
        <time>2018-06-23T08:42:57Z</time>
      </trkpt>
      <trkpt lat="42.73838" lon="1.45265">
        <ele>1161.41</ele>
        <time>2018-06-23T08:43:08Z</time>
      </trkpt>
      <trkpt lat="42.73847" lon="1.4528">
        <ele>1160.93</ele>
        <time>2018-06-23T08:43:18Z</time>
      </trkpt>
      <trkpt lat="42.73858" lon="1.45292">
        <ele>1161.41</ele>
        <time>2018-06-23T08:43:29Z</time>
      </trkpt>
      <trkpt lat="42.7387" lon="1.45299">
        <ele>1160.93</ele>
        <time>2018-06-23T08:43:40Z</time>
      </trkpt>
      <trkpt lat="42.73883" lon="1.45308">
        <ele>1160.93</ele>
        <time>2018-06-23T08:43:53Z</time>
      </trkpt>
      <trkpt lat="42.73894" lon="1.45312">
        <ele>1159.97</ele>
        <time>2018-06-23T08:44:03Z</time>
      </trkpt>
      <trkpt lat="42.73905" lon="1.45318">
        <ele>1161.41</ele>
        <time>2018-06-23T08:44:13Z</time>
      </trkpt>
      <trkpt lat="42.73916" lon="1.45324">
        <ele>1160.45</ele>
        <time>2018-06-23T08:44:25Z</time>
      </trkpt>
      <trkpt lat="42.73933" lon="1.45326">
        <ele>1160.93</ele>
        <time>2018-06-23T08:44:37Z</time>
      </trkpt>
      <trkpt lat="42.73949" lon="1.4533">
        <ele>1161.41</ele>
        <time>2018-06-23T08:44:50Z</time>
      </trkpt>
      <trkpt lat="42.7396" lon="1.45336">
        <ele>1160.93</ele>
        <time>2018-06-23T08:45:01Z</time>
      </trkpt>
      <trkpt lat="42.73975" lon="1.45347">
        <ele>1159.97</ele>
        <time>2018-06-23T08:45:14Z</time>
      </trkpt>
      <trkpt lat="42.73989" lon="1.45361">
        <ele>1160.45</ele>
        <time>2018-06-23T08:45:28Z</time>
      </trkpt>
      <trkpt lat="42.74002" lon="1.45371">
        <ele>1160.45</ele>
        <time>2018-06-23T08:45:40Z</time>
      </trkpt>
      <trkpt lat="42.74019" lon="1.45378">
        <ele>1159.97</ele>
        <time>2018-06-23T08:45:58Z</time>
      </trkpt>
      <trkpt lat="42.74033" lon="1.45368">
        <ele>1159.97</ele>
        <time>2018-06-23T08:46:12Z</time>
      </trkpt>
      <trkpt lat="42.74051" lon="1.4535">
        <ele>1159.49</ele>
        <time>2018-06-23T08:46:33Z</time>
      </trkpt>
      <trkpt lat="42.74075" lon="1.45343">
        <ele>1159.97</ele>
        <time>2018-06-23T08:46:51Z</time>
      </trkpt>
      <trkpt lat="42.7409" lon="1.45347">
        <ele>1159.49</ele>
        <time>2018-06-23T08:47:03Z</time>
      </trkpt>
      <trkpt lat="42.74103" lon="1.45358">
        <ele>1159.49</ele>
        <time>2018-06-23T08:47:15Z</time>
      </trkpt>
      <trkpt lat="42.74107" lon="1.45375">
        <ele>1159.01</ele>
        <time>2018-06-23T08:47:27Z</time>
      </trkpt>
      <trkpt lat="42.74113" lon="1.45389">
        <ele>1159.01</ele>
        <time>2018-06-23T08:47:40Z</time>
      </trkpt>
      <trkpt lat="42.74127" lon="1.45396">
        <ele>1159.01</ele>
        <time>2018-06-23T08:47:53Z</time>
      </trkpt>
      <trkpt lat="42.74147" lon="1.45405">
        <ele>1159.49</ele>
        <time>2018-06-23T08:48:12Z</time>
      </trkpt>
      <trkpt lat="42.74152" lon="1.45431">
        <ele>1159.97</ele>
        <time>2018-06-23T08:48:32Z</time>
      </trkpt>
      <trkpt lat="42.74149" lon="1.45457">
        <ele>1159.49</ele>
        <time>2018-06-23T08:48:48Z</time>
      </trkpt>
      <trkpt lat="42.74154" lon="1.45472">
        <ele>1159.49</ele>
        <time>2018-06-23T08:49:00Z</time>
      </trkpt>
      <trkpt lat="42.7416" lon="1.45501">
        <ele>1159.01</ele>
        <time>2018-06-23T08:49:41Z</time>
      </trkpt>
      <trkpt lat="42.74167" lon="1.45495">
        <ele>1161.89</ele>
        <time>2018-06-23T08:50:56Z</time>
      </trkpt>
      <trkpt lat="42.74162" lon="1.45481">
        <ele>1165.74</ele>
        <time>2018-06-23T08:51:18Z</time>
      </trkpt>
      <trkpt lat="42.74169" lon="1.45472">
        <ele>1171.02</ele>
        <time>2018-06-23T08:51:45Z</time>
      </trkpt>
      <trkpt lat="42.74169" lon="1.45459">
        <ele>1174.87</ele>
        <time>2018-06-23T08:52:12Z</time>
      </trkpt>
      <trkpt lat="42.74182" lon="1.45475">
        <ele>1179.67</ele>
        <time>2018-06-23T08:52:46Z</time>
      </trkpt>
      <trkpt lat="42.74195" lon="1.45487">
        <ele>1185.92</ele>
        <time>2018-06-23T08:53:22Z</time>
      </trkpt>
      <trkpt lat="42.74203" lon="1.45494">
        <ele>1191.21</ele>
        <time>2018-06-23T08:54:03Z</time>
      </trkpt>
      <trkpt lat="42.74203" lon="1.45475">
        <ele>1195.54</ele>
        <time>2018-06-23T08:54:31Z</time>
      </trkpt>
      <trkpt lat="42.74205" lon="1.45459">
        <ele>1197.94</ele>
        <time>2018-06-23T08:54:53Z</time>
      </trkpt>
      <trkpt lat="42.74199" lon="1.4544">
        <ele>1201.3</ele>
        <time>2018-06-23T08:55:18Z</time>
      </trkpt>
      <trkpt lat="42.74211" lon="1.45448">
        <ele>1203.71</ele>
        <time>2018-06-23T08:55:40Z</time>
      </trkpt>
      <trkpt lat="42.74222" lon="1.45464">
        <ele>1207.07</ele>
        <time>2018-06-23T08:56:04Z</time>
      </trkpt>
      <trkpt lat="42.74229" lon="1.45483">
        <ele>1211.4</ele>
        <time>2018-06-23T08:56:35Z</time>
      </trkpt>
      <trkpt lat="42.74231" lon="1.4547">
        <ele>1215.24</ele>
        <time>2018-06-23T08:57:04Z</time>
      </trkpt>
      <trkpt lat="42.74238" lon="1.4546">
        <ele>1219.57</ele>
        <time>2018-06-23T08:57:31Z</time>
      </trkpt>
      <trkpt lat="42.74244" lon="1.45479">
        <ele>1222.45</ele>
        <time>2018-06-23T08:57:59Z</time>
      </trkpt>
      <trkpt lat="42.74252" lon="1.45481">
        <ele>1228.7</ele>
        <time>2018-06-23T08:58:37Z</time>
      </trkpt>
      <trkpt lat="42.74259" lon="1.45469">
        <ele>1232.07</ele>
        <time>2018-06-23T08:59:07Z</time>
      </trkpt>
      <trkpt lat="42.7426" lon="1.45453">
        <ele>1236.87</ele>
        <time>2018-06-23T08:59:39Z</time>
      </trkpt>
      <trkpt lat="42.74257" lon="1.45433">
        <ele>1241.2</ele>
        <time>2018-06-23T09:00:28Z</time>
      </trkpt>
      <trkpt lat="42.7426" lon="1.45417">
        <ele>1246.01</ele>
        <time>2018-06-23T09:01:38Z</time>
      </trkpt>
      <trkpt lat="42.7427" lon="1.45433">
        <ele>1251.29</ele>
        <time>2018-06-23T09:02:12Z</time>
      </trkpt>
      <trkpt lat="42.74283" lon="1.45445">
        <ele>1256.1</ele>
        <time>2018-06-23T09:02:50Z</time>
      </trkpt>
      <trkpt lat="42.74296" lon="1.45453">
        <ele>1260.91</ele>
        <time>2018-06-23T09:03:21Z</time>
      </trkpt>
      <trkpt lat="42.74304" lon="1.45441">
        <ele>1264.27</ele>
        <time>2018-06-23T09:03:51Z</time>
      </trkpt>
      <trkpt lat="42.74301" lon="1.45429">
        <ele>1268.12</ele>
        <time>2018-06-23T09:04:19Z</time>
      </trkpt>
      <trkpt lat="42.74299" lon="1.45409">
        <ele>1271.96</ele>
        <time>2018-06-23T09:04:49Z</time>
      </trkpt>
      <trkpt lat="42.74298" lon="1.45391">
        <ele>1277.25</ele>
        <time>2018-06-23T09:05:24Z</time>
      </trkpt>
      <trkpt lat="42.74306" lon="1.45391">
        <ele>1281.09</ele>
        <time>2018-06-23T09:05:58Z</time>
      </trkpt>
      <trkpt lat="42.74315" lon="1.45396">
        <ele>1284.94</ele>
        <time>2018-06-23T09:06:27Z</time>
      </trkpt>
      <trkpt lat="42.7431" lon="1.45376">
        <ele>1288.3</ele>
        <time>2018-06-23T09:06:54Z</time>
      </trkpt>
      <trkpt lat="42.74306" lon="1.45366">
        <ele>1291.19</ele>
        <time>2018-06-23T09:07:17Z</time>
      </trkpt>
      <trkpt lat="42.74318" lon="1.45369">
        <ele>1294.07</ele>
        <time>2018-06-23T09:07:42Z</time>
      </trkpt>
      <trkpt lat="42.74327" lon="1.45379">
        <ele>1296.96</ele>
        <time>2018-06-23T09:08:05Z</time>
      </trkpt>
      <trkpt lat="42.7434" lon="1.45369">
        <ele>1302.24</ele>
        <time>2018-06-23T09:08:45Z</time>
      </trkpt>
      <trkpt lat="42.7433" lon="1.45355">
        <ele>1306.09</ele>
        <time>2018-06-23T09:09:17Z</time>
      </trkpt>
      <trkpt lat="42.7433" lon="1.45338">
        <ele>1310.41</ele>
        <time>2018-06-23T09:09:46Z</time>
      </trkpt>
      <trkpt lat="42.74341" lon="1.45336">
        <ele>1315.22</ele>
        <time>2018-06-23T09:10:28Z</time>
      </trkpt>
      <trkpt lat="42.7435" lon="1.45327">
        <ele>1319.55</ele>
        <time>2018-06-23T09:10:56Z</time>
      </trkpt>
      <trkpt lat="42.7435" lon="1.45309">
        <ele>1321.95</ele>
        <time>2018-06-23T09:11:25Z</time>
      </trkpt>
      <trkpt lat="42.74361" lon="1.45307">
        <ele>1328.2</ele>
        <time>2018-06-23T09:12:14Z</time>
      </trkpt>
      <trkpt lat="42.74362" lon="1.45288">
        <ele>1332.04</ele>
        <time>2018-06-23T09:12:48Z</time>
      </trkpt>
      <trkpt lat="42.74368" lon="1.45283">
        <ele>1336.85</ele>
        <time>2018-06-23T09:13:23Z</time>
      </trkpt>
      <trkpt lat="42.74381" lon="1.45288">
        <ele>1342.62</ele>
        <time>2018-06-23T09:14:21Z</time>
      </trkpt>
      <trkpt lat="42.74379" lon="1.45269">
        <ele>1347.43</ele>
        <time>2018-06-23T09:14:55Z</time>
      </trkpt>
      <trkpt lat="42.74386" lon="1.45283">
        <ele>1351.27</ele>
        <time>2018-06-23T09:15:23Z</time>
      </trkpt>
      <trkpt lat="42.74385" lon="1.45257">
        <ele>1356.08</ele>
        <time>2018-06-23T09:16:05Z</time>
      </trkpt>
      <trkpt lat="42.74397" lon="1.45267">
        <ele>1359.92</ele>
        <time>2018-06-23T09:16:41Z</time>
      </trkpt>
      <trkpt lat="42.74399" lon="1.45255">
        <ele>1364.25</ele>
        <time>2018-06-23T09:17:12Z</time>
      </trkpt>
      <trkpt lat="42.74397" lon="1.45235">
        <ele>1369.05</ele>
        <time>2018-06-23T09:17:44Z</time>
      </trkpt>
      <trkpt lat="42.74404" lon="1.45237">
        <ele>1373.38</ele>
        <time>2018-06-23T09:18:24Z</time>
      </trkpt>
      <trkpt lat="42.74407" lon="1.45228">
        <ele>1378.19</ele>
        <time>2018-06-23T09:19:03Z</time>
      </trkpt>
      <trkpt lat="42.74415" lon="1.45222">
        <ele>1384.44</ele>
        <time>2018-06-23T09:19:53Z</time>
      </trkpt>
      <trkpt lat="42.7441" lon="1.45204">
        <ele>1387.8</ele>
        <time>2018-06-23T09:20:23Z</time>
      </trkpt>
      <trkpt lat="42.74405" lon="1.45184">
        <ele>1393.57</ele>
        <time>2018-06-23T09:21:07Z</time>
      </trkpt>
      <trkpt lat="42.74422" lon="1.45199">
        <ele>1397.89</ele>
        <time>2018-06-23T09:21:48Z</time>
      </trkpt>
      <trkpt lat="42.74438" lon="1.45206">
        <ele>1402.22</ele>
        <time>2018-06-23T09:22:27Z</time>
      </trkpt>
      <trkpt lat="42.74435" lon="1.45193">
        <ele>1405.1</ele>
        <time>2018-06-23T09:23:23Z</time>
      </trkpt>
      <trkpt lat="42.74428" lon="1.45175">
        <ele>1409.43</ele>
        <time>2018-06-23T09:23:58Z</time>
      </trkpt>
      <trkpt lat="42.74419" lon="1.45153">
        <ele>1414.72</ele>
        <time>2018-06-23T09:24:38Z</time>
      </trkpt>
      <trkpt lat="42.74413" lon="1.45137">
        <ele>1419.52</ele>
        <time>2018-06-23T09:25:18Z</time>
      </trkpt>
      <trkpt lat="42.74423" lon="1.45148">
        <ele>1421.45</ele>
        <time>2018-06-23T09:26:10Z</time>
      </trkpt>
      <trkpt lat="42.74441" lon="1.45144">
        <ele>1426.73</ele>
        <time>2018-06-23T09:26:59Z</time>
      </trkpt>
      <trkpt lat="42.74461" lon="1.45129">
        <ele>1430.58</ele>
        <time>2018-06-23T09:27:41Z</time>
      </trkpt>
      <trkpt lat="42.74475" lon="1.45114">
        <ele>1432.98</ele>
        <time>2018-06-23T09:28:10Z</time>
      </trkpt>
      <trkpt lat="42.74479" lon="1.45102">
        <ele>1431.06</ele>
        <time>2018-06-23T09:28:31Z</time>
      </trkpt>
      <trkpt lat="42.74485" lon="1.45086">
        <ele>1427.7</ele>
        <time>2018-06-23T09:29:39Z</time>
      </trkpt>
      <trkpt lat="42.74504" lon="1.45064">
        <ele>1424.33</ele>
        <time>2018-06-23T09:30:02Z</time>
      </trkpt>
      <trkpt lat="42.74517" lon="1.45049">
        <ele>1423.85</ele>
        <time>2018-06-23T09:30:26Z</time>
      </trkpt>
      <trkpt lat="42.74522" lon="1.45015">
        <ele>1420.97</ele>
        <time>2018-06-23T09:30:45Z</time>
      </trkpt>
      <trkpt lat="42.7454" lon="1.44995">
        <ele>1415.68</ele>
        <time>2018-06-23T09:31:16Z</time>
      </trkpt>
      <trkpt lat="42.74562" lon="1.4497">
        <ele>1414.72</ele>
        <time>2018-06-23T09:31:50Z</time>
      </trkpt>
      <trkpt lat="42.74565" lon="1.4495">
        <ele>1416.16</ele>
        <time>2018-06-23T09:32:11Z</time>
      </trkpt>
      <trkpt lat="42.74575" lon="1.44936">
        <ele>1420</ele>
        <time>2018-06-23T09:32:42Z</time>
      </trkpt>
      <trkpt lat="42.74598" lon="1.44916">
        <ele>1424.81</ele>
        <time>2018-06-23T09:33:25Z</time>
      </trkpt>
      <trkpt lat="42.74609" lon="1.44895">
        <ele>1427.7</ele>
        <time>2018-06-23T09:34:02Z</time>
      </trkpt>
      <trkpt lat="42.7462" lon="1.44879">
        <ele>1431.54</ele>
        <time>2018-06-23T09:34:34Z</time>
      </trkpt>
      <trkpt lat="42.74632" lon="1.44865">
        <ele>1434.91</ele>
        <time>2018-06-23T09:35:09Z</time>
      </trkpt>
      <trkpt lat="42.74642" lon="1.44848">
        <ele>1438.27</ele>
        <time>2018-06-23T09:35:44Z</time>
      </trkpt>
      <trkpt lat="42.74662" lon="1.4484">
        <ele>1440.67</ele>
        <time>2018-06-23T09:36:10Z</time>
      </trkpt>
      <trkpt lat="42.74675" lon="1.44831">
        <ele>1443.08</ele>
        <time>2018-06-23T09:36:37Z</time>
      </trkpt>
      <trkpt lat="42.74691" lon="1.44824">
        <ele>1446.44</ele>
        <time>2018-06-23T09:37:12Z</time>
      </trkpt>
      <trkpt lat="42.74703" lon="1.44811">
        <ele>1449.32</ele>
        <time>2018-06-23T09:37:41Z</time>
      </trkpt>
      <trkpt lat="42.74714" lon="1.44778">
        <ele>1454.13</ele>
        <time>2018-06-23T09:38:35Z</time>
      </trkpt>
      <trkpt lat="42.7473" lon="1.44765">
        <ele>1456.53</ele>
        <time>2018-06-23T09:39:32Z</time>
      </trkpt>
      <trkpt lat="42.74735" lon="1.44754">
        <ele>1457.5</ele>
        <time>2018-06-23T09:39:52Z</time>
      </trkpt>
      <trkpt lat="42.74754" lon="1.44745">
        <ele>1459.42</ele>
        <time>2018-06-23T09:40:23Z</time>
      </trkpt>
      <trkpt lat="42.74766" lon="1.44733">
        <ele>1461.82</ele>
        <time>2018-06-23T09:40:46Z</time>
      </trkpt>
      <trkpt lat="42.74776" lon="1.44721">
        <ele>1463.26</ele>
        <time>2018-06-23T09:41:12Z</time>
      </trkpt>
      <trkpt lat="42.74784" lon="1.44712">
        <ele>1466.63</ele>
        <time>2018-06-23T09:41:35Z</time>
      </trkpt>
      <trkpt lat="42.74789" lon="1.447">
        <ele>1471.44</ele>
        <time>2018-06-23T09:43:04Z</time>
      </trkpt>
      <trkpt lat="42.748" lon="1.44693">
        <ele>1475.28</ele>
        <time>2018-06-23T09:43:31Z</time>
      </trkpt>
      <trkpt lat="42.74813" lon="1.44685">
        <ele>1480.09</ele>
        <time>2018-06-23T09:44:10Z</time>
      </trkpt>
      <trkpt lat="42.74818" lon="1.44674">
        <ele>1484.41</ele>
        <time>2018-06-23T09:44:44Z</time>
      </trkpt>
      <trkpt lat="42.74825" lon="1.4466">
        <ele>1488.74</ele>
        <time>2018-06-23T09:45:36Z</time>
      </trkpt>
      <trkpt lat="42.74835" lon="1.44651">
        <ele>1491.62</ele>
        <time>2018-06-23T09:46:02Z</time>
      </trkpt>
      <trkpt lat="42.74843" lon="1.4464">
        <ele>1496.43</ele>
        <time>2018-06-23T09:46:41Z</time>
      </trkpt>
      <trkpt lat="42.74851" lon="1.44638">
        <ele>1500.27</ele>
        <time>2018-06-23T09:47:25Z</time>
      </trkpt>
      <trkpt lat="42.74862" lon="1.44631">
        <ele>1503.16</ele>
        <time>2018-06-23T09:48:02Z</time>
      </trkpt>
      <trkpt lat="42.74867" lon="1.4462">
        <ele>1507</ele>
        <time>2018-06-23T09:48:33Z</time>
      </trkpt>
      <trkpt lat="42.74872" lon="1.44609">
        <ele>1511.33</ele>
        <time>2018-06-23T09:49:06Z</time>
      </trkpt>
      <trkpt lat="42.74882" lon="1.44601">
        <ele>1513.73</ele>
        <time>2018-06-23T09:49:32Z</time>
      </trkpt>
      <trkpt lat="42.74896" lon="1.44593">
        <ele>1515.66</ele>
        <time>2018-06-23T09:49:59Z</time>
      </trkpt>
      <trkpt lat="42.74888" lon="1.44585">
        <ele>1517.1</ele>
        <time>2018-06-23T09:51:13Z</time>
      </trkpt>
      <trkpt lat="42.74889" lon="1.44589">
        <ele>1523.35</ele>
        <time>2018-06-23T10:06:21Z</time>
      </trkpt>
      <trkpt lat="42.74895" lon="1.44589">
        <ele>1522.39</ele>
        <time>2018-06-23T10:08:52Z</time>
      </trkpt>
      <trkpt lat="42.749" lon="1.44583">
        <ele>1520.94</ele>
        <time>2018-06-23T10:09:10Z</time>
      </trkpt>
      <trkpt lat="42.7491" lon="1.44573">
        <ele>1520.94</ele>
        <time>2018-06-23T10:09:23Z</time>
      </trkpt>
      <trkpt lat="42.74923" lon="1.44565">
        <ele>1520.94</ele>
        <time>2018-06-23T10:09:37Z</time>
      </trkpt>
      <trkpt lat="42.74936" lon="1.44557">
        <ele>1522.39</ele>
        <time>2018-06-23T10:09:53Z</time>
      </trkpt>
      <trkpt lat="42.74947" lon="1.4455">
        <ele>1524.31</ele>
        <time>2018-06-23T10:10:09Z</time>
      </trkpt>
      <trkpt lat="42.74954" lon="1.44537">
        <ele>1523.35</ele>
        <time>2018-06-23T10:10:23Z</time>
      </trkpt>
      <trkpt lat="42.74961" lon="1.44527">
        <ele>1523.35</ele>
        <time>2018-06-23T10:10:37Z</time>
      </trkpt>
      <trkpt lat="42.74973" lon="1.44514">
        <ele>1521.9</ele>
        <time>2018-06-23T10:10:54Z</time>
      </trkpt>
      <trkpt lat="42.74986" lon="1.44505">
        <ele>1520.94</ele>
        <time>2018-06-23T10:11:10Z</time>
      </trkpt>
      <trkpt lat="42.74996" lon="1.44492">
        <ele>1520.46</ele>
        <time>2018-06-23T10:11:23Z</time>
      </trkpt>
      <trkpt lat="42.75001" lon="1.44494">
        <ele>1517.58</ele>
        <time>2018-06-23T10:11:41Z</time>
      </trkpt>
      <trkpt lat="42.75012" lon="1.44491">
        <ele>1514.69</ele>
        <time>2018-06-23T10:11:56Z</time>
      </trkpt>
      <trkpt lat="42.75021" lon="1.4448">
        <ele>1514.21</ele>
        <time>2018-06-23T10:12:13Z</time>
      </trkpt>
      <trkpt lat="42.75033" lon="1.44483">
        <ele>1513.25</ele>
        <time>2018-06-23T10:12:27Z</time>
      </trkpt>
      <trkpt lat="42.75043" lon="1.44485">
        <ele>1511.33</ele>
        <time>2018-06-23T10:12:39Z</time>
      </trkpt>
      <trkpt lat="42.75052" lon="1.44476">
        <ele>1509.89</ele>
        <time>2018-06-23T10:12:59Z</time>
      </trkpt>
      <trkpt lat="42.75063" lon="1.44466">
        <ele>1508.45</ele>
        <time>2018-06-23T10:13:13Z</time>
      </trkpt>
      <trkpt lat="42.75074" lon="1.44469">
        <ele>1507.48</ele>
        <time>2018-06-23T10:13:27Z</time>
      </trkpt>
      <trkpt lat="42.75078" lon="1.44481">
        <ele>1503.64</ele>
        <time>2018-06-23T10:13:52Z</time>
      </trkpt>
      <trkpt lat="42.75091" lon="1.44486">
        <ele>1504.12</ele>
        <time>2018-06-23T10:14:09Z</time>
      </trkpt>
      <trkpt lat="42.75108" lon="1.44485">
        <ele>1504.6</ele>
        <time>2018-06-23T10:14:24Z</time>
      </trkpt>
      <trkpt lat="42.75119" lon="1.44481">
        <ele>1507</ele>
        <time>2018-06-23T10:14:41Z</time>
      </trkpt>
      <trkpt lat="42.75131" lon="1.44474">
        <ele>1508.93</ele>
        <time>2018-06-23T10:15:00Z</time>
      </trkpt>
      <trkpt lat="42.75138" lon="1.44464">
        <ele>1513.73</ele>
        <time>2018-06-23T10:15:22Z</time>
      </trkpt>
      <trkpt lat="42.75147" lon="1.44458">
        <ele>1514.21</ele>
        <time>2018-06-23T10:15:42Z</time>
      </trkpt>
      <trkpt lat="42.75156" lon="1.4445">
        <ele>1514.69</ele>
        <time>2018-06-23T10:15:57Z</time>
      </trkpt>
      <trkpt lat="42.75164" lon="1.44441">
        <ele>1515.66</ele>
        <time>2018-06-23T10:16:10Z</time>
      </trkpt>
      <trkpt lat="42.75178" lon="1.44433">
        <ele>1517.58</ele>
        <time>2018-06-23T10:16:27Z</time>
      </trkpt>
      <trkpt lat="42.75187" lon="1.44424">
        <ele>1518.06</ele>
        <time>2018-06-23T10:16:38Z</time>
      </trkpt>
      <trkpt lat="42.75196" lon="1.4442">
        <ele>1519.02</ele>
        <time>2018-06-23T10:16:56Z</time>
      </trkpt>
      <trkpt lat="42.75206" lon="1.44419">
        <ele>1519.98</ele>
        <time>2018-06-23T10:17:16Z</time>
      </trkpt>
      <trkpt lat="42.75216" lon="1.4442">
        <ele>1521.9</ele>
        <time>2018-06-23T10:17:30Z</time>
      </trkpt>
      <trkpt lat="42.75231" lon="1.44416">
        <ele>1524.31</ele>
        <time>2018-06-23T10:17:57Z</time>
      </trkpt>
      <trkpt lat="42.75236" lon="1.4441">
        <ele>1524.79</ele>
        <time>2018-06-23T10:18:12Z</time>
      </trkpt>
      <trkpt lat="42.75242" lon="1.444">
        <ele>1527.67</ele>
        <time>2018-06-23T10:18:30Z</time>
      </trkpt>
      <trkpt lat="42.75252" lon="1.44404">
        <ele>1529.11</ele>
        <time>2018-06-23T10:18:42Z</time>
      </trkpt>
      <trkpt lat="42.75261" lon="1.44404">
        <ele>1530.56</ele>
        <time>2018-06-23T10:18:57Z</time>
      </trkpt>
      <trkpt lat="42.75269" lon="1.444">
        <ele>1532.48</ele>
        <time>2018-06-23T10:19:08Z</time>
      </trkpt>
      <trkpt lat="42.75273" lon="1.44397">
        <ele>1534.88</ele>
        <time>2018-06-23T10:19:26Z</time>
      </trkpt>
      <trkpt lat="42.75279" lon="1.44396">
        <ele>1537.77</ele>
        <time>2018-06-23T10:19:47Z</time>
      </trkpt>
      <trkpt lat="42.75281" lon="1.44395">
        <ele>1540.17</ele>
        <time>2018-06-23T10:20:06Z</time>
      </trkpt>
      <trkpt lat="42.75289" lon="1.4439">
        <ele>1543.05</ele>
        <time>2018-06-23T10:20:26Z</time>
      </trkpt>
      <trkpt lat="42.75293" lon="1.44395">
        <ele>1544.01</ele>
        <time>2018-06-23T10:20:41Z</time>
      </trkpt>
      <trkpt lat="42.75294" lon="1.44402">
        <ele>1544.98</ele>
        <time>2018-06-23T10:20:56Z</time>
      </trkpt>
      <trkpt lat="42.75298" lon="1.44395">
        <ele>1547.86</ele>
        <time>2018-06-23T10:21:18Z</time>
      </trkpt>
      <trkpt lat="42.75302" lon="1.44385">
        <ele>1548.34</ele>
        <time>2018-06-23T10:21:33Z</time>
      </trkpt>
      <trkpt lat="42.75297" lon="1.44387">
        <ele>1551.22</ele>
        <time>2018-06-23T10:21:54Z</time>
      </trkpt>
      <trkpt lat="42.75301" lon="1.44393">
        <ele>1555.07</ele>
        <time>2018-06-23T10:22:20Z</time>
      </trkpt>
      <trkpt lat="42.75306" lon="1.44402">
        <ele>1557.47</ele>
        <time>2018-06-23T10:22:39Z</time>
      </trkpt>
      <trkpt lat="42.75311" lon="1.44409">
        <ele>1558.92</ele>
        <time>2018-06-23T10:22:55Z</time>
      </trkpt>
      <trkpt lat="42.75317" lon="1.44417">
        <ele>1560.84</ele>
        <time>2018-06-23T10:23:13Z</time>
      </trkpt>
      <trkpt lat="42.75325" lon="1.44426">
        <ele>1561.8</ele>
        <time>2018-06-23T10:23:29Z</time>
      </trkpt>
      <trkpt lat="42.7533" lon="1.44434">
        <ele>1563.72</ele>
        <time>2018-06-23T10:23:51Z</time>
      </trkpt>
      <trkpt lat="42.75334" lon="1.44443">
        <ele>1567.09</ele>
        <time>2018-06-23T10:24:11Z</time>
      </trkpt>
      <trkpt lat="42.75332" lon="1.44454">
        <ele>1568.53</ele>
        <time>2018-06-23T10:24:28Z</time>
      </trkpt>
      <trkpt lat="42.75336" lon="1.44462">
        <ele>1569.97</ele>
        <time>2018-06-23T10:24:44Z</time>
      </trkpt>
      <trkpt lat="42.75337" lon="1.44473">
        <ele>1571.41</ele>
        <time>2018-06-23T10:24:58Z</time>
      </trkpt>
      <trkpt lat="42.75344" lon="1.44486">
        <ele>1572.37</ele>
        <time>2018-06-23T10:25:16Z</time>
      </trkpt>
      <trkpt lat="42.75349" lon="1.44501">
        <ele>1572.37</ele>
        <time>2018-06-23T10:25:32Z</time>
      </trkpt>
      <trkpt lat="42.75357" lon="1.44514">
        <ele>1574.78</ele>
        <time>2018-06-23T10:25:47Z</time>
      </trkpt>
      <trkpt lat="42.75359" lon="1.44526">
        <ele>1576.22</ele>
        <time>2018-06-23T10:26:02Z</time>
      </trkpt>
      <trkpt lat="42.75363" lon="1.44536">
        <ele>1577.66</ele>
        <time>2018-06-23T10:26:16Z</time>
      </trkpt>
      <trkpt lat="42.75371" lon="1.44537">
        <ele>1578.62</ele>
        <time>2018-06-23T10:26:25Z</time>
      </trkpt>
      <trkpt lat="42.75377" lon="1.44545">
        <ele>1580.54</ele>
        <time>2018-06-23T10:26:44Z</time>
      </trkpt>
      <trkpt lat="42.75378" lon="1.44534">
        <ele>1580.06</ele>
        <time>2018-06-23T10:27:02Z</time>
      </trkpt>
      <trkpt lat="42.75378" lon="1.44521">
        <ele>1581.99</ele>
        <time>2018-06-23T10:27:16Z</time>
      </trkpt>
      <trkpt lat="42.75377" lon="1.44506">
        <ele>1581.99</ele>
        <time>2018-06-23T10:27:30Z</time>
      </trkpt>
      <trkpt lat="42.75383" lon="1.44493">
        <ele>1583.91</ele>
        <time>2018-06-23T10:27:45Z</time>
      </trkpt>
      <trkpt lat="42.75389" lon="1.44484">
        <ele>1582.95</ele>
        <time>2018-06-23T10:27:56Z</time>
      </trkpt>
      <trkpt lat="42.75393" lon="1.44472">
        <ele>1583.91</ele>
        <time>2018-06-23T10:28:07Z</time>
      </trkpt>
      <trkpt lat="42.75402" lon="1.44467">
        <ele>1582.95</ele>
        <time>2018-06-23T10:28:24Z</time>
      </trkpt>
      <trkpt lat="42.75414" lon="1.44467">
        <ele>1582.47</ele>
        <time>2018-06-23T10:28:37Z</time>
      </trkpt>
      <trkpt lat="42.75424" lon="1.44463">
        <ele>1582.95</ele>
        <time>2018-06-23T10:28:48Z</time>
      </trkpt>
      <trkpt lat="42.75435" lon="1.44462">
        <ele>1583.91</ele>
        <time>2018-06-23T10:29:03Z</time>
      </trkpt>
      <trkpt lat="42.75443" lon="1.44451">
        <ele>1584.39</ele>
        <time>2018-06-23T10:29:14Z</time>
      </trkpt>
      <trkpt lat="42.75449" lon="1.44441">
        <ele>1584.39</ele>
        <time>2018-06-23T10:29:25Z</time>
      </trkpt>
      <trkpt lat="42.75451" lon="1.44427">
        <ele>1584.87</ele>
        <time>2018-06-23T10:29:37Z</time>
      </trkpt>
      <trkpt lat="42.75458" lon="1.44413">
        <ele>1584.87</ele>
        <time>2018-06-23T10:29:58Z</time>
      </trkpt>
      <trkpt lat="42.75464" lon="1.44402">
        <ele>1586.31</ele>
        <time>2018-06-23T10:30:11Z</time>
      </trkpt>
      <trkpt lat="42.75469" lon="1.4439">
        <ele>1585.83</ele>
        <time>2018-06-23T10:30:23Z</time>
      </trkpt>
      <trkpt lat="42.7547" lon="1.44375">
        <ele>1587.27</ele>
        <time>2018-06-23T10:30:35Z</time>
      </trkpt>
      <trkpt lat="42.75475" lon="1.4436">
        <ele>1588.24</ele>
        <time>2018-06-23T10:30:49Z</time>
      </trkpt>
      <trkpt lat="42.75479" lon="1.44347">
        <ele>1589.68</ele>
        <time>2018-06-23T10:31:02Z</time>
      </trkpt>
      <trkpt lat="42.75482" lon="1.44332">
        <ele>1590.16</ele>
        <time>2018-06-23T10:31:15Z</time>
      </trkpt>
      <trkpt lat="42.75486" lon="1.44318">
        <ele>1590.64</ele>
        <time>2018-06-23T10:31:26Z</time>
      </trkpt>
      <trkpt lat="42.75493" lon="1.44308">
        <ele>1591.12</ele>
        <time>2018-06-23T10:31:37Z</time>
      </trkpt>
      <trkpt lat="42.755" lon="1.44298">
        <ele>1592.56</ele>
        <time>2018-06-23T10:31:47Z</time>
      </trkpt>
      <trkpt lat="42.75509" lon="1.44293">
        <ele>1593.52</ele>
        <time>2018-06-23T10:31:59Z</time>
      </trkpt>
      <trkpt lat="42.75518" lon="1.44288">
        <ele>1594.96</ele>
        <time>2018-06-23T10:32:11Z</time>
      </trkpt>
      <trkpt lat="42.75526" lon="1.4428">
        <ele>1595.93</ele>
        <time>2018-06-23T10:32:22Z</time>
      </trkpt>
      <trkpt lat="42.75528" lon="1.44268">
        <ele>1595.93</ele>
        <time>2018-06-23T10:32:32Z</time>
      </trkpt>
      <trkpt lat="42.75537" lon="1.4426">
        <ele>1595.45</ele>
        <time>2018-06-23T10:32:43Z</time>
      </trkpt>
      <trkpt lat="42.75543" lon="1.44248">
        <ele>1596.41</ele>
        <time>2018-06-23T10:32:55Z</time>
      </trkpt>
      <trkpt lat="42.75549" lon="1.44237">
        <ele>1596.89</ele>
        <time>2018-06-23T10:33:07Z</time>
      </trkpt>
      <trkpt lat="42.75556" lon="1.44226">
        <ele>1599.77</ele>
        <time>2018-06-23T10:33:20Z</time>
      </trkpt>
      <trkpt lat="42.75563" lon="1.44215">
        <ele>1600.73</ele>
        <time>2018-06-23T10:33:37Z</time>
      </trkpt>
      <trkpt lat="42.75562" lon="1.44203">
        <ele>1600.73</ele>
        <time>2018-06-23T10:33:49Z</time>
      </trkpt>
      <trkpt lat="42.75562" lon="1.44191">
        <ele>1598.33</ele>
        <time>2018-06-23T10:34:00Z</time>
      </trkpt>
      <trkpt lat="42.75565" lon="1.44177">
        <ele>1598.81</ele>
        <time>2018-06-23T10:34:13Z</time>
      </trkpt>
      <trkpt lat="42.75565" lon="1.44163">
        <ele>1598.33</ele>
        <time>2018-06-23T10:34:27Z</time>
      </trkpt>
      <trkpt lat="42.75565" lon="1.44147">
        <ele>1596.41</ele>
        <time>2018-06-23T10:34:44Z</time>
      </trkpt>
      <trkpt lat="42.75572" lon="1.44132">
        <ele>1596.41</ele>
        <time>2018-06-23T10:34:58Z</time>
      </trkpt>
      <trkpt lat="42.75576" lon="1.44117">
        <ele>1596.41</ele>
        <time>2018-06-23T10:35:09Z</time>
      </trkpt>
      <trkpt lat="42.75578" lon="1.44103">
        <ele>1597.85</ele>
        <time>2018-06-23T10:35:22Z</time>
      </trkpt>
      <trkpt lat="42.75588" lon="1.44096">
        <ele>1598.33</ele>
        <time>2018-06-23T10:35:44Z</time>
      </trkpt>
      <trkpt lat="42.75591" lon="1.44084">
        <ele>1598.33</ele>
        <time>2018-06-23T10:35:56Z</time>
      </trkpt>
      <trkpt lat="42.75598" lon="1.44073">
        <ele>1598.81</ele>
        <time>2018-06-23T10:36:06Z</time>
      </trkpt>
      <trkpt lat="42.75608" lon="1.44062">
        <ele>1599.29</ele>
        <time>2018-06-23T10:36:24Z</time>
      </trkpt>
      <trkpt lat="42.75617" lon="1.44052">
        <ele>1599.29</ele>
        <time>2018-06-23T10:36:36Z</time>
      </trkpt>
      <trkpt lat="42.75619" lon="1.44038">
        <ele>1597.85</ele>
        <time>2018-06-23T10:36:48Z</time>
      </trkpt>
      <trkpt lat="42.75625" lon="1.44027">
        <ele>1597.85</ele>
        <time>2018-06-23T10:36:57Z</time>
      </trkpt>
      <trkpt lat="42.75631" lon="1.44017">
        <ele>1597.85</ele>
        <time>2018-06-23T10:37:08Z</time>
      </trkpt>
      <trkpt lat="42.7564" lon="1.44009">
        <ele>1598.33</ele>
        <time>2018-06-23T10:37:19Z</time>
      </trkpt>
      <trkpt lat="42.75646" lon="1.43996">
        <ele>1598.33</ele>
        <time>2018-06-23T10:37:32Z</time>
      </trkpt>
      <trkpt lat="42.75652" lon="1.43984">
        <ele>1598.81</ele>
        <time>2018-06-23T10:37:45Z</time>
      </trkpt>
      <trkpt lat="42.75661" lon="1.43977">
        <ele>1598.33</ele>
        <time>2018-06-23T10:37:56Z</time>
      </trkpt>
      <trkpt lat="42.75669" lon="1.43969">
        <ele>1598.33</ele>
        <time>2018-06-23T10:38:05Z</time>
      </trkpt>
      <trkpt lat="42.75675" lon="1.43958">
        <ele>1598.33</ele>
        <time>2018-06-23T10:38:16Z</time>
      </trkpt>
      <trkpt lat="42.75682" lon="1.43948">
        <ele>1598.81</ele>
        <time>2018-06-23T10:38:27Z</time>
      </trkpt>
      <trkpt lat="42.75688" lon="1.43935">
        <ele>1598.33</ele>
        <time>2018-06-23T10:38:41Z</time>
      </trkpt>
      <trkpt lat="42.75695" lon="1.4393">
        <ele>1599.29</ele>
        <time>2018-06-23T10:38:58Z</time>
      </trkpt>
      <trkpt lat="42.75695" lon="1.43917">
        <ele>1599.29</ele>
        <time>2018-06-23T10:39:10Z</time>
      </trkpt>
      <trkpt lat="42.75702" lon="1.43907">
        <ele>1598.81</ele>
        <time>2018-06-23T10:39:21Z</time>
      </trkpt>
      <trkpt lat="42.75707" lon="1.43896">
        <ele>1599.77</ele>
        <time>2018-06-23T10:39:33Z</time>
      </trkpt>
      <trkpt lat="42.7571" lon="1.43883">
        <ele>1600.25</ele>
        <time>2018-06-23T10:39:45Z</time>
      </trkpt>
      <trkpt lat="42.75713" lon="1.43867">
        <ele>1601.21</ele>
        <time>2018-06-23T10:39:59Z</time>
      </trkpt>
      <trkpt lat="42.7572" lon="1.43855">
        <ele>1601.69</ele>
        <time>2018-06-23T10:40:13Z</time>
      </trkpt>
      <trkpt lat="42.75728" lon="1.43842">
        <ele>1602.17</ele>
        <time>2018-06-23T10:40:28Z</time>
      </trkpt>
      <trkpt lat="42.75736" lon="1.43837">
        <ele>1603.14</ele>
        <time>2018-06-23T10:40:38Z</time>
      </trkpt>
      <trkpt lat="42.75745" lon="1.43831">
        <ele>1604.1</ele>
        <time>2018-06-23T10:40:52Z</time>
      </trkpt>
      <trkpt lat="42.75752" lon="1.4382">
        <ele>1603.14</ele>
        <time>2018-06-23T10:41:06Z</time>
      </trkpt>
      <trkpt lat="42.75757" lon="1.43808">
        <ele>1605.06</ele>
        <time>2018-06-23T10:41:19Z</time>
      </trkpt>
      <trkpt lat="42.75767" lon="1.43799">
        <ele>1605.06</ele>
        <time>2018-06-23T10:41:36Z</time>
      </trkpt>
      <trkpt lat="42.75773" lon="1.43786">
        <ele>1604.58</ele>
        <time>2018-06-23T10:41:46Z</time>
      </trkpt>
      <trkpt lat="42.75781" lon="1.43778">
        <ele>1604.58</ele>
        <time>2018-06-23T10:41:57Z</time>
      </trkpt>
      <trkpt lat="42.75791" lon="1.43771">
        <ele>1605.06</ele>
        <time>2018-06-23T10:42:08Z</time>
      </trkpt>
      <trkpt lat="42.75799" lon="1.43765">
        <ele>1605.54</ele>
        <time>2018-06-23T10:42:19Z</time>
      </trkpt>
      <trkpt lat="42.75804" lon="1.43755">
        <ele>1605.54</ele>
        <time>2018-06-23T10:42:32Z</time>
      </trkpt>
      <trkpt lat="42.75808" lon="1.43743">
        <ele>1606.98</ele>
        <time>2018-06-23T10:42:46Z</time>
      </trkpt>
      <trkpt lat="42.75816" lon="1.43733">
        <ele>1608.9</ele>
        <time>2018-06-23T10:42:59Z</time>
      </trkpt>
      <trkpt lat="42.7582" lon="1.43721">
        <ele>1607.94</ele>
        <time>2018-06-23T10:43:10Z</time>
      </trkpt>
      <trkpt lat="42.75828" lon="1.43711">
        <ele>1607.46</ele>
        <time>2018-06-23T10:43:24Z</time>
      </trkpt>
      <trkpt lat="42.75834" lon="1.43701">
        <ele>1606.5</ele>
        <time>2018-06-23T10:43:39Z</time>
      </trkpt>
      <trkpt lat="42.75844" lon="1.43694">
        <ele>1606.02</ele>
        <time>2018-06-23T10:43:54Z</time>
      </trkpt>
      <trkpt lat="42.75854" lon="1.43689">
        <ele>1606.5</ele>
        <time>2018-06-23T10:44:04Z</time>
      </trkpt>
      <trkpt lat="42.75861" lon="1.43679">
        <ele>1606.98</ele>
        <time>2018-06-23T10:44:14Z</time>
      </trkpt>
      <trkpt lat="42.75868" lon="1.43669">
        <ele>1606.98</ele>
        <time>2018-06-23T10:44:24Z</time>
      </trkpt>
      <trkpt lat="42.75874" lon="1.43658">
        <ele>1606.98</ele>
        <time>2018-06-23T10:44:34Z</time>
      </trkpt>
      <trkpt lat="42.75881" lon="1.43648">
        <ele>1607.94</ele>
        <time>2018-06-23T10:44:45Z</time>
      </trkpt>
      <trkpt lat="42.75888" lon="1.43638">
        <ele>1607.46</ele>
        <time>2018-06-23T10:44:54Z</time>
      </trkpt>
      <trkpt lat="42.75891" lon="1.43624">
        <ele>1607.94</ele>
        <time>2018-06-23T10:45:06Z</time>
      </trkpt>
      <trkpt lat="42.75893" lon="1.43611">
        <ele>1607.46</ele>
        <time>2018-06-23T10:45:18Z</time>
      </trkpt>
      <trkpt lat="42.75898" lon="1.43599">
        <ele>1606.98</ele>
        <time>2018-06-23T10:45:32Z</time>
      </trkpt>
      <trkpt lat="42.75901" lon="1.43588">
        <ele>1607.46</ele>
        <time>2018-06-23T10:45:42Z</time>
      </trkpt>
      <trkpt lat="42.75906" lon="1.43578">
        <ele>1608.42</ele>
        <time>2018-06-23T10:45:53Z</time>
      </trkpt>
      <trkpt lat="42.75911" lon="1.43567">
        <ele>1609.38</ele>
        <time>2018-06-23T10:46:05Z</time>
      </trkpt>
      <trkpt lat="42.75914" lon="1.43553">
        <ele>1609.38</ele>
        <time>2018-06-23T10:46:17Z</time>
      </trkpt>
      <trkpt lat="42.75918" lon="1.43541">
        <ele>1608.42</ele>
        <time>2018-06-23T10:46:29Z</time>
      </trkpt>
      <trkpt lat="42.75928" lon="1.43532">
        <ele>1608.42</ele>
        <time>2018-06-23T10:46:38Z</time>
      </trkpt>
      <trkpt lat="42.75932" lon="1.4352">
        <ele>1608.9</ele>
        <time>2018-06-23T10:46:48Z</time>
      </trkpt>
      <trkpt lat="42.75936" lon="1.43508">
        <ele>1609.38</ele>
        <time>2018-06-23T10:46:58Z</time>
      </trkpt>
      <trkpt lat="42.75937" lon="1.43492">
        <ele>1610.35</ele>
        <time>2018-06-23T10:47:14Z</time>
      </trkpt>
      <trkpt lat="42.75939" lon="1.43478">
        <ele>1612.27</ele>
        <time>2018-06-23T10:47:27Z</time>
      </trkpt>
      <trkpt lat="42.75938" lon="1.43464">
        <ele>1612.27</ele>
        <time>2018-06-23T10:47:37Z</time>
      </trkpt>
      <trkpt lat="42.75941" lon="1.4345">
        <ele>1613.23</ele>
        <time>2018-06-23T10:47:51Z</time>
      </trkpt>
      <trkpt lat="42.75944" lon="1.43438">
        <ele>1614.67</ele>
        <time>2018-06-23T10:48:03Z</time>
      </trkpt>
      <trkpt lat="42.75946" lon="1.43423">
        <ele>1615.63</ele>
        <time>2018-06-23T10:48:18Z</time>
      </trkpt>
      <trkpt lat="42.75947" lon="1.43409">
        <ele>1616.59</ele>
        <time>2018-06-23T10:48:35Z</time>
      </trkpt>
      <trkpt lat="42.75953" lon="1.43397">
        <ele>1619</ele>
        <time>2018-06-23T10:48:51Z</time>
      </trkpt>
      <trkpt lat="42.75953" lon="1.43384">
        <ele>1619.48</ele>
        <time>2018-06-23T10:49:09Z</time>
      </trkpt>
      <trkpt lat="42.75958" lon="1.4337">
        <ele>1620.44</ele>
        <time>2018-06-23T10:49:22Z</time>
      </trkpt>
      <trkpt lat="42.75962" lon="1.43358">
        <ele>1621.4</ele>
        <time>2018-06-23T10:49:33Z</time>
      </trkpt>
      <trkpt lat="42.75966" lon="1.43347">
        <ele>1622.36</ele>
        <time>2018-06-23T10:49:44Z</time>
      </trkpt>
      <trkpt lat="42.75974" lon="1.43339">
        <ele>1622.36</ele>
        <time>2018-06-23T10:49:53Z</time>
      </trkpt>
      <trkpt lat="42.75981" lon="1.43329">
        <ele>1621.88</ele>
        <time>2018-06-23T10:50:02Z</time>
      </trkpt>
      <trkpt lat="42.7598" lon="1.43316">
        <ele>1622.84</ele>
        <time>2018-06-23T10:50:15Z</time>
      </trkpt>
      <trkpt lat="42.75979" lon="1.433">
        <ele>1622.84</ele>
        <time>2018-06-23T10:50:27Z</time>
      </trkpt>
      <trkpt lat="42.75982" lon="1.43287">
        <ele>1624.77</ele>
        <time>2018-06-23T10:50:41Z</time>
      </trkpt>
      <trkpt lat="42.75985" lon="1.43277">
        <ele>1625.25</ele>
        <time>2018-06-23T10:50:54Z</time>
      </trkpt>
      <trkpt lat="42.75992" lon="1.43266">
        <ele>1625.25</ele>
        <time>2018-06-23T10:51:07Z</time>
      </trkpt>
      <trkpt lat="42.76001" lon="1.4326">
        <ele>1625.25</ele>
        <time>2018-06-23T10:51:17Z</time>
      </trkpt>
      <trkpt lat="42.76008" lon="1.4325">
        <ele>1626.69</ele>
        <time>2018-06-23T10:51:32Z</time>
      </trkpt>
      <trkpt lat="42.76019" lon="1.43244">
        <ele>1626.21</ele>
        <time>2018-06-23T10:51:42Z</time>
      </trkpt>
      <trkpt lat="42.76025" lon="1.43233">
        <ele>1625.73</ele>
        <time>2018-06-23T10:51:54Z</time>
      </trkpt>
      <trkpt lat="42.76034" lon="1.4323">
        <ele>1626.21</ele>
        <time>2018-06-23T10:52:03Z</time>
      </trkpt>
      <trkpt lat="42.76043" lon="1.43222">
        <ele>1626.69</ele>
        <time>2018-06-23T10:52:15Z</time>
      </trkpt>
      <trkpt lat="42.76052" lon="1.43217">
        <ele>1627.17</ele>
        <time>2018-06-23T10:52:27Z</time>
      </trkpt>
      <trkpt lat="42.7606" lon="1.43208">
        <ele>1626.21</ele>
        <time>2018-06-23T10:52:40Z</time>
      </trkpt>
      <trkpt lat="42.7607" lon="1.43201">
        <ele>1626.21</ele>
        <time>2018-06-23T10:52:52Z</time>
      </trkpt>
      <trkpt lat="42.76078" lon="1.43193">
        <ele>1625.73</ele>
        <time>2018-06-23T10:53:05Z</time>
      </trkpt>
      <trkpt lat="42.76087" lon="1.43188">
        <ele>1626.21</ele>
        <time>2018-06-23T10:53:17Z</time>
      </trkpt>
      <trkpt lat="42.76095" lon="1.43178">
        <ele>1626.21</ele>
        <time>2018-06-23T10:53:29Z</time>
      </trkpt>
      <trkpt lat="42.76097" lon="1.43164">
        <ele>1625.73</ele>
        <time>2018-06-23T10:53:42Z</time>
      </trkpt>
      <trkpt lat="42.76098" lon="1.43149">
        <ele>1628.13</ele>
        <time>2018-06-23T10:53:55Z</time>
      </trkpt>
      <trkpt lat="42.761" lon="1.43137">
        <ele>1628.13</ele>
        <time>2018-06-23T10:54:05Z</time>
      </trkpt>
      <trkpt lat="42.76104" lon="1.43124">
        <ele>1628.13</ele>
        <time>2018-06-23T10:54:16Z</time>
      </trkpt>
      <trkpt lat="42.7611" lon="1.43115">
        <ele>1628.61</ele>
        <time>2018-06-23T10:54:26Z</time>
      </trkpt>
      <trkpt lat="42.76117" lon="1.43112">
        <ele>1629.57</ele>
        <time>2018-06-23T10:54:35Z</time>
      </trkpt>
      <trkpt lat="42.76125" lon="1.4311">
        <ele>1630.05</ele>
        <time>2018-06-23T10:54:48Z</time>
      </trkpt>
      <trkpt lat="42.76133" lon="1.43104">
        <ele>1627.65</ele>
        <time>2018-06-23T10:54:57Z</time>
      </trkpt>
      <trkpt lat="42.76138" lon="1.43093">
        <ele>1627.17</ele>
        <time>2018-06-23T10:55:07Z</time>
      </trkpt>
      <trkpt lat="42.76146" lon="1.43082">
        <ele>1627.17</ele>
        <time>2018-06-23T10:55:20Z</time>
      </trkpt>
      <trkpt lat="42.76149" lon="1.43071">
        <ele>1627.17</ele>
        <time>2018-06-23T10:55:32Z</time>
      </trkpt>
      <trkpt lat="42.76147" lon="1.43057">
        <ele>1627.65</ele>
        <time>2018-06-23T10:55:44Z</time>
      </trkpt>
      <trkpt lat="42.7615" lon="1.43045">
        <ele>1627.65</ele>
        <time>2018-06-23T10:55:56Z</time>
      </trkpt>
      <trkpt lat="42.76159" lon="1.43036">
        <ele>1628.13</ele>
        <time>2018-06-23T10:56:07Z</time>
      </trkpt>
      <trkpt lat="42.76165" lon="1.43024">
        <ele>1629.09</ele>
        <time>2018-06-23T10:56:19Z</time>
      </trkpt>
      <trkpt lat="42.76169" lon="1.4301">
        <ele>1629.09</ele>
        <time>2018-06-23T10:56:31Z</time>
      </trkpt>
      <trkpt lat="42.76178" lon="1.43001">
        <ele>1628.13</ele>
        <time>2018-06-23T10:56:42Z</time>
      </trkpt>
      <trkpt lat="42.76184" lon="1.4299">
        <ele>1627.65</ele>
        <time>2018-06-23T10:56:55Z</time>
      </trkpt>
      <trkpt lat="42.76187" lon="1.42976">
        <ele>1629.57</ele>
        <time>2018-06-23T10:57:07Z</time>
      </trkpt>
      <trkpt lat="42.76189" lon="1.42958">
        <ele>1630.05</ele>
        <time>2018-06-23T10:57:24Z</time>
      </trkpt>
      <trkpt lat="42.76187" lon="1.42944">
        <ele>1631.49</ele>
        <time>2018-06-23T10:57:37Z</time>
      </trkpt>
      <trkpt lat="42.7619" lon="1.42929">
        <ele>1632.46</ele>
        <time>2018-06-23T10:57:57Z</time>
      </trkpt>
      <trkpt lat="42.76199" lon="1.42918">
        <ele>1630.53</ele>
        <time>2018-06-23T10:58:09Z</time>
      </trkpt>
      <trkpt lat="42.76208" lon="1.42903">
        <ele>1630.05</ele>
        <time>2018-06-23T10:58:20Z</time>
      </trkpt>
      <trkpt lat="42.76214" lon="1.42891">
        <ele>1629.09</ele>
        <time>2018-06-23T10:58:31Z</time>
      </trkpt>
      <trkpt lat="42.76211" lon="1.42882">
        <ele>1629.57</ele>
        <time>2018-06-23T10:58:49Z</time>
      </trkpt>
      <trkpt lat="42.76213" lon="1.42866">
        <ele>1630.05</ele>
        <time>2018-06-23T10:59:02Z</time>
      </trkpt>
      <trkpt lat="42.76216" lon="1.42852">
        <ele>1631.01</ele>
        <time>2018-06-23T10:59:18Z</time>
      </trkpt>
      <trkpt lat="42.76213" lon="1.42836">
        <ele>1632.46</ele>
        <time>2018-06-23T10:59:32Z</time>
      </trkpt>
      <trkpt lat="42.76216" lon="1.42826">
        <ele>1634.38</ele>
        <time>2018-06-23T10:59:47Z</time>
      </trkpt>
      <trkpt lat="42.76225" lon="1.42819">
        <ele>1636.78</ele>
        <time>2018-06-23T11:00:03Z</time>
      </trkpt>
      <trkpt lat="42.76231" lon="1.42805">
        <ele>1639.19</ele>
        <time>2018-06-23T11:00:24Z</time>
      </trkpt>
      <trkpt lat="42.76237" lon="1.42794">
        <ele>1640.15</ele>
        <time>2018-06-23T11:00:41Z</time>
      </trkpt>
      <trkpt lat="42.76243" lon="1.42782">
        <ele>1641.11</ele>
        <time>2018-06-23T11:01:37Z</time>
      </trkpt>
      <trkpt lat="42.76254" lon="1.42774">
        <ele>1642.07</ele>
        <time>2018-06-23T11:01:56Z</time>
      </trkpt>
      <trkpt lat="42.76262" lon="1.42757">
        <ele>1640.15</ele>
        <time>2018-06-23T11:02:15Z</time>
      </trkpt>
      <trkpt lat="42.76269" lon="1.42744">
        <ele>1637.74</ele>
        <time>2018-06-23T11:02:30Z</time>
      </trkpt>
      <trkpt lat="42.76278" lon="1.4273">
        <ele>1640.15</ele>
        <time>2018-06-23T11:02:48Z</time>
      </trkpt>
      <trkpt lat="42.76287" lon="1.42722">
        <ele>1642.07</ele>
        <time>2018-06-23T11:03:04Z</time>
      </trkpt>
      <trkpt lat="42.76294" lon="1.4271">
        <ele>1643.99</ele>
        <time>2018-06-23T11:03:25Z</time>
      </trkpt>
      <trkpt lat="42.76299" lon="1.42699">
        <ele>1642.55</ele>
        <time>2018-06-23T11:03:43Z</time>
      </trkpt>
      <trkpt lat="42.76306" lon="1.42687">
        <ele>1644.95</ele>
        <time>2018-06-23T11:04:03Z</time>
      </trkpt>
      <trkpt lat="42.76314" lon="1.42675">
        <ele>1647.84</ele>
        <time>2018-06-23T11:04:24Z</time>
      </trkpt>
      <trkpt lat="42.7632" lon="1.42668">
        <ele>1651.2</ele>
        <time>2018-06-23T11:04:50Z</time>
      </trkpt>
      <trkpt lat="42.76327" lon="1.42668">
        <ele>1655.05</ele>
        <time>2018-06-23T11:05:22Z</time>
      </trkpt>
      <trkpt lat="42.76332" lon="1.42651">
        <ele>1658.41</ele>
        <time>2018-06-23T11:05:49Z</time>
      </trkpt>
      <trkpt lat="42.76343" lon="1.4265">
        <ele>1662.26</ele>
        <time>2018-06-23T11:06:14Z</time>
      </trkpt>
      <trkpt lat="42.76348" lon="1.42637">
        <ele>1665.14</ele>
        <time>2018-06-23T11:06:36Z</time>
      </trkpt>
      <trkpt lat="42.76345" lon="1.42625">
        <ele>1666.58</ele>
        <time>2018-06-23T11:06:52Z</time>
      </trkpt>
      <trkpt lat="42.76349" lon="1.42612">
        <ele>1666.1</ele>
        <time>2018-06-23T11:07:03Z</time>
      </trkpt>
      <trkpt lat="42.76355" lon="1.426">
        <ele>1665.62</ele>
        <time>2018-06-23T11:07:15Z</time>
      </trkpt>
      <trkpt lat="42.76364" lon="1.42589">
        <ele>1665.62</ele>
        <time>2018-06-23T11:07:27Z</time>
      </trkpt>
      <trkpt lat="42.76368" lon="1.42579">
        <ele>1665.14</ele>
        <time>2018-06-23T11:07:39Z</time>
      </trkpt>
      <trkpt lat="42.76368" lon="1.42563">
        <ele>1666.58</ele>
        <time>2018-06-23T11:07:52Z</time>
      </trkpt>
      <trkpt lat="42.76376" lon="1.42551">
        <ele>1667.54</ele>
        <time>2018-06-23T11:08:07Z</time>
      </trkpt>
      <trkpt lat="42.76381" lon="1.42538">
        <ele>1668.02</ele>
        <time>2018-06-23T11:08:19Z</time>
      </trkpt>
      <trkpt lat="42.76389" lon="1.42528">
        <ele>1668.99</ele>
        <time>2018-06-23T11:08:31Z</time>
      </trkpt>
      <trkpt lat="42.76396" lon="1.42522">
        <ele>1669.47</ele>
        <time>2018-06-23T11:08:43Z</time>
      </trkpt>
      <trkpt lat="42.76404" lon="1.42514">
        <ele>1667.06</ele>
        <time>2018-06-23T11:09:01Z</time>
      </trkpt>
      <trkpt lat="42.76408" lon="1.42503">
        <ele>1663.7</ele>
        <time>2018-06-23T11:09:18Z</time>
      </trkpt>
      <trkpt lat="42.7641" lon="1.42488">
        <ele>1663.7</ele>
        <time>2018-06-23T11:09:35Z</time>
      </trkpt>
      <trkpt lat="42.76413" lon="1.42473">
        <ele>1663.22</ele>
        <time>2018-06-23T11:09:46Z</time>
      </trkpt>
      <trkpt lat="42.76414" lon="1.42458">
        <ele>1662.74</ele>
        <time>2018-06-23T11:09:59Z</time>
      </trkpt>
      <trkpt lat="42.76414" lon="1.4244">
        <ele>1663.22</ele>
        <time>2018-06-23T11:10:13Z</time>
      </trkpt>
      <trkpt lat="42.76417" lon="1.42426">
        <ele>1664.18</ele>
        <time>2018-06-23T11:10:24Z</time>
      </trkpt>
      <trkpt lat="42.76417" lon="1.42412">
        <ele>1663.7</ele>
        <time>2018-06-23T11:10:39Z</time>
      </trkpt>
      <trkpt lat="42.76416" lon="1.42396">
        <ele>1664.18</ele>
        <time>2018-06-23T11:10:53Z</time>
      </trkpt>
      <trkpt lat="42.76418" lon="1.42383">
        <ele>1663.22</ele>
        <time>2018-06-23T11:11:02Z</time>
      </trkpt>
      <trkpt lat="42.76412" lon="1.42372">
        <ele>1664.66</ele>
        <time>2018-06-23T11:11:13Z</time>
      </trkpt>
      <trkpt lat="42.76412" lon="1.42357">
        <ele>1663.7</ele>
        <time>2018-06-23T11:11:27Z</time>
      </trkpt>
      <trkpt lat="42.76409" lon="1.42343">
        <ele>1663.22</ele>
        <time>2018-06-23T11:11:40Z</time>
      </trkpt>
      <trkpt lat="42.76408" lon="1.42329">
        <ele>1662.74</ele>
        <time>2018-06-23T11:11:53Z</time>
      </trkpt>
      <trkpt lat="42.76404" lon="1.42315">
        <ele>1662.26</ele>
        <time>2018-06-23T11:12:09Z</time>
      </trkpt>
      <trkpt lat="42.76406" lon="1.42299">
        <ele>1660.81</ele>
        <time>2018-06-23T11:12:24Z</time>
      </trkpt>
      <trkpt lat="42.7641" lon="1.42284">
        <ele>1658.41</ele>
        <time>2018-06-23T11:12:36Z</time>
      </trkpt>
      <trkpt lat="42.76415" lon="1.42273">
        <ele>1657.45</ele>
        <time>2018-06-23T11:12:49Z</time>
      </trkpt>
      <trkpt lat="42.76421" lon="1.4226">
        <ele>1656.01</ele>
        <time>2018-06-23T11:13:01Z</time>
      </trkpt>
      <trkpt lat="42.76428" lon="1.4225">
        <ele>1656.49</ele>
        <time>2018-06-23T11:13:09Z</time>
      </trkpt>
      <trkpt lat="42.76433" lon="1.42242">
        <ele>1655.53</ele>
        <time>2018-06-23T11:13:19Z</time>
      </trkpt>
      <trkpt lat="42.76442" lon="1.42235">
        <ele>1655.05</ele>
        <time>2018-06-23T11:13:32Z</time>
      </trkpt>
      <trkpt lat="42.76446" lon="1.42224">
        <ele>1654.09</ele>
        <time>2018-06-23T11:13:48Z</time>
      </trkpt>
      <trkpt lat="42.76444" lon="1.42207">
        <ele>1656.01</ele>
        <time>2018-06-23T11:14:02Z</time>
      </trkpt>
      <trkpt lat="42.76441" lon="1.42194">
        <ele>1656.49</ele>
        <time>2018-06-23T11:14:14Z</time>
      </trkpt>
      <trkpt lat="42.76446" lon="1.42181">
        <ele>1655.53</ele>
        <time>2018-06-23T11:14:26Z</time>
      </trkpt>
      <trkpt lat="42.7645" lon="1.42169">
        <ele>1656.49</ele>
        <time>2018-06-23T11:14:41Z</time>
      </trkpt>
      <trkpt lat="42.7645" lon="1.42153">
        <ele>1656.01</ele>
        <time>2018-06-23T11:14:53Z</time>
      </trkpt>
      <trkpt lat="42.7645" lon="1.42139">
        <ele>1654.09</ele>
        <time>2018-06-23T11:15:06Z</time>
      </trkpt>
      <trkpt lat="42.76453" lon="1.42125">
        <ele>1652.64</ele>
        <time>2018-06-23T11:15:17Z</time>
      </trkpt>
      <trkpt lat="42.76458" lon="1.42114">
        <ele>1652.16</ele>
        <time>2018-06-23T11:15:27Z</time>
      </trkpt>
      <trkpt lat="42.76466" lon="1.42104">
        <ele>1651.2</ele>
        <time>2018-06-23T11:15:38Z</time>
      </trkpt>
      <trkpt lat="42.76472" lon="1.42094">
        <ele>1651.2</ele>
        <time>2018-06-23T11:15:49Z</time>
      </trkpt>
      <trkpt lat="42.7648" lon="1.42082">
        <ele>1648.8</ele>
        <time>2018-06-23T11:16:01Z</time>
      </trkpt>
      <trkpt lat="42.76484" lon="1.42071">
        <ele>1647.36</ele>
        <time>2018-06-23T11:16:14Z</time>
      </trkpt>
      <trkpt lat="42.76491" lon="1.42063">
        <ele>1646.4</ele>
        <time>2018-06-23T11:16:25Z</time>
      </trkpt>
      <trkpt lat="42.76495" lon="1.42049">
        <ele>1644.47</ele>
        <time>2018-06-23T11:16:43Z</time>
      </trkpt>
      <trkpt lat="42.76501" lon="1.42037">
        <ele>1645.91</ele>
        <time>2018-06-23T11:17:03Z</time>
      </trkpt>
      <trkpt lat="42.76505" lon="1.42023">
        <ele>1643.99</ele>
        <time>2018-06-23T11:17:20Z</time>
      </trkpt>
      <trkpt lat="42.7651" lon="1.4201">
        <ele>1643.99</ele>
        <time>2018-06-23T11:17:39Z</time>
      </trkpt>
      <trkpt lat="42.7651" lon="1.41996">
        <ele>1643.99</ele>
        <time>2018-06-23T11:17:50Z</time>
      </trkpt>
      <trkpt lat="42.76514" lon="1.41982">
        <ele>1645.91</ele>
        <time>2018-06-23T11:18:11Z</time>
      </trkpt>
      <trkpt lat="42.76522" lon="1.41972">
        <ele>1648.32</ele>
        <time>2018-06-23T11:18:25Z</time>
      </trkpt>
      <trkpt lat="42.76527" lon="1.41958">
        <ele>1647.84</ele>
        <time>2018-06-23T11:18:36Z</time>
      </trkpt>
      <trkpt lat="42.76531" lon="1.41946">
        <ele>1646.4</ele>
        <time>2018-06-23T11:18:50Z</time>
      </trkpt>
      <trkpt lat="42.76534" lon="1.41933">
        <ele>1643.99</ele>
        <time>2018-06-23T11:19:08Z</time>
      </trkpt>
      <trkpt lat="42.7654" lon="1.41921">
        <ele>1644.47</ele>
        <time>2018-06-23T11:19:21Z</time>
      </trkpt>
      <trkpt lat="42.76549" lon="1.41912">
        <ele>1644.95</ele>
        <time>2018-06-23T11:19:33Z</time>
      </trkpt>
      <trkpt lat="42.76556" lon="1.41901">
        <ele>1644.95</ele>
        <time>2018-06-23T11:19:46Z</time>
      </trkpt>
      <trkpt lat="42.76561" lon="1.41888">
        <ele>1644.47</ele>
        <time>2018-06-23T11:19:58Z</time>
      </trkpt>
      <trkpt lat="42.76566" lon="1.41876">
        <ele>1645.43</ele>
        <time>2018-06-23T11:20:10Z</time>
      </trkpt>
      <trkpt lat="42.76575" lon="1.4187">
        <ele>1647.84</ele>
        <time>2018-06-23T11:20:28Z</time>
      </trkpt>
      <trkpt lat="42.76586" lon="1.41864">
        <ele>1652.16</ele>
        <time>2018-06-23T11:20:51Z</time>
      </trkpt>
      <trkpt lat="42.76588" lon="1.41852">
        <ele>1656.01</ele>
        <time>2018-06-23T11:21:11Z</time>
      </trkpt>
      <trkpt lat="42.76595" lon="1.41842">
        <ele>1656.49</ele>
        <time>2018-06-23T11:21:26Z</time>
      </trkpt>
      <trkpt lat="42.76597" lon="1.41833">
        <ele>1656.97</ele>
        <time>2018-06-23T11:21:44Z</time>
      </trkpt>
      <trkpt lat="42.76607" lon="1.41825">
        <ele>1658.89</ele>
        <time>2018-06-23T11:21:59Z</time>
      </trkpt>
      <trkpt lat="42.7661" lon="1.41812">
        <ele>1658.89</ele>
        <time>2018-06-23T11:22:11Z</time>
      </trkpt>
      <trkpt lat="42.76617" lon="1.41802">
        <ele>1658.41</ele>
        <time>2018-06-23T11:22:22Z</time>
      </trkpt>
      <trkpt lat="42.76623" lon="1.4179">
        <ele>1658.41</ele>
        <time>2018-06-23T11:22:34Z</time>
      </trkpt>
      <trkpt lat="42.76627" lon="1.41776">
        <ele>1658.89</ele>
        <time>2018-06-23T11:22:47Z</time>
      </trkpt>
      <trkpt lat="42.76631" lon="1.41761">
        <ele>1657.93</ele>
        <time>2018-06-23T11:23:00Z</time>
      </trkpt>
      <trkpt lat="42.76625" lon="1.41751">
        <ele>1657.93</ele>
        <time>2018-06-23T11:23:11Z</time>
      </trkpt>
      <trkpt lat="42.76619" lon="1.41742">
        <ele>1657.93</ele>
        <time>2018-06-23T11:23:24Z</time>
      </trkpt>
      <trkpt lat="42.76612" lon="1.41731">
        <ele>1656.97</ele>
        <time>2018-06-23T11:23:46Z</time>
      </trkpt>
      <trkpt lat="42.76605" lon="1.41715">
        <ele>1655.53</ele>
        <time>2018-06-23T11:24:12Z</time>
      </trkpt>
      <trkpt lat="42.76596" lon="1.41707">
        <ele>1655.53</ele>
        <time>2018-06-23T11:24:24Z</time>
      </trkpt>
      <trkpt lat="42.76592" lon="1.41693">
        <ele>1656.01</ele>
        <time>2018-06-23T11:24:34Z</time>
      </trkpt>
      <trkpt lat="42.7659" lon="1.4168">
        <ele>1656.97</ele>
        <time>2018-06-23T11:24:44Z</time>
      </trkpt>
      <trkpt lat="42.76593" lon="1.41667">
        <ele>1657.45</ele>
        <time>2018-06-23T11:24:55Z</time>
      </trkpt>
      <trkpt lat="42.76597" lon="1.41656">
        <ele>1658.89</ele>
        <time>2018-06-23T11:25:08Z</time>
      </trkpt>
      <trkpt lat="42.76606" lon="1.41652">
        <ele>1661.3</ele>
        <time>2018-06-23T11:25:23Z</time>
      </trkpt>
      <trkpt lat="42.76613" lon="1.41644">
        <ele>1660.81</ele>
        <time>2018-06-23T11:25:34Z</time>
      </trkpt>
      <trkpt lat="42.76616" lon="1.41632">
        <ele>1660.33</ele>
        <time>2018-06-23T11:25:44Z</time>
      </trkpt>
      <trkpt lat="42.76624" lon="1.41623">
        <ele>1659.85</ele>
        <time>2018-06-23T11:26:00Z</time>
      </trkpt>
      <trkpt lat="42.76631" lon="1.4161">
        <ele>1658.89</ele>
        <time>2018-06-23T11:26:10Z</time>
      </trkpt>
      <trkpt lat="42.76633" lon="1.41599">
        <ele>1657.93</ele>
        <time>2018-06-23T11:26:20Z</time>
      </trkpt>
      <trkpt lat="42.76634" lon="1.41585">
        <ele>1657.93</ele>
        <time>2018-06-23T11:26:30Z</time>
      </trkpt>
      <trkpt lat="42.76633" lon="1.41571">
        <ele>1656.97</ele>
        <time>2018-06-23T11:26:39Z</time>
      </trkpt>
      <trkpt lat="42.76636" lon="1.41559">
        <ele>1657.45</ele>
        <time>2018-06-23T11:26:49Z</time>
      </trkpt>
      <trkpt lat="42.76642" lon="1.41546">
        <ele>1657.93</ele>
        <time>2018-06-23T11:27:00Z</time>
      </trkpt>
      <trkpt lat="42.76644" lon="1.41534">
        <ele>1657.93</ele>
        <time>2018-06-23T11:27:10Z</time>
      </trkpt>
      <trkpt lat="42.76645" lon="1.41516">
        <ele>1657.93</ele>
        <time>2018-06-23T11:27:32Z</time>
      </trkpt>
      <trkpt lat="42.76653" lon="1.41506">
        <ele>1659.37</ele>
        <time>2018-06-23T11:27:45Z</time>
      </trkpt>
      <trkpt lat="42.76657" lon="1.41494">
        <ele>1659.37</ele>
        <time>2018-06-23T11:27:57Z</time>
      </trkpt>
      <trkpt lat="42.76654" lon="1.41482">
        <ele>1661.3</ele>
        <time>2018-06-23T11:28:11Z</time>
      </trkpt>
      <trkpt lat="42.76645" lon="1.41483">
        <ele>1660.81</ele>
        <time>2018-06-23T11:28:28Z</time>
      </trkpt>
      <trkpt lat="42.76642" lon="1.41476">
        <ele>1659.85</ele>
        <time>2018-06-23T11:28:50Z</time>
      </trkpt>
      <trkpt lat="42.76637" lon="1.41463">
        <ele>1659.85</ele>
        <time>2018-06-23T11:29:04Z</time>
      </trkpt>
      <trkpt lat="42.76631" lon="1.41451">
        <ele>1660.33</ele>
        <time>2018-06-23T11:29:16Z</time>
      </trkpt>
      <trkpt lat="42.76628" lon="1.41437">
        <ele>1661.3</ele>
        <time>2018-06-23T11:29:27Z</time>
      </trkpt>
      <trkpt lat="42.76621" lon="1.41429">
        <ele>1660.33</ele>
        <time>2018-06-23T11:29:40Z</time>
      </trkpt>
      <trkpt lat="42.76616" lon="1.41424">
        <ele>1658.41</ele>
        <time>2018-06-23T11:29:54Z</time>
      </trkpt>
      <trkpt lat="42.76609" lon="1.41417">
        <ele>1656.49</ele>
        <time>2018-06-23T11:30:09Z</time>
      </trkpt>
      <trkpt lat="42.76604" lon="1.41409">
        <ele>1654.57</ele>
        <time>2018-06-23T11:30:27Z</time>
      </trkpt>
      <trkpt lat="42.76594" lon="1.41402">
        <ele>1652.64</ele>
        <time>2018-06-23T11:30:39Z</time>
      </trkpt>
      <trkpt lat="42.76584" lon="1.41398">
        <ele>1653.12</ele>
        <time>2018-06-23T11:30:49Z</time>
      </trkpt>
      <trkpt lat="42.76575" lon="1.4139">
        <ele>1653.12</ele>
        <time>2018-06-23T11:31:00Z</time>
      </trkpt>
      <trkpt lat="42.76564" lon="1.41389">
        <ele>1652.64</ele>
        <time>2018-06-23T11:31:10Z</time>
      </trkpt>
      <trkpt lat="42.76554" lon="1.41384">
        <ele>1652.16</ele>
        <time>2018-06-23T11:31:21Z</time>
      </trkpt>
      <trkpt lat="42.76545" lon="1.41377">
        <ele>1652.64</ele>
        <time>2018-06-23T11:31:33Z</time>
      </trkpt>
      <trkpt lat="42.76534" lon="1.41379">
        <ele>1656.49</ele>
        <time>2018-06-23T11:31:53Z</time>
      </trkpt>
      <trkpt lat="42.76525" lon="1.41365">
        <ele>1658.41</ele>
        <time>2018-06-23T11:32:18Z</time>
      </trkpt>
      <trkpt lat="42.76525" lon="1.41349">
        <ele>1658.89</ele>
        <time>2018-06-23T11:32:33Z</time>
      </trkpt>
      <trkpt lat="42.76527" lon="1.41347">
        <ele>1657.93</ele>
        <time>2018-06-23T11:33:11Z</time>
      </trkpt>
      <trkpt lat="42.76524" lon="1.41345">
        <ele>1632.46</ele>
        <time>2018-06-24T04:41:28Z</time>
      </trkpt>
      <trkpt lat="42.76639" lon="1.41481">
        <ele>1650.72</ele>
        <time>2018-06-24T04:43:00Z</time>
      </trkpt>
      <trkpt lat="42.76646" lon="1.41486">
        <ele>1655.05</ele>
        <time>2018-06-24T04:43:11Z</time>
      </trkpt>
      <trkpt lat="42.76657" lon="1.41482">
        <ele>1657.45</ele>
        <time>2018-06-24T04:43:21Z</time>
      </trkpt>
      <trkpt lat="42.76661" lon="1.4147">
        <ele>1659.85</ele>
        <time>2018-06-24T04:43:31Z</time>
      </trkpt>
      <trkpt lat="42.76667" lon="1.41461">
        <ele>1661.78</ele>
        <time>2018-06-24T04:43:41Z</time>
      </trkpt>
      <trkpt lat="42.76678" lon="1.41459">
        <ele>1662.26</ele>
        <time>2018-06-24T04:43:52Z</time>
      </trkpt>
      <trkpt lat="42.76688" lon="1.41454">
        <ele>1662.26</ele>
        <time>2018-06-24T04:44:04Z</time>
      </trkpt>
      <trkpt lat="42.76697" lon="1.41448">
        <ele>1665.14</ele>
        <time>2018-06-24T04:44:21Z</time>
      </trkpt>
      <trkpt lat="42.76704" lon="1.41446">
        <ele>1667.54</ele>
        <time>2018-06-24T04:44:37Z</time>
      </trkpt>
      <trkpt lat="42.76713" lon="1.41452">
        <ele>1669.95</ele>
        <time>2018-06-24T04:44:56Z</time>
      </trkpt>
      <trkpt lat="42.76721" lon="1.41458">
        <ele>1671.87</ele>
        <time>2018-06-24T04:45:10Z</time>
      </trkpt>
      <trkpt lat="42.76733" lon="1.41453">
        <ele>1674.75</ele>
        <time>2018-06-24T04:45:38Z</time>
      </trkpt>
      <trkpt lat="42.76741" lon="1.41455">
        <ele>1678.12</ele>
        <time>2018-06-24T04:46:07Z</time>
      </trkpt>
      <trkpt lat="42.76751" lon="1.41456">
        <ele>1680.52</ele>
        <time>2018-06-24T04:46:22Z</time>
      </trkpt>
      <trkpt lat="42.76761" lon="1.41462">
        <ele>1681.48</ele>
        <time>2018-06-24T04:46:37Z</time>
      </trkpt>
      <trkpt lat="42.7677" lon="1.41462">
        <ele>1684.37</ele>
        <time>2018-06-24T04:47:01Z</time>
      </trkpt>
      <trkpt lat="42.76767" lon="1.4145">
        <ele>1686.77</ele>
        <time>2018-06-24T04:47:20Z</time>
      </trkpt>
      <trkpt lat="42.76775" lon="1.41454">
        <ele>1690.14</ele>
        <time>2018-06-24T04:47:45Z</time>
      </trkpt>
      <trkpt lat="42.76783" lon="1.41462">
        <ele>1692.06</ele>
        <time>2018-06-24T04:48:03Z</time>
      </trkpt>
      <trkpt lat="42.76793" lon="1.41464">
        <ele>1696.86</ele>
        <time>2018-06-24T04:48:37Z</time>
      </trkpt>
      <trkpt lat="42.76795" lon="1.41457">
        <ele>1698.31</ele>
        <time>2018-06-24T04:48:56Z</time>
      </trkpt>
      <trkpt lat="42.768" lon="1.41458">
        <ele>1701.19</ele>
        <time>2018-06-24T04:49:19Z</time>
      </trkpt>
      <trkpt lat="42.76807" lon="1.41451">
        <ele>1702.63</ele>
        <time>2018-06-24T04:49:40Z</time>
      </trkpt>
      <trkpt lat="42.76812" lon="1.4144">
        <ele>1706</ele>
        <time>2018-06-24T04:49:58Z</time>
      </trkpt>
      <trkpt lat="42.7682" lon="1.41433">
        <ele>1708.88</ele>
        <time>2018-06-24T04:50:20Z</time>
      </trkpt>
      <trkpt lat="42.76824" lon="1.41425">
        <ele>1710.8</ele>
        <time>2018-06-24T04:50:40Z</time>
      </trkpt>
      <trkpt lat="42.76829" lon="1.41415">
        <ele>1712.73</ele>
        <time>2018-06-24T04:51:15Z</time>
      </trkpt>
      <trkpt lat="42.76839" lon="1.41413">
        <ele>1715.61</ele>
        <time>2018-06-24T04:51:35Z</time>
      </trkpt>
      <trkpt lat="42.76846" lon="1.41406">
        <ele>1719.46</ele>
        <time>2018-06-24T04:52:00Z</time>
      </trkpt>
      <trkpt lat="42.76855" lon="1.41403">
        <ele>1722.34</ele>
        <time>2018-06-24T04:52:25Z</time>
      </trkpt>
      <trkpt lat="42.76859" lon="1.41396">
        <ele>1725.7</ele>
        <time>2018-06-24T04:52:52Z</time>
      </trkpt>
      <trkpt lat="42.76865" lon="1.41387">
        <ele>1729.55</ele>
        <time>2018-06-24T04:53:19Z</time>
      </trkpt>
      <trkpt lat="42.76876" lon="1.4139">
        <ele>1734.36</ele>
        <time>2018-06-24T04:53:57Z</time>
      </trkpt>
      <trkpt lat="42.76882" lon="1.41395">
        <ele>1739.16</ele>
        <time>2018-06-24T04:54:36Z</time>
      </trkpt>
      <trkpt lat="42.76886" lon="1.41398">
        <ele>1741.57</ele>
        <time>2018-06-24T04:54:57Z</time>
      </trkpt>
      <trkpt lat="42.76894" lon="1.41404">
        <ele>1743.97</ele>
        <time>2018-06-24T04:55:17Z</time>
      </trkpt>
      <trkpt lat="42.769" lon="1.41412">
        <ele>1744.93</ele>
        <time>2018-06-24T04:55:34Z</time>
      </trkpt>
      <trkpt lat="42.76903" lon="1.41401">
        <ele>1747.33</ele>
        <time>2018-06-24T04:55:56Z</time>
      </trkpt>
      <trkpt lat="42.76908" lon="1.41409">
        <ele>1750.22</ele>
        <time>2018-06-24T04:56:18Z</time>
      </trkpt>
      <trkpt lat="42.76917" lon="1.41414">
        <ele>1753.58</ele>
        <time>2018-06-24T04:56:46Z</time>
      </trkpt>
      <trkpt lat="42.76917" lon="1.41402">
        <ele>1756.47</ele>
        <time>2018-06-24T04:57:09Z</time>
      </trkpt>
      <trkpt lat="42.7692" lon="1.41396">
        <ele>1759.35</ele>
        <time>2018-06-24T04:57:31Z</time>
      </trkpt>
      <trkpt lat="42.76924" lon="1.41392">
        <ele>1762.23</ele>
        <time>2018-06-24T04:57:57Z</time>
      </trkpt>
      <trkpt lat="42.76932" lon="1.41391">
        <ele>1765.12</ele>
        <time>2018-06-24T04:58:20Z</time>
      </trkpt>
      <trkpt lat="42.76931" lon="1.41379">
        <ele>1767.52</ele>
        <time>2018-06-24T04:58:41Z</time>
      </trkpt>
      <trkpt lat="42.76934" lon="1.41372">
        <ele>1770.89</ele>
        <time>2018-06-24T04:59:05Z</time>
      </trkpt>
      <trkpt lat="42.76935" lon="1.4136">
        <ele>1773.29</ele>
        <time>2018-06-24T04:59:30Z</time>
      </trkpt>
      <trkpt lat="42.7694" lon="1.41356">
        <ele>1776.17</ele>
        <time>2018-06-24T04:59:55Z</time>
      </trkpt>
      <trkpt lat="42.76943" lon="1.41345">
        <ele>1779.54</ele>
        <time>2018-06-24T05:00:18Z</time>
      </trkpt>
      <trkpt lat="42.76947" lon="1.41336">
        <ele>1783.38</ele>
        <time>2018-06-24T05:00:41Z</time>
      </trkpt>
      <trkpt lat="42.76947" lon="1.41325">
        <ele>1785.79</ele>
        <time>2018-06-24T05:01:13Z</time>
      </trkpt>
      <trkpt lat="42.76953" lon="1.41318">
        <ele>1788.19</ele>
        <time>2018-06-24T05:02:38Z</time>
      </trkpt>
      <trkpt lat="42.76955" lon="1.41303">
        <ele>1792.03</ele>
        <time>2018-06-24T05:03:05Z</time>
      </trkpt>
      <trkpt lat="42.76958" lon="1.41289">
        <ele>1795.88</ele>
        <time>2018-06-24T05:03:37Z</time>
      </trkpt>
      <trkpt lat="42.7696" lon="1.41275">
        <ele>1799.24</ele>
        <time>2018-06-24T05:04:01Z</time>
      </trkpt>
      <trkpt lat="42.76962" lon="1.41266">
        <ele>1801.17</ele>
        <time>2018-06-24T05:04:19Z</time>
      </trkpt>
      <trkpt lat="42.76969" lon="1.41255">
        <ele>1804.05</ele>
        <time>2018-06-24T05:04:44Z</time>
      </trkpt>
      <trkpt lat="42.76976" lon="1.41247">
        <ele>1806.94</ele>
        <time>2018-06-24T05:05:10Z</time>
      </trkpt>
      <trkpt lat="42.76981" lon="1.41237">
        <ele>1810.3</ele>
        <time>2018-06-24T05:05:39Z</time>
      </trkpt>
      <trkpt lat="42.76989" lon="1.41229">
        <ele>1815.59</ele>
        <time>2018-06-24T05:06:10Z</time>
      </trkpt>
      <trkpt lat="42.76987" lon="1.41215">
        <ele>1817.99</ele>
        <time>2018-06-24T05:06:33Z</time>
      </trkpt>
      <trkpt lat="42.76996" lon="1.41211">
        <ele>1821.84</ele>
        <time>2018-06-24T05:07:05Z</time>
      </trkpt>
      <trkpt lat="42.77002" lon="1.41217">
        <ele>1825.2</ele>
        <time>2018-06-24T05:07:45Z</time>
      </trkpt>
      <trkpt lat="42.77009" lon="1.41218">
        <ele>1829.05</ele>
        <time>2018-06-24T05:08:14Z</time>
      </trkpt>
      <trkpt lat="42.77018" lon="1.4122">
        <ele>1832.89</ele>
        <time>2018-06-24T05:08:50Z</time>
      </trkpt>
      <trkpt lat="42.77021" lon="1.41218">
        <ele>1835.77</ele>
        <time>2018-06-24T05:09:17Z</time>
      </trkpt>
      <trkpt lat="42.7703" lon="1.41213">
        <ele>1841.06</ele>
        <time>2018-06-24T05:09:53Z</time>
      </trkpt>
      <trkpt lat="42.77028" lon="1.41227">
        <ele>1842.5</ele>
        <time>2018-06-24T05:10:11Z</time>
      </trkpt>
      <trkpt lat="42.77038" lon="1.41232">
        <ele>1844.91</ele>
        <time>2018-06-24T05:10:38Z</time>
      </trkpt>
      <trkpt lat="42.77044" lon="1.41243">
        <ele>1849.23</ele>
        <time>2018-06-24T05:11:08Z</time>
      </trkpt>
      <trkpt lat="42.77047" lon="1.41257">
        <ele>1853.08</ele>
        <time>2018-06-24T05:11:37Z</time>
      </trkpt>
      <trkpt lat="42.77053" lon="1.41266">
        <ele>1855.48</ele>
        <time>2018-06-24T05:11:59Z</time>
      </trkpt>
      <trkpt lat="42.77061" lon="1.41257">
        <ele>1858.37</ele>
        <time>2018-06-24T05:12:26Z</time>
      </trkpt>
      <trkpt lat="42.77068" lon="1.41272">
        <ele>1862.21</ele>
        <time>2018-06-24T05:13:03Z</time>
      </trkpt>
      <trkpt lat="42.77072" lon="1.41262">
        <ele>1867.02</ele>
        <time>2018-06-24T05:13:32Z</time>
      </trkpt>
      <trkpt lat="42.77078" lon="1.41252">
        <ele>1871.82</ele>
        <time>2018-06-24T05:14:11Z</time>
      </trkpt>
      <trkpt lat="42.77082" lon="1.4124">
        <ele>1874.71</ele>
        <time>2018-06-24T05:14:33Z</time>
      </trkpt>
      <trkpt lat="42.77084" lon="1.41228">
        <ele>1877.11</ele>
        <time>2018-06-24T05:14:58Z</time>
      </trkpt>
      <trkpt lat="42.77092" lon="1.41224">
        <ele>1880.96</ele>
        <time>2018-06-24T05:15:25Z</time>
      </trkpt>
      <trkpt lat="42.77099" lon="1.41215">
        <ele>1883.36</ele>
        <time>2018-06-24T05:15:42Z</time>
      </trkpt>
      <trkpt lat="42.77108" lon="1.41206">
        <ele>1884.32</ele>
        <time>2018-06-24T05:15:59Z</time>
      </trkpt>
      <trkpt lat="42.77118" lon="1.41206">
        <ele>1886.24</ele>
        <time>2018-06-24T05:16:17Z</time>
      </trkpt>
      <trkpt lat="42.7713" lon="1.41206">
        <ele>1888.17</ele>
        <time>2018-06-24T05:16:35Z</time>
      </trkpt>
      <trkpt lat="42.77141" lon="1.4121">
        <ele>1891.53</ele>
        <time>2018-06-24T05:17:03Z</time>
      </trkpt>
      <trkpt lat="42.77151" lon="1.41215">
        <ele>1894.42</ele>
        <time>2018-06-24T05:17:28Z</time>
      </trkpt>
      <trkpt lat="42.77162" lon="1.41211">
        <ele>1898.26</ele>
        <time>2018-06-24T05:17:56Z</time>
      </trkpt>
      <trkpt lat="42.77169" lon="1.41204">
        <ele>1901.14</ele>
        <time>2018-06-24T05:18:21Z</time>
      </trkpt>
      <trkpt lat="42.77178" lon="1.41198">
        <ele>1904.51</ele>
        <time>2018-06-24T05:18:48Z</time>
      </trkpt>
      <trkpt lat="42.77183" lon="1.41189">
        <ele>1908.83</ele>
        <time>2018-06-24T05:19:18Z</time>
      </trkpt>
      <trkpt lat="42.77191" lon="1.4119">
        <ele>1910.28</ele>
        <time>2018-06-24T05:19:44Z</time>
      </trkpt>
      <trkpt lat="42.77198" lon="1.41184">
        <ele>1914.12</ele>
        <time>2018-06-24T05:20:11Z</time>
      </trkpt>
      <trkpt lat="42.77204" lon="1.41183">
        <ele>1917.97</ele>
        <time>2018-06-24T05:20:37Z</time>
      </trkpt>
      <trkpt lat="42.77212" lon="1.41181">
        <ele>1920.37</ele>
        <time>2018-06-24T05:21:00Z</time>
      </trkpt>
      <trkpt lat="42.77224" lon="1.41176">
        <ele>1923.25</ele>
        <time>2018-06-24T05:21:21Z</time>
      </trkpt>
      <trkpt lat="42.77233" lon="1.41173">
        <ele>1927.1</ele>
        <time>2018-06-24T05:21:44Z</time>
      </trkpt>
      <trkpt lat="42.77242" lon="1.41172">
        <ele>1928.54</ele>
        <time>2018-06-24T05:22:00Z</time>
      </trkpt>
      <trkpt lat="42.7725" lon="1.41169">
        <ele>1929.02</ele>
        <time>2018-06-24T05:22:14Z</time>
      </trkpt>
      <trkpt lat="42.77246" lon="1.41157">
        <ele>1930.46</ele>
        <time>2018-06-24T05:22:28Z</time>
      </trkpt>
      <trkpt lat="42.77245" lon="1.41144">
        <ele>1932.87</ele>
        <time>2018-06-24T05:22:47Z</time>
      </trkpt>
      <trkpt lat="42.77243" lon="1.41131">
        <ele>1935.75</ele>
        <time>2018-06-24T05:23:04Z</time>
      </trkpt>
      <trkpt lat="42.7724" lon="1.41119">
        <ele>1937.19</ele>
        <time>2018-06-24T05:23:19Z</time>
      </trkpt>
      <trkpt lat="42.77242" lon="1.41105">
        <ele>1939.12</ele>
        <time>2018-06-24T05:23:34Z</time>
      </trkpt>
      <trkpt lat="42.77239" lon="1.41091">
        <ele>1940.56</ele>
        <time>2018-06-24T05:23:51Z</time>
      </trkpt>
      <trkpt lat="42.77238" lon="1.41079">
        <ele>1939.6</ele>
        <time>2018-06-24T05:24:03Z</time>
      </trkpt>
      <trkpt lat="42.77229" lon="1.41074">
        <ele>1941.04</ele>
        <time>2018-06-24T05:24:20Z</time>
      </trkpt>
      <trkpt lat="42.77222" lon="1.41065">
        <ele>1942</ele>
        <time>2018-06-24T05:24:33Z</time>
      </trkpt>
      <trkpt lat="42.77215" lon="1.41056">
        <ele>1944.4</ele>
        <time>2018-06-24T05:24:48Z</time>
      </trkpt>
      <trkpt lat="42.77209" lon="1.41047">
        <ele>1945.85</ele>
        <time>2018-06-24T05:25:02Z</time>
      </trkpt>
      <trkpt lat="42.77203" lon="1.41039">
        <ele>1947.77</ele>
        <time>2018-06-24T05:25:17Z</time>
      </trkpt>
      <trkpt lat="42.77194" lon="1.41034">
        <ele>1948.25</ele>
        <time>2018-06-24T05:25:30Z</time>
      </trkpt>
      <trkpt lat="42.77191" lon="1.41022">
        <ele>1951.61</ele>
        <time>2018-06-24T05:25:51Z</time>
      </trkpt>
      <trkpt lat="42.77189" lon="1.41006">
        <ele>1953.06</ele>
        <time>2018-06-24T05:26:05Z</time>
      </trkpt>
      <trkpt lat="42.77191" lon="1.40992">
        <ele>1951.61</ele>
        <time>2018-06-24T05:26:17Z</time>
      </trkpt>
      <trkpt lat="42.77191" lon="1.40979">
        <ele>1952.09</ele>
        <time>2018-06-24T05:26:27Z</time>
      </trkpt>
      <trkpt lat="42.77189" lon="1.40969">
        <ele>1951.61</ele>
        <time>2018-06-24T05:26:39Z</time>
      </trkpt>
      <trkpt lat="42.77189" lon="1.40956">
        <ele>1955.46</ele>
        <time>2018-06-24T05:26:58Z</time>
      </trkpt>
      <trkpt lat="42.7719" lon="1.40941">
        <ele>1958.34</ele>
        <time>2018-06-24T05:27:17Z</time>
      </trkpt>
      <trkpt lat="42.77188" lon="1.40929">
        <ele>1958.82</ele>
        <time>2018-06-24T05:27:29Z</time>
      </trkpt>
      <trkpt lat="42.77184" lon="1.40917">
        <ele>1959.3</ele>
        <time>2018-06-24T05:27:41Z</time>
      </trkpt>
      <trkpt lat="42.77175" lon="1.40915">
        <ele>1958.34</ele>
        <time>2018-06-24T05:27:51Z</time>
      </trkpt>
      <trkpt lat="42.77168" lon="1.40905">
        <ele>1961.23</ele>
        <time>2018-06-24T05:28:06Z</time>
      </trkpt>
      <trkpt lat="42.77171" lon="1.40894">
        <ele>1962.19</ele>
        <time>2018-06-24T05:28:23Z</time>
      </trkpt>
      <trkpt lat="42.77175" lon="1.40882">
        <ele>1963.15</ele>
        <time>2018-06-24T05:28:37Z</time>
      </trkpt>
      <trkpt lat="42.7718" lon="1.4087">
        <ele>1965.07</ele>
        <time>2018-06-24T05:28:52Z</time>
      </trkpt>
      <trkpt lat="42.77185" lon="1.40856">
        <ele>1966.03</ele>
        <time>2018-06-24T05:29:10Z</time>
      </trkpt>
      <trkpt lat="42.77193" lon="1.40845">
        <ele>1969.4</ele>
        <time>2018-06-24T05:29:34Z</time>
      </trkpt>
      <trkpt lat="42.77199" lon="1.40838">
        <ele>1972.76</ele>
        <time>2018-06-24T05:29:56Z</time>
      </trkpt>
      <trkpt lat="42.77205" lon="1.40834">
        <ele>1975.65</ele>
        <time>2018-06-24T05:30:26Z</time>
      </trkpt>
      <trkpt lat="42.77206" lon="1.40823">
        <ele>1979.01</ele>
        <time>2018-06-24T05:30:52Z</time>
      </trkpt>
      <trkpt lat="42.77213" lon="1.40811">
        <ele>1980.45</ele>
        <time>2018-06-24T05:31:08Z</time>
      </trkpt>
      <trkpt lat="42.77221" lon="1.40802">
        <ele>1981.41</ele>
        <time>2018-06-24T05:31:27Z</time>
      </trkpt>
      <trkpt lat="42.77226" lon="1.40789">
        <ele>1981.41</ele>
        <time>2018-06-24T05:31:45Z</time>
      </trkpt>
      <trkpt lat="42.77219" lon="1.40781">
        <ele>1982.38</ele>
        <time>2018-06-24T05:32:00Z</time>
      </trkpt>
      <trkpt lat="42.77216" lon="1.40772">
        <ele>1986.22</ele>
        <time>2018-06-24T05:32:21Z</time>
      </trkpt>
      <trkpt lat="42.77218" lon="1.40759">
        <ele>1987.18</ele>
        <time>2018-06-24T05:32:39Z</time>
      </trkpt>
      <trkpt lat="42.77212" lon="1.4075">
        <ele>1988.62</ele>
        <time>2018-06-24T05:32:51Z</time>
      </trkpt>
      <trkpt lat="42.77211" lon="1.40737">
        <ele>1990.55</ele>
        <time>2018-06-24T05:33:05Z</time>
      </trkpt>
      <trkpt lat="42.77213" lon="1.40726">
        <ele>1990.07</ele>
        <time>2018-06-24T05:33:18Z</time>
      </trkpt>
      <trkpt lat="42.77218" lon="1.40717">
        <ele>1991.03</ele>
        <time>2018-06-24T05:33:32Z</time>
      </trkpt>
      <trkpt lat="42.77214" lon="1.40704">
        <ele>1993.43</ele>
        <time>2018-06-24T05:33:49Z</time>
      </trkpt>
      <trkpt lat="42.77219" lon="1.40696">
        <ele>1996.32</ele>
        <time>2018-06-24T05:34:21Z</time>
      </trkpt>
      <trkpt lat="42.77215" lon="1.40685">
        <ele>1999.2</ele>
        <time>2018-06-24T05:35:05Z</time>
      </trkpt>
      <trkpt lat="42.77212" lon="1.40675">
        <ele>2004.01</ele>
        <time>2018-06-24T05:35:29Z</time>
      </trkpt>
      <trkpt lat="42.77209" lon="1.40665">
        <ele>2007.37</ele>
        <time>2018-06-24T05:36:12Z</time>
      </trkpt>
      <trkpt lat="42.77216" lon="1.40657">
        <ele>2013.62</ele>
        <time>2018-06-24T05:36:47Z</time>
      </trkpt>
      <trkpt lat="42.7722" lon="1.40646">
        <ele>2020.35</ele>
        <time>2018-06-24T05:37:25Z</time>
      </trkpt>
      <trkpt lat="42.77225" lon="1.40635">
        <ele>2023.23</ele>
        <time>2018-06-24T05:37:52Z</time>
      </trkpt>
      <trkpt lat="42.77223" lon="1.40626">
        <ele>2026.6</ele>
        <time>2018-06-24T05:38:17Z</time>
      </trkpt>
      <trkpt lat="42.77223" lon="1.40615">
        <ele>2029</ele>
        <time>2018-06-24T05:38:38Z</time>
      </trkpt>
      <trkpt lat="42.77223" lon="1.40602">
        <ele>2031.4</ele>
        <time>2018-06-24T05:38:57Z</time>
      </trkpt>
      <trkpt lat="42.77222" lon="1.40588">
        <ele>2033.81</ele>
        <time>2018-06-24T05:39:18Z</time>
      </trkpt>
      <trkpt lat="42.77223" lon="1.40575">
        <ele>2036.69</ele>
        <time>2018-06-24T05:39:40Z</time>
      </trkpt>
      <trkpt lat="42.77216" lon="1.40568">
        <ele>2040.05</ele>
        <time>2018-06-24T05:40:05Z</time>
      </trkpt>
      <trkpt lat="42.77211" lon="1.40559">
        <ele>2042.94</ele>
        <time>2018-06-24T05:40:29Z</time>
      </trkpt>
      <trkpt lat="42.77207" lon="1.40549">
        <ele>2046.78</ele>
        <time>2018-06-24T05:40:53Z</time>
      </trkpt>
      <trkpt lat="42.772" lon="1.40553">
        <ele>2047.75</ele>
        <time>2018-06-24T05:41:11Z</time>
      </trkpt>
      <trkpt lat="42.77194" lon="1.40559">
        <ele>2048.71</ele>
        <time>2018-06-24T05:41:27Z</time>
      </trkpt>
      <trkpt lat="42.77186" lon="1.40564">
        <ele>2049.67</ele>
        <time>2018-06-24T05:41:45Z</time>
      </trkpt>
      <trkpt lat="42.77176" lon="1.40563">
        <ele>2046.78</ele>
        <time>2018-06-24T05:42:04Z</time>
      </trkpt>
      <trkpt lat="42.77169" lon="1.40557">
        <ele>2044.86</ele>
        <time>2018-06-24T05:42:17Z</time>
      </trkpt>
      <trkpt lat="42.77162" lon="1.40557">
        <ele>2042.46</ele>
        <time>2018-06-24T05:42:37Z</time>
      </trkpt>
      <trkpt lat="42.77154" lon="1.40553">
        <ele>2038.61</ele>
        <time>2018-06-24T05:42:55Z</time>
      </trkpt>
      <trkpt lat="42.77146" lon="1.40545">
        <ele>2036.69</ele>
        <time>2018-06-24T05:43:09Z</time>
      </trkpt>
      <trkpt lat="42.77138" lon="1.40539">
        <ele>2037.17</ele>
        <time>2018-06-24T05:43:25Z</time>
      </trkpt>
      <trkpt lat="42.77132" lon="1.40533">
        <ele>2036.21</ele>
        <time>2018-06-24T05:43:54Z</time>
      </trkpt>
      <trkpt lat="42.77125" lon="1.40528">
        <ele>2033.33</ele>
        <time>2018-06-24T05:44:12Z</time>
      </trkpt>
      <trkpt lat="42.77116" lon="1.40522">
        <ele>2029.48</ele>
        <time>2018-06-24T05:44:30Z</time>
      </trkpt>
      <trkpt lat="42.77108" lon="1.40518">
        <ele>2028.04</ele>
        <time>2018-06-24T05:44:51Z</time>
      </trkpt>
      <trkpt lat="42.771" lon="1.40511">
        <ele>2025.15</ele>
        <time>2018-06-24T05:45:11Z</time>
      </trkpt>
      <trkpt lat="42.77093" lon="1.40504">
        <ele>2022.27</ele>
        <time>2018-06-24T05:45:23Z</time>
      </trkpt>
      <trkpt lat="42.77086" lon="1.405">
        <ele>2025.15</ele>
        <time>2018-06-24T05:52:42Z</time>
      </trkpt>
      <trkpt lat="42.77078" lon="1.40497">
        <ele>2021.79</ele>
        <time>2018-06-24T05:53:01Z</time>
      </trkpt>
      <trkpt lat="42.77069" lon="1.40497">
        <ele>2019.39</ele>
        <time>2018-06-24T05:53:12Z</time>
      </trkpt>
      <trkpt lat="42.7706" lon="1.40495">
        <ele>2016.5</ele>
        <time>2018-06-24T05:53:23Z</time>
      </trkpt>
      <trkpt lat="42.77051" lon="1.40493">
        <ele>2014.58</ele>
        <time>2018-06-24T05:53:34Z</time>
      </trkpt>
      <trkpt lat="42.77043" lon="1.4049">
        <ele>2011.22</ele>
        <time>2018-06-24T05:53:47Z</time>
      </trkpt>
      <trkpt lat="42.77034" lon="1.40488">
        <ele>2007.85</ele>
        <time>2018-06-24T05:54:00Z</time>
      </trkpt>
      <trkpt lat="42.77026" lon="1.40493">
        <ele>2005.93</ele>
        <time>2018-06-24T05:54:10Z</time>
      </trkpt>
      <trkpt lat="42.77016" lon="1.40495">
        <ele>2004.01</ele>
        <time>2018-06-24T05:54:20Z</time>
      </trkpt>
      <trkpt lat="42.77006" lon="1.40497">
        <ele>2001.12</ele>
        <time>2018-06-24T05:54:31Z</time>
      </trkpt>
      <trkpt lat="42.76998" lon="1.40496">
        <ele>1997.28</ele>
        <time>2018-06-24T05:54:43Z</time>
      </trkpt>
      <trkpt lat="42.76989" lon="1.40494">
        <ele>1995.83</ele>
        <time>2018-06-24T05:54:54Z</time>
      </trkpt>
      <trkpt lat="42.76981" lon="1.40493">
        <ele>1992.95</ele>
        <time>2018-06-24T05:55:04Z</time>
      </trkpt>
      <trkpt lat="42.76972" lon="1.40492">
        <ele>1990.55</ele>
        <time>2018-06-24T05:55:15Z</time>
      </trkpt>
      <trkpt lat="42.76962" lon="1.40492">
        <ele>1988.14</ele>
        <time>2018-06-24T05:55:30Z</time>
      </trkpt>
      <trkpt lat="42.76952" lon="1.4049">
        <ele>1986.22</ele>
        <time>2018-06-24T05:55:41Z</time>
      </trkpt>
      <trkpt lat="42.76944" lon="1.4049">
        <ele>1982.38</ele>
        <time>2018-06-24T05:55:52Z</time>
      </trkpt>
      <trkpt lat="42.76935" lon="1.40489">
        <ele>1980.45</ele>
        <time>2018-06-24T05:56:03Z</time>
      </trkpt>
      <trkpt lat="42.76925" lon="1.40488">
        <ele>1977.57</ele>
        <time>2018-06-24T05:56:15Z</time>
      </trkpt>
      <trkpt lat="42.76916" lon="1.40489">
        <ele>1975.65</ele>
        <time>2018-06-24T05:56:26Z</time>
      </trkpt>
      <trkpt lat="42.76907" lon="1.40491">
        <ele>1972.28</ele>
        <time>2018-06-24T05:56:36Z</time>
      </trkpt>
      <trkpt lat="42.76898" lon="1.40487">
        <ele>1970.36</ele>
        <time>2018-06-24T05:56:49Z</time>
      </trkpt>
      <trkpt lat="42.76888" lon="1.40487">
        <ele>1966.99</ele>
        <time>2018-06-24T05:57:05Z</time>
      </trkpt>
      <trkpt lat="42.76879" lon="1.40487">
        <ele>1964.11</ele>
        <time>2018-06-24T05:57:20Z</time>
      </trkpt>
      <trkpt lat="42.76869" lon="1.40488">
        <ele>1962.19</ele>
        <time>2018-06-24T05:57:36Z</time>
      </trkpt>
      <trkpt lat="42.7686" lon="1.40487">
        <ele>1958.82</ele>
        <time>2018-06-24T05:57:46Z</time>
      </trkpt>
      <trkpt lat="42.7685" lon="1.40487">
        <ele>1958.34</ele>
        <time>2018-06-24T05:57:56Z</time>
      </trkpt>
      <trkpt lat="42.7684" lon="1.40486">
        <ele>1955.94</ele>
        <time>2018-06-24T05:58:05Z</time>
      </trkpt>
      <trkpt lat="42.76831" lon="1.40483">
        <ele>1954.5</ele>
        <time>2018-06-24T05:58:15Z</time>
      </trkpt>
      <trkpt lat="42.76821" lon="1.40481">
        <ele>1953.06</ele>
        <time>2018-06-24T05:58:24Z</time>
      </trkpt>
      <trkpt lat="42.76812" lon="1.40478">
        <ele>1951.61</ele>
        <time>2018-06-24T05:58:33Z</time>
      </trkpt>
      <trkpt lat="42.76802" lon="1.40474">
        <ele>1950.65</ele>
        <time>2018-06-24T05:58:42Z</time>
      </trkpt>
      <trkpt lat="42.76794" lon="1.4047">
        <ele>1948.73</ele>
        <time>2018-06-24T05:58:51Z</time>
      </trkpt>
      <trkpt lat="42.76785" lon="1.40467">
        <ele>1947.29</ele>
        <time>2018-06-24T05:58:59Z</time>
      </trkpt>
      <trkpt lat="42.76776" lon="1.40464">
        <ele>1947.77</ele>
        <time>2018-06-24T05:59:08Z</time>
      </trkpt>
      <trkpt lat="42.76768" lon="1.40457">
        <ele>1946.33</ele>
        <time>2018-06-24T05:59:15Z</time>
      </trkpt>
      <trkpt lat="42.76761" lon="1.40449">
        <ele>1947.29</ele>
        <time>2018-06-24T05:59:24Z</time>
      </trkpt>
      <trkpt lat="42.76753" lon="1.40444">
        <ele>1946.33</ele>
        <time>2018-06-24T05:59:32Z</time>
      </trkpt>
      <trkpt lat="42.76743" lon="1.40437">
        <ele>1947.29</ele>
        <time>2018-06-24T05:59:41Z</time>
      </trkpt>
      <trkpt lat="42.76734" lon="1.40433">
        <ele>1947.29</ele>
        <time>2018-06-24T05:59:50Z</time>
      </trkpt>
      <trkpt lat="42.76726" lon="1.40426">
        <ele>1946.81</ele>
        <time>2018-06-24T06:00:00Z</time>
      </trkpt>
      <trkpt lat="42.76719" lon="1.40419">
        <ele>1948.25</ele>
        <time>2018-06-24T06:00:12Z</time>
      </trkpt>
      <trkpt lat="42.7671" lon="1.40423">
        <ele>1951.13</ele>
        <time>2018-06-24T06:00:34Z</time>
      </trkpt>
      <trkpt lat="42.76703" lon="1.40415">
        <ele>1953.06</ele>
        <time>2018-06-24T06:00:49Z</time>
      </trkpt>
      <trkpt lat="42.76698" lon="1.40402">
        <ele>1955.46</ele>
        <time>2018-06-24T06:01:10Z</time>
      </trkpt>
      <trkpt lat="42.76689" lon="1.40406">
        <ele>1959.3</ele>
        <time>2018-06-24T06:01:31Z</time>
      </trkpt>
      <trkpt lat="42.76683" lon="1.40411">
        <ele>1960.75</ele>
        <time>2018-06-24T06:01:47Z</time>
      </trkpt>
      <trkpt lat="42.7668" lon="1.40399">
        <ele>1964.11</ele>
        <time>2018-06-24T06:02:07Z</time>
      </trkpt>
      <trkpt lat="42.76674" lon="1.40394">
        <ele>1967.48</ele>
        <time>2018-06-24T06:02:32Z</time>
      </trkpt>
      <trkpt lat="42.76672" lon="1.4038">
        <ele>1969.4</ele>
        <time>2018-06-24T06:02:52Z</time>
      </trkpt>
      <trkpt lat="42.76663" lon="1.4038">
        <ele>1971.32</ele>
        <time>2018-06-24T06:03:08Z</time>
      </trkpt>
      <trkpt lat="42.76657" lon="1.40371">
        <ele>1973.72</ele>
        <time>2018-06-24T06:03:24Z</time>
      </trkpt>
      <trkpt lat="42.76649" lon="1.40363">
        <ele>1977.09</ele>
        <time>2018-06-24T06:03:44Z</time>
      </trkpt>
      <trkpt lat="42.76641" lon="1.40355">
        <ele>1979.97</ele>
        <time>2018-06-24T06:04:03Z</time>
      </trkpt>
      <trkpt lat="42.76632" lon="1.40353">
        <ele>1981.9</ele>
        <time>2018-06-24T06:04:18Z</time>
      </trkpt>
      <trkpt lat="42.76628" lon="1.40342">
        <ele>1981.9</ele>
        <time>2018-06-24T06:04:30Z</time>
      </trkpt>
      <trkpt lat="42.76622" lon="1.40332">
        <ele>1982.86</ele>
        <time>2018-06-24T06:04:41Z</time>
      </trkpt>
      <trkpt lat="42.76615" lon="1.40324">
        <ele>1984.78</ele>
        <time>2018-06-24T06:04:54Z</time>
      </trkpt>
      <trkpt lat="42.76609" lon="1.40314">
        <ele>1986.7</ele>
        <time>2018-06-24T06:05:09Z</time>
      </trkpt>
      <trkpt lat="42.76604" lon="1.40303">
        <ele>1989.1</ele>
        <time>2018-06-24T06:05:24Z</time>
      </trkpt>
      <trkpt lat="42.76595" lon="1.40301">
        <ele>1991.51</ele>
        <time>2018-06-24T06:05:44Z</time>
      </trkpt>
      <trkpt lat="42.76588" lon="1.40291">
        <ele>1995.83</ele>
        <time>2018-06-24T06:06:07Z</time>
      </trkpt>
      <trkpt lat="42.76582" lon="1.40282">
        <ele>1996.8</ele>
        <time>2018-06-24T06:07:06Z</time>
      </trkpt>
      <trkpt lat="42.76574" lon="1.40276">
        <ele>1997.28</ele>
        <time>2018-06-24T06:07:17Z</time>
      </trkpt>
      <trkpt lat="42.76567" lon="1.40268">
        <ele>1998.24</ele>
        <time>2018-06-24T06:07:29Z</time>
      </trkpt>
      <trkpt lat="42.76564" lon="1.40256">
        <ele>2000.16</ele>
        <time>2018-06-24T06:07:42Z</time>
      </trkpt>
      <trkpt lat="42.76559" lon="1.40245">
        <ele>2001.12</ele>
        <time>2018-06-24T06:07:55Z</time>
      </trkpt>
      <trkpt lat="42.76553" lon="1.40235">
        <ele>2003.04</ele>
        <time>2018-06-24T06:08:11Z</time>
      </trkpt>
      <trkpt lat="42.76545" lon="1.40227">
        <ele>2004.97</ele>
        <time>2018-06-24T06:08:24Z</time>
      </trkpt>
      <trkpt lat="42.7654" lon="1.40216">
        <ele>2007.85</ele>
        <time>2018-06-24T06:08:40Z</time>
      </trkpt>
      <trkpt lat="42.76536" lon="1.40203">
        <ele>2009.29</ele>
        <time>2018-06-24T06:08:55Z</time>
      </trkpt>
      <trkpt lat="42.76532" lon="1.40192">
        <ele>2011.7</ele>
        <time>2018-06-24T06:09:11Z</time>
      </trkpt>
      <trkpt lat="42.76527" lon="1.40182">
        <ele>2014.1</ele>
        <time>2018-06-24T06:09:26Z</time>
      </trkpt>
      <trkpt lat="42.76518" lon="1.40177">
        <ele>2015.06</ele>
        <time>2018-06-24T06:09:42Z</time>
      </trkpt>
      <trkpt lat="42.76515" lon="1.40166">
        <ele>2017.46</ele>
        <time>2018-06-24T06:10:00Z</time>
      </trkpt>
      <trkpt lat="42.76511" lon="1.40155">
        <ele>2020.35</ele>
        <time>2018-06-24T06:10:23Z</time>
      </trkpt>
      <trkpt lat="42.76508" lon="1.40144">
        <ele>2023.23</ele>
        <time>2018-06-24T06:10:50Z</time>
      </trkpt>
      <trkpt lat="42.76502" lon="1.40131">
        <ele>2028.04</ele>
        <time>2018-06-24T06:11:20Z</time>
      </trkpt>
      <trkpt lat="42.76496" lon="1.40119">
        <ele>2031.4</ele>
        <time>2018-06-24T06:11:50Z</time>
      </trkpt>
      <trkpt lat="42.76491" lon="1.40109">
        <ele>2035.25</ele>
        <time>2018-06-24T06:12:16Z</time>
      </trkpt>
      <trkpt lat="42.76486" lon="1.40096">
        <ele>2037.65</ele>
        <time>2018-06-24T06:12:40Z</time>
      </trkpt>
      <trkpt lat="42.7648" lon="1.40086">
        <ele>2039.09</ele>
        <time>2018-06-24T06:12:59Z</time>
      </trkpt>
      <trkpt lat="42.76476" lon="1.40076">
        <ele>2041.98</ele>
        <time>2018-06-24T06:13:19Z</time>
      </trkpt>
      <trkpt lat="42.76472" lon="1.40064">
        <ele>2043.42</ele>
        <time>2018-06-24T06:13:39Z</time>
      </trkpt>
      <trkpt lat="42.76472" lon="1.40053">
        <ele>2045.82</ele>
        <time>2018-06-24T06:13:56Z</time>
      </trkpt>
      <trkpt lat="42.7647" lon="1.40041">
        <ele>2047.75</ele>
        <time>2018-06-24T06:14:13Z</time>
      </trkpt>
      <trkpt lat="42.76465" lon="1.40029">
        <ele>2050.15</ele>
        <time>2018-06-24T06:14:32Z</time>
      </trkpt>
      <trkpt lat="42.76461" lon="1.40018">
        <ele>2053.51</ele>
        <time>2018-06-24T06:14:50Z</time>
      </trkpt>
      <trkpt lat="42.76461" lon="1.40006">
        <ele>2055.44</ele>
        <time>2018-06-24T06:15:06Z</time>
      </trkpt>
      <trkpt lat="42.76454" lon="1.39997">
        <ele>2059.76</ele>
        <time>2018-06-24T06:15:27Z</time>
      </trkpt>
      <trkpt lat="42.76449" lon="1.39988">
        <ele>2062.17</ele>
        <time>2018-06-24T06:15:45Z</time>
      </trkpt>
      <trkpt lat="42.76447" lon="1.39978">
        <ele>2063.13</ele>
        <time>2018-06-24T06:16:08Z</time>
      </trkpt>
      <trkpt lat="42.7644" lon="1.39975">
        <ele>2061.2</ele>
        <time>2018-06-24T06:16:23Z</time>
      </trkpt>
      <trkpt lat="42.76433" lon="1.39984">
        <ele>2058.32</ele>
        <time>2018-06-24T06:16:42Z</time>
      </trkpt>
      <trkpt lat="42.76426" lon="1.3999">
        <ele>2054.47</ele>
        <time>2018-06-24T06:16:59Z</time>
      </trkpt>
      <trkpt lat="42.76417" lon="1.3999">
        <ele>2052.55</ele>
        <time>2018-06-24T06:17:09Z</time>
      </trkpt>
      <trkpt lat="42.76408" lon="1.39989">
        <ele>2050.63</ele>
        <time>2018-06-24T06:17:18Z</time>
      </trkpt>
      <trkpt lat="42.76398" lon="1.3999">
        <ele>2048.71</ele>
        <time>2018-06-24T06:17:27Z</time>
      </trkpt>
      <trkpt lat="42.76388" lon="1.39989">
        <ele>2048.71</ele>
        <time>2018-06-24T06:17:36Z</time>
      </trkpt>
      <trkpt lat="42.76379" lon="1.39989">
        <ele>2047.75</ele>
        <time>2018-06-24T06:17:44Z</time>
      </trkpt>
      <trkpt lat="42.76371" lon="1.39984">
        <ele>2048.23</ele>
        <time>2018-06-24T06:17:52Z</time>
      </trkpt>
      <trkpt lat="42.76361" lon="1.39982">
        <ele>2049.67</ele>
        <time>2018-06-24T06:18:01Z</time>
      </trkpt>
      <trkpt lat="42.76352" lon="1.39981">
        <ele>2050.15</ele>
        <time>2018-06-24T06:18:11Z</time>
      </trkpt>
      <trkpt lat="42.76344" lon="1.39981">
        <ele>2050.63</ele>
        <time>2018-06-24T06:18:23Z</time>
      </trkpt>
      <trkpt lat="42.76335" lon="1.39983">
        <ele>2048.23</ele>
        <time>2018-06-24T06:18:36Z</time>
      </trkpt>
      <trkpt lat="42.76325" lon="1.3998">
        <ele>2047.75</ele>
        <time>2018-06-24T06:18:46Z</time>
      </trkpt>
      <trkpt lat="42.76316" lon="1.39982">
        <ele>2045.34</ele>
        <time>2018-06-24T06:19:00Z</time>
      </trkpt>
      <trkpt lat="42.76308" lon="1.39985">
        <ele>2043.9</ele>
        <time>2018-06-24T06:19:17Z</time>
      </trkpt>
      <trkpt lat="42.76298" lon="1.39987">
        <ele>2041.98</ele>
        <time>2018-06-24T06:19:40Z</time>
      </trkpt>
      <trkpt lat="42.76289" lon="1.39983">
        <ele>2041.98</ele>
        <time>2018-06-24T06:19:52Z</time>
      </trkpt>
      <trkpt lat="42.7628" lon="1.39979">
        <ele>2041.98</ele>
        <time>2018-06-24T06:20:06Z</time>
      </trkpt>
      <trkpt lat="42.76268" lon="1.39974">
        <ele>2041.02</ele>
        <time>2018-06-24T06:20:20Z</time>
      </trkpt>
      <trkpt lat="42.76259" lon="1.3997">
        <ele>2041.5</ele>
        <time>2018-06-24T06:20:31Z</time>
      </trkpt>
      <trkpt lat="42.76249" lon="1.39972">
        <ele>2039.57</ele>
        <time>2018-06-24T06:20:47Z</time>
      </trkpt>
      <trkpt lat="42.76241" lon="1.39971">
        <ele>2039.09</ele>
        <time>2018-06-24T06:21:01Z</time>
      </trkpt>
      <trkpt lat="42.76233" lon="1.39972">
        <ele>2036.69</ele>
        <time>2018-06-24T06:21:16Z</time>
      </trkpt>
      <trkpt lat="42.76224" lon="1.39971">
        <ele>2034.77</ele>
        <time>2018-06-24T06:21:28Z</time>
      </trkpt>
      <trkpt lat="42.76215" lon="1.3997">
        <ele>2033.81</ele>
        <time>2018-06-24T06:21:38Z</time>
      </trkpt>
      <trkpt lat="42.76206" lon="1.3997">
        <ele>2033.81</ele>
        <time>2018-06-24T06:21:46Z</time>
      </trkpt>
      <trkpt lat="42.76198" lon="1.3997">
        <ele>2033.81</ele>
        <time>2018-06-24T06:21:55Z</time>
      </trkpt>
      <trkpt lat="42.76189" lon="1.39971">
        <ele>2031.4</ele>
        <time>2018-06-24T06:22:11Z</time>
      </trkpt>
      <trkpt lat="42.7618" lon="1.3997">
        <ele>2029</ele>
        <time>2018-06-24T06:22:20Z</time>
      </trkpt>
      <trkpt lat="42.7617" lon="1.39971">
        <ele>2029</ele>
        <time>2018-06-24T06:22:31Z</time>
      </trkpt>
      <trkpt lat="42.76161" lon="1.39968">
        <ele>2028.04</ele>
        <time>2018-06-24T06:22:39Z</time>
      </trkpt>
      <trkpt lat="42.7615" lon="1.39966">
        <ele>2028.04</ele>
        <time>2018-06-24T06:22:48Z</time>
      </trkpt>
      <trkpt lat="42.7614" lon="1.39963">
        <ele>2028.52</ele>
        <time>2018-06-24T06:22:57Z</time>
      </trkpt>
      <trkpt lat="42.7613" lon="1.39958">
        <ele>2029</ele>
        <time>2018-06-24T06:23:07Z</time>
      </trkpt>
      <trkpt lat="42.76122" lon="1.39955">
        <ele>2029.96</ele>
        <time>2018-06-24T06:23:20Z</time>
      </trkpt>
      <trkpt lat="42.76113" lon="1.39949">
        <ele>2032.84</ele>
        <time>2018-06-24T06:23:33Z</time>
      </trkpt>
      <trkpt lat="42.76104" lon="1.39947">
        <ele>2034.77</ele>
        <time>2018-06-24T06:23:45Z</time>
      </trkpt>
      <trkpt lat="42.76094" lon="1.39945">
        <ele>2035.25</ele>
        <time>2018-06-24T06:23:55Z</time>
      </trkpt>
      <trkpt lat="42.76084" lon="1.39944">
        <ele>2035.73</ele>
        <time>2018-06-24T06:24:04Z</time>
      </trkpt>
      <trkpt lat="42.76075" lon="1.39943">
        <ele>2036.21</ele>
        <time>2018-06-24T06:24:13Z</time>
      </trkpt>
      <trkpt lat="42.76065" lon="1.39941">
        <ele>2037.65</ele>
        <time>2018-06-24T06:24:23Z</time>
      </trkpt>
      <trkpt lat="42.76055" lon="1.39939">
        <ele>2037.65</ele>
        <time>2018-06-24T06:24:33Z</time>
      </trkpt>
      <trkpt lat="42.76045" lon="1.39938">
        <ele>2040.05</ele>
        <time>2018-06-24T06:24:44Z</time>
      </trkpt>
      <trkpt lat="42.76036" lon="1.39938">
        <ele>2041.02</ele>
        <time>2018-06-24T06:24:55Z</time>
      </trkpt>
      <trkpt lat="42.76026" lon="1.39937">
        <ele>2043.42</ele>
        <time>2018-06-24T06:25:07Z</time>
      </trkpt>
      <trkpt lat="42.76016" lon="1.39935">
        <ele>2045.34</ele>
        <time>2018-06-24T06:25:21Z</time>
      </trkpt>
      <trkpt lat="42.76006" lon="1.39931">
        <ele>2046.78</ele>
        <time>2018-06-24T06:25:36Z</time>
      </trkpt>
      <trkpt lat="42.75996" lon="1.39933">
        <ele>2049.67</ele>
        <time>2018-06-24T06:25:53Z</time>
      </trkpt>
      <trkpt lat="42.75985" lon="1.39931">
        <ele>2051.11</ele>
        <time>2018-06-24T06:26:08Z</time>
      </trkpt>
      <trkpt lat="42.75976" lon="1.39932">
        <ele>2053.99</ele>
        <time>2018-06-24T06:26:24Z</time>
      </trkpt>
      <trkpt lat="42.75966" lon="1.39932">
        <ele>2054.47</ele>
        <time>2018-06-24T06:26:37Z</time>
      </trkpt>
      <trkpt lat="42.75957" lon="1.39933">
        <ele>2057.84</ele>
        <time>2018-06-24T06:26:51Z</time>
      </trkpt>
      <trkpt lat="42.75948" lon="1.39931">
        <ele>2057.36</ele>
        <time>2018-06-24T06:28:01Z</time>
      </trkpt>
      <trkpt lat="42.7594" lon="1.39929">
        <ele>2058.8</ele>
        <time>2018-06-24T06:28:13Z</time>
      </trkpt>
      <trkpt lat="42.75931" lon="1.39935">
        <ele>2059.76</ele>
        <time>2018-06-24T06:28:25Z</time>
      </trkpt>
      <trkpt lat="42.75923" lon="1.39938">
        <ele>2060.72</ele>
        <time>2018-06-24T06:28:38Z</time>
      </trkpt>
      <trkpt lat="42.75914" lon="1.39937">
        <ele>2061.68</ele>
        <time>2018-06-24T06:28:53Z</time>
      </trkpt>
      <trkpt lat="42.75908" lon="1.39928">
        <ele>2062.65</ele>
        <time>2018-06-24T06:29:05Z</time>
      </trkpt>
      <trkpt lat="42.75905" lon="1.39917">
        <ele>2062.65</ele>
        <time>2018-06-24T06:29:16Z</time>
      </trkpt>
      <trkpt lat="42.75896" lon="1.3991">
        <ele>2063.61</ele>
        <time>2018-06-24T06:29:28Z</time>
      </trkpt>
      <trkpt lat="42.75888" lon="1.39903">
        <ele>2064.09</ele>
        <time>2018-06-24T06:29:39Z</time>
      </trkpt>
      <trkpt lat="42.7588" lon="1.39898">
        <ele>2065.53</ele>
        <time>2018-06-24T06:29:50Z</time>
      </trkpt>
      <trkpt lat="42.7587" lon="1.39893">
        <ele>2066.97</ele>
        <time>2018-06-24T06:30:04Z</time>
      </trkpt>
      <trkpt lat="42.75862" lon="1.39886">
        <ele>2067.93</ele>
        <time>2018-06-24T06:30:16Z</time>
      </trkpt>
      <trkpt lat="42.75855" lon="1.3988">
        <ele>2068.41</ele>
        <time>2018-06-24T06:30:27Z</time>
      </trkpt>
      <trkpt lat="42.75846" lon="1.39875">
        <ele>2070.34</ele>
        <time>2018-06-24T06:30:40Z</time>
      </trkpt>
      <trkpt lat="42.75838" lon="1.39867">
        <ele>2071.3</ele>
        <time>2018-06-24T06:30:53Z</time>
      </trkpt>
      <trkpt lat="42.7583" lon="1.39861">
        <ele>2072.26</ele>
        <time>2018-06-24T06:31:04Z</time>
      </trkpt>
      <trkpt lat="42.75822" lon="1.39854">
        <ele>2073.22</ele>
        <time>2018-06-24T06:31:16Z</time>
      </trkpt>
      <trkpt lat="42.75815" lon="1.39845">
        <ele>2073.7</ele>
        <time>2018-06-24T06:31:28Z</time>
      </trkpt>
      <trkpt lat="42.75808" lon="1.39836">
        <ele>2075.62</ele>
        <time>2018-06-24T06:31:39Z</time>
      </trkpt>
      <trkpt lat="42.75803" lon="1.39827">
        <ele>2077.55</ele>
        <time>2018-06-24T06:31:52Z</time>
      </trkpt>
      <trkpt lat="42.75798" lon="1.39815">
        <ele>2078.51</ele>
        <time>2018-06-24T06:32:07Z</time>
      </trkpt>
      <trkpt lat="42.75798" lon="1.39803">
        <ele>2081.87</ele>
        <time>2018-06-24T06:32:25Z</time>
      </trkpt>
      <trkpt lat="42.75793" lon="1.39795">
        <ele>2084.28</ele>
        <time>2018-06-24T06:32:43Z</time>
      </trkpt>
      <trkpt lat="42.75784" lon="1.39798">
        <ele>2086.2</ele>
        <time>2018-06-24T06:32:59Z</time>
      </trkpt>
      <trkpt lat="42.75777" lon="1.39792">
        <ele>2088.12</ele>
        <time>2018-06-24T06:33:15Z</time>
      </trkpt>
      <trkpt lat="42.75769" lon="1.39785">
        <ele>2090.52</ele>
        <time>2018-06-24T06:33:30Z</time>
      </trkpt>
      <trkpt lat="42.75762" lon="1.39776">
        <ele>2091.97</ele>
        <time>2018-06-24T06:33:47Z</time>
      </trkpt>
      <trkpt lat="42.75757" lon="1.39766">
        <ele>2094.85</ele>
        <time>2018-06-24T06:34:08Z</time>
      </trkpt>
      <trkpt lat="42.7575" lon="1.39763">
        <ele>2098.7</ele>
        <time>2018-06-24T06:34:26Z</time>
      </trkpt>
      <trkpt lat="42.7574" lon="1.39757">
        <ele>2100.14</ele>
        <time>2018-06-24T06:34:47Z</time>
      </trkpt>
      <trkpt lat="42.75735" lon="1.39747">
        <ele>2101.58</ele>
        <time>2018-06-24T06:35:01Z</time>
      </trkpt>
      <trkpt lat="42.75728" lon="1.39741">
        <ele>2103.02</ele>
        <time>2018-06-24T06:35:17Z</time>
      </trkpt>
      <trkpt lat="42.75722" lon="1.39732">
        <ele>2104.94</ele>
        <time>2018-06-24T06:35:36Z</time>
      </trkpt>
      <trkpt lat="42.75716" lon="1.39721">
        <ele>2109.75</ele>
        <time>2018-06-24T06:36:03Z</time>
      </trkpt>
      <trkpt lat="42.75711" lon="1.3971">
        <ele>2113.6</ele>
        <time>2018-06-24T06:36:34Z</time>
      </trkpt>
      <trkpt lat="42.75705" lon="1.39702">
        <ele>2116.96</ele>
        <time>2018-06-24T06:36:57Z</time>
      </trkpt>
      <trkpt lat="42.75699" lon="1.39692">
        <ele>2122.25</ele>
        <time>2018-06-24T06:37:29Z</time>
      </trkpt>
      <trkpt lat="42.75694" lon="1.39686">
        <ele>2124.65</ele>
        <time>2018-06-24T06:37:52Z</time>
      </trkpt>
      <trkpt lat="42.75694" lon="1.39673">
        <ele>2129.46</ele>
        <time>2018-06-24T06:38:29Z</time>
      </trkpt>
      <trkpt lat="42.75691" lon="1.39663">
        <ele>2133.3</ele>
        <time>2018-06-24T06:38:53Z</time>
      </trkpt>
      <trkpt lat="42.75682" lon="1.39658">
        <ele>2136.19</ele>
        <time>2018-06-24T06:39:17Z</time>
      </trkpt>
      <trkpt lat="42.75672" lon="1.39658">
        <ele>2139.55</ele>
        <time>2018-06-24T06:39:46Z</time>
      </trkpt>
      <trkpt lat="42.75662" lon="1.39659">
        <ele>2141.47</ele>
        <time>2018-06-24T06:40:06Z</time>
      </trkpt>
      <trkpt lat="42.75652" lon="1.39655">
        <ele>2141.47</ele>
        <time>2018-06-24T06:40:22Z</time>
      </trkpt>
      <trkpt lat="42.75643" lon="1.39652">
        <ele>2141.47</ele>
        <time>2018-06-24T06:40:38Z</time>
      </trkpt>
      <trkpt lat="42.75634" lon="1.39656">
        <ele>2140.51</ele>
        <time>2018-06-24T06:40:55Z</time>
      </trkpt>
      <trkpt lat="42.75623" lon="1.39661">
        <ele>2138.11</ele>
        <time>2018-06-24T06:41:12Z</time>
      </trkpt>
      <trkpt lat="42.75618" lon="1.39666">
        <ele>2135.71</ele>
        <time>2018-06-24T06:41:28Z</time>
      </trkpt>
      <trkpt lat="42.75608" lon="1.39666">
        <ele>2134.74</ele>
        <time>2018-06-24T06:41:38Z</time>
      </trkpt>
      <trkpt lat="42.75599" lon="1.39666">
        <ele>2135.71</ele>
        <time>2018-06-24T06:41:56Z</time>
      </trkpt>
      <trkpt lat="42.75589" lon="1.39667">
        <ele>2134.74</ele>
        <time>2018-06-24T06:42:07Z</time>
      </trkpt>
      <trkpt lat="42.7558" lon="1.39673">
        <ele>2134.74</ele>
        <time>2018-06-24T06:42:34Z</time>
      </trkpt>
      <trkpt lat="42.75572" lon="1.39672">
        <ele>2137.15</ele>
        <time>2018-06-24T06:42:47Z</time>
      </trkpt>
      <trkpt lat="42.75563" lon="1.39671">
        <ele>2139.07</ele>
        <time>2018-06-24T06:43:04Z</time>
      </trkpt>
      <trkpt lat="42.75553" lon="1.39671">
        <ele>2143.88</ele>
        <time>2018-06-24T06:43:28Z</time>
      </trkpt>
      <trkpt lat="42.75545" lon="1.39673">
        <ele>2147.24</ele>
        <time>2018-06-24T06:43:51Z</time>
      </trkpt>
      <trkpt lat="42.75534" lon="1.39676">
        <ele>2149.16</ele>
        <time>2018-06-24T06:44:19Z</time>
      </trkpt>
      <trkpt lat="42.75525" lon="1.39671">
        <ele>2150.13</ele>
        <time>2018-06-24T06:44:38Z</time>
      </trkpt>
      <trkpt lat="42.75517" lon="1.39664">
        <ele>2151.57</ele>
        <time>2018-06-24T06:44:53Z</time>
      </trkpt>
      <trkpt lat="42.75508" lon="1.39665">
        <ele>2153.97</ele>
        <time>2018-06-24T06:45:11Z</time>
      </trkpt>
      <trkpt lat="42.75501" lon="1.39664">
        <ele>2154.45</ele>
        <time>2018-06-24T06:45:28Z</time>
      </trkpt>
      <trkpt lat="42.75492" lon="1.39663">
        <ele>2155.89</ele>
        <time>2018-06-24T06:45:48Z</time>
      </trkpt>
      <trkpt lat="42.75483" lon="1.39666">
        <ele>2156.37</ele>
        <time>2018-06-24T06:46:03Z</time>
      </trkpt>
      <trkpt lat="42.75475" lon="1.39668">
        <ele>2158.3</ele>
        <time>2018-06-24T06:46:20Z</time>
      </trkpt>
      <trkpt lat="42.75464" lon="1.39669">
        <ele>2159.26</ele>
        <time>2018-06-24T06:46:39Z</time>
      </trkpt>
      <trkpt lat="42.75456" lon="1.39673">
        <ele>2160.7</ele>
        <time>2018-06-24T06:46:59Z</time>
      </trkpt>
      <trkpt lat="42.75446" lon="1.39673">
        <ele>2162.14</ele>
        <time>2018-06-24T06:47:20Z</time>
      </trkpt>
      <trkpt lat="42.75437" lon="1.39678">
        <ele>2164.55</ele>
        <time>2018-06-24T06:47:38Z</time>
      </trkpt>
      <trkpt lat="42.75429" lon="1.39683">
        <ele>2165.99</ele>
        <time>2018-06-24T06:47:55Z</time>
      </trkpt>
      <trkpt lat="42.75419" lon="1.39679">
        <ele>2169.83</ele>
        <time>2018-06-24T06:48:15Z</time>
      </trkpt>
      <trkpt lat="42.75411" lon="1.39674">
        <ele>2171.27</ele>
        <time>2018-06-24T06:48:32Z</time>
      </trkpt>
      <trkpt lat="42.75402" lon="1.39675">
        <ele>2174.64</ele>
        <time>2018-06-24T06:48:58Z</time>
      </trkpt>
      <trkpt lat="42.75394" lon="1.39665">
        <ele>2178</ele>
        <time>2018-06-24T06:49:20Z</time>
      </trkpt>
      <trkpt lat="42.75387" lon="1.3966">
        <ele>2179.45</ele>
        <time>2018-06-24T06:49:42Z</time>
      </trkpt>
      <trkpt lat="42.7538" lon="1.39656">
        <ele>2181.85</ele>
        <time>2018-06-24T06:50:22Z</time>
      </trkpt>
      <trkpt lat="42.75374" lon="1.39645">
        <ele>2188.58</ele>
        <time>2018-06-24T06:51:11Z</time>
      </trkpt>
      <trkpt lat="42.75365" lon="1.39636">
        <ele>2191.94</ele>
        <time>2018-06-24T06:52:05Z</time>
      </trkpt>
      <trkpt lat="42.75354" lon="1.39636">
        <ele>2190.98</ele>
        <time>2018-06-24T06:52:41Z</time>
      </trkpt>
      <trkpt lat="42.75342" lon="1.3963">
        <ele>2190.5</ele>
        <time>2018-06-24T06:53:04Z</time>
      </trkpt>
      <trkpt lat="42.75333" lon="1.39626">
        <ele>2193.39</ele>
        <time>2018-06-24T06:53:36Z</time>
      </trkpt>
      <trkpt lat="42.75326" lon="1.39616">
        <ele>2194.83</ele>
        <time>2018-06-24T06:53:54Z</time>
      </trkpt>
      <trkpt lat="42.75319" lon="1.3961">
        <ele>2196.75</ele>
        <time>2018-06-24T06:54:26Z</time>
      </trkpt>
      <trkpt lat="42.7531" lon="1.39606">
        <ele>2196.75</ele>
        <time>2018-06-24T06:54:54Z</time>
      </trkpt>
      <trkpt lat="42.75304" lon="1.396">
        <ele>2200.11</ele>
        <time>2018-06-24T06:55:21Z</time>
      </trkpt>
      <trkpt lat="42.75296" lon="1.39592">
        <ele>2201.08</ele>
        <time>2018-06-24T06:55:39Z</time>
      </trkpt>
      <trkpt lat="42.75286" lon="1.39592">
        <ele>2200.11</ele>
        <time>2018-06-24T06:56:03Z</time>
      </trkpt>
      <trkpt lat="42.75277" lon="1.39588">
        <ele>2202.04</ele>
        <time>2018-06-24T06:56:21Z</time>
      </trkpt>
      <trkpt lat="42.75267" lon="1.3959">
        <ele>2204.44</ele>
        <time>2018-06-24T06:56:39Z</time>
      </trkpt>
      <trkpt lat="42.75257" lon="1.39588">
        <ele>2206.84</ele>
        <time>2018-06-24T06:56:59Z</time>
      </trkpt>
      <trkpt lat="42.75248" lon="1.39582">
        <ele>2209.73</ele>
        <time>2018-06-24T06:57:27Z</time>
      </trkpt>
      <trkpt lat="42.75239" lon="1.39584">
        <ele>2211.17</ele>
        <time>2018-06-24T06:57:55Z</time>
      </trkpt>
      <trkpt lat="42.75233" lon="1.39576">
        <ele>2213.57</ele>
        <time>2018-06-24T06:58:35Z</time>
      </trkpt>
      <trkpt lat="42.75224" lon="1.3957">
        <ele>2214.05</ele>
        <time>2018-06-24T06:59:04Z</time>
      </trkpt>
      <trkpt lat="42.75216" lon="1.39564">
        <ele>2215.5</ele>
        <time>2018-06-24T06:59:38Z</time>
      </trkpt>
      <trkpt lat="42.75205" lon="1.39558">
        <ele>2215.98</ele>
        <time>2018-06-24T07:00:29Z</time>
      </trkpt>
      <trkpt lat="42.75201" lon="1.39559">
        <ele>2214.53</ele>
        <time>2018-06-24T07:01:00Z</time>
      </trkpt>
      <trkpt lat="42.75206" lon="1.39554">
        <ele>2215.01</ele>
        <time>2018-06-24T07:11:11Z</time>
      </trkpt>
      <trkpt lat="42.75193" lon="1.39547">
        <ele>2216.46</ele>
        <time>2018-06-24T07:12:24Z</time>
      </trkpt>
      <trkpt lat="42.75193" lon="1.39537">
        <ele>2221.26</ele>
        <time>2018-06-24T07:13:09Z</time>
      </trkpt>
      <trkpt lat="42.75186" lon="1.39529">
        <ele>2222.71</ele>
        <time>2018-06-24T07:13:44Z</time>
      </trkpt>
      <trkpt lat="42.7518" lon="1.39517">
        <ele>2226.07</ele>
        <time>2018-06-24T07:14:13Z</time>
      </trkpt>
      <trkpt lat="42.75175" lon="1.39509">
        <ele>2229.43</ele>
        <time>2018-06-24T07:14:52Z</time>
      </trkpt>
      <trkpt lat="42.75169" lon="1.39506">
        <ele>2231.36</ele>
        <time>2018-06-24T07:15:30Z</time>
      </trkpt>
      <trkpt lat="42.75158" lon="1.39499">
        <ele>2235.68</ele>
        <time>2018-06-24T07:16:38Z</time>
      </trkpt>
      <trkpt lat="42.75145" lon="1.39496">
        <ele>2238.57</ele>
        <time>2018-06-24T07:17:30Z</time>
      </trkpt>
      <trkpt lat="42.75136" lon="1.39488">
        <ele>2240.97</ele>
        <time>2018-06-24T07:17:55Z</time>
      </trkpt>
      <trkpt lat="42.75131" lon="1.39476">
        <ele>2241.45</ele>
        <time>2018-06-24T07:18:16Z</time>
      </trkpt>
      <trkpt lat="42.75126" lon="1.39468">
        <ele>2242.89</ele>
        <time>2018-06-24T07:18:35Z</time>
      </trkpt>
      <trkpt lat="42.7512" lon="1.39457">
        <ele>2243.85</ele>
        <time>2018-06-24T07:18:58Z</time>
      </trkpt>
      <trkpt lat="42.75109" lon="1.39456">
        <ele>2244.82</ele>
        <time>2018-06-24T07:19:22Z</time>
      </trkpt>
      <trkpt lat="42.75097" lon="1.39456">
        <ele>2246.74</ele>
        <time>2018-06-24T07:19:44Z</time>
      </trkpt>
      <trkpt lat="42.75093" lon="1.39451">
        <ele>2248.18</ele>
        <time>2018-06-24T07:20:04Z</time>
      </trkpt>
      <trkpt lat="42.75085" lon="1.39448">
        <ele>2250.1</ele>
        <time>2018-06-24T07:20:24Z</time>
      </trkpt>
      <trkpt lat="42.75076" lon="1.39441">
        <ele>2252.51</ele>
        <time>2018-06-24T07:20:50Z</time>
      </trkpt>
      <trkpt lat="42.75076" lon="1.39424">
        <ele>2256.83</ele>
        <time>2018-06-24T07:21:33Z</time>
      </trkpt>
      <trkpt lat="42.75058" lon="1.39424">
        <ele>2257.79</ele>
        <time>2018-06-24T07:22:00Z</time>
      </trkpt>
      <trkpt lat="42.75047" lon="1.39423">
        <ele>2257.79</ele>
        <time>2018-06-24T07:22:28Z</time>
      </trkpt>
      <trkpt lat="42.75041" lon="1.39417">
        <ele>2257.79</ele>
        <time>2018-06-24T07:22:45Z</time>
      </trkpt>
      <trkpt lat="42.75031" lon="1.39411">
        <ele>2257.31</ele>
        <time>2018-06-24T07:23:04Z</time>
      </trkpt>
      <trkpt lat="42.75027" lon="1.394">
        <ele>2258.27</ele>
        <time>2018-06-24T07:23:23Z</time>
      </trkpt>
      <trkpt lat="42.75021" lon="1.39392">
        <ele>2258.75</ele>
        <time>2018-06-24T07:23:43Z</time>
      </trkpt>
      <trkpt lat="42.75019" lon="1.39379">
        <ele>2261.16</ele>
        <time>2018-06-24T07:24:16Z</time>
      </trkpt>
      <trkpt lat="42.75006" lon="1.39372">
        <ele>2266.45</ele>
        <time>2018-06-24T07:25:02Z</time>
      </trkpt>
      <trkpt lat="42.74999" lon="1.39361">
        <ele>2267.41</ele>
        <time>2018-06-24T07:25:29Z</time>
      </trkpt>
      <trkpt lat="42.74993" lon="1.39352">
        <ele>2268.37</ele>
        <time>2018-06-24T07:25:50Z</time>
      </trkpt>
      <trkpt lat="42.74983" lon="1.39346">
        <ele>2268.85</ele>
        <time>2018-06-24T07:26:07Z</time>
      </trkpt>
      <trkpt lat="42.74975" lon="1.39341">
        <ele>2267.89</ele>
        <time>2018-06-24T07:26:24Z</time>
      </trkpt>
      <trkpt lat="42.74966" lon="1.39334">
        <ele>2268.85</ele>
        <time>2018-06-24T07:26:44Z</time>
      </trkpt>
      <trkpt lat="42.7496" lon="1.39321">
        <ele>2272.69</ele>
        <time>2018-06-24T07:27:13Z</time>
      </trkpt>
      <trkpt lat="42.7496" lon="1.39309">
        <ele>2275.1</ele>
        <time>2018-06-24T07:27:42Z</time>
      </trkpt>
      <trkpt lat="42.74945" lon="1.39306">
        <ele>2276.54</ele>
        <time>2018-06-24T07:28:02Z</time>
      </trkpt>
      <trkpt lat="42.74939" lon="1.39298">
        <ele>2277.5</ele>
        <time>2018-06-24T07:28:40Z</time>
      </trkpt>
      <trkpt lat="42.7493" lon="1.3929">
        <ele>2277.98</ele>
        <time>2018-06-24T07:29:00Z</time>
      </trkpt>
      <trkpt lat="42.74921" lon="1.39282">
        <ele>2280.87</ele>
        <time>2018-06-24T07:29:26Z</time>
      </trkpt>
      <trkpt lat="42.74915" lon="1.39272">
        <ele>2284.23</ele>
        <time>2018-06-24T07:29:57Z</time>
      </trkpt>
      <trkpt lat="42.74906" lon="1.39253">
        <ele>2292.4</ele>
        <time>2018-06-24T07:31:21Z</time>
      </trkpt>
      <trkpt lat="42.74902" lon="1.39246">
        <ele>2294.8</ele>
        <time>2018-06-24T07:32:18Z</time>
      </trkpt>
      <trkpt lat="42.7489" lon="1.39245">
        <ele>2294.8</ele>
        <time>2018-06-24T07:33:15Z</time>
      </trkpt>
      <trkpt lat="42.74882" lon="1.39238">
        <ele>2295.77</ele>
        <time>2018-06-24T07:33:42Z</time>
      </trkpt>
      <trkpt lat="42.74871" lon="1.39237">
        <ele>2292.4</ele>
        <time>2018-06-24T07:34:33Z</time>
      </trkpt>
      <trkpt lat="42.74861" lon="1.39238">
        <ele>2290</ele>
        <time>2018-06-24T07:34:55Z</time>
      </trkpt>
      <trkpt lat="42.7485" lon="1.39237">
        <ele>2290</ele>
        <time>2018-06-24T07:35:36Z</time>
      </trkpt>
      <trkpt lat="42.74843" lon="1.39229">
        <ele>2292.4</ele>
        <time>2018-06-24T07:35:57Z</time>
      </trkpt>
      <trkpt lat="42.74835" lon="1.39219">
        <ele>2297.21</ele>
        <time>2018-06-24T07:36:36Z</time>
      </trkpt>
      <trkpt lat="42.74827" lon="1.39222">
        <ele>2296.73</ele>
        <time>2018-06-24T07:37:32Z</time>
      </trkpt>
      <trkpt lat="42.74816" lon="1.39225">
        <ele>2295.77</ele>
        <time>2018-06-24T07:37:50Z</time>
      </trkpt>
      <trkpt lat="42.74806" lon="1.39227">
        <ele>2294.8</ele>
        <time>2018-06-24T07:38:09Z</time>
      </trkpt>
      <trkpt lat="42.74798" lon="1.39228">
        <ele>2293.84</ele>
        <time>2018-06-24T07:38:25Z</time>
      </trkpt>
      <trkpt lat="42.74789" lon="1.39226">
        <ele>2294.32</ele>
        <time>2018-06-24T07:38:43Z</time>
      </trkpt>
      <trkpt lat="42.74781" lon="1.3922">
        <ele>2294.8</ele>
        <time>2018-06-24T07:39:06Z</time>
      </trkpt>
      <trkpt lat="42.74771" lon="1.39216">
        <ele>2295.77</ele>
        <time>2018-06-24T07:39:42Z</time>
      </trkpt>
      <trkpt lat="42.74762" lon="1.39214">
        <ele>2298.17</ele>
        <time>2018-06-24T07:40:07Z</time>
      </trkpt>
      <trkpt lat="42.74759" lon="1.39208">
        <ele>2301.05</ele>
        <time>2018-06-24T07:41:33Z</time>
      </trkpt>
      <trkpt lat="42.74751" lon="1.39206">
        <ele>2304.42</ele>
        <time>2018-06-24T07:41:58Z</time>
      </trkpt>
      <trkpt lat="42.74743" lon="1.39197">
        <ele>2307.78</ele>
        <time>2018-06-24T07:42:36Z</time>
      </trkpt>
      <trkpt lat="42.74735" lon="1.39191">
        <ele>2311.63</ele>
        <time>2018-06-24T07:43:29Z</time>
      </trkpt>
      <trkpt lat="42.74729" lon="1.39184">
        <ele>2313.07</ele>
        <time>2018-06-24T07:43:55Z</time>
      </trkpt>
      <trkpt lat="42.74721" lon="1.39182">
        <ele>2313.55</ele>
        <time>2018-06-24T07:44:15Z</time>
      </trkpt>
      <trkpt lat="42.74711" lon="1.3918">
        <ele>2314.99</ele>
        <time>2018-06-24T07:44:43Z</time>
      </trkpt>
      <trkpt lat="42.74701" lon="1.39178">
        <ele>2316.43</ele>
        <time>2018-06-24T07:45:22Z</time>
      </trkpt>
      <trkpt lat="42.74692" lon="1.39178">
        <ele>2317.88</ele>
        <time>2018-06-24T07:45:51Z</time>
      </trkpt>
      <trkpt lat="42.74679" lon="1.39181">
        <ele>2320.28</ele>
        <time>2018-06-24T07:46:30Z</time>
      </trkpt>
      <trkpt lat="42.7467" lon="1.39184">
        <ele>2322.2</ele>
        <time>2018-06-24T07:47:18Z</time>
      </trkpt>
      <trkpt lat="42.74661" lon="1.39186">
        <ele>2325.09</ele>
        <time>2018-06-24T07:47:55Z</time>
      </trkpt>
      <trkpt lat="42.74652" lon="1.39191">
        <ele>2328.45</ele>
        <time>2018-06-24T07:48:36Z</time>
      </trkpt>
      <trkpt lat="42.74642" lon="1.3919">
        <ele>2334.22</ele>
        <time>2018-06-24T07:49:48Z</time>
      </trkpt>
      <trkpt lat="42.74631" lon="1.39192">
        <ele>2337.58</ele>
        <time>2018-06-24T07:50:47Z</time>
      </trkpt>
      <trkpt lat="42.74622" lon="1.39196">
        <ele>2340.47</ele>
        <time>2018-06-24T07:51:30Z</time>
      </trkpt>
      <trkpt lat="42.74613" lon="1.39201">
        <ele>2340.47</ele>
        <time>2018-06-24T07:52:01Z</time>
      </trkpt>
      <trkpt lat="42.74608" lon="1.3921">
        <ele>2341.43</ele>
        <time>2018-06-24T07:52:19Z</time>
      </trkpt>
      <trkpt lat="42.74598" lon="1.39217">
        <ele>2342.39</ele>
        <time>2018-06-24T07:52:38Z</time>
      </trkpt>
      <trkpt lat="42.74591" lon="1.39222">
        <ele>2343.35</ele>
        <time>2018-06-24T07:52:58Z</time>
      </trkpt>
      <trkpt lat="42.7458" lon="1.39216">
        <ele>2347.2</ele>
        <time>2018-06-24T07:53:31Z</time>
      </trkpt>
      <trkpt lat="42.74569" lon="1.39226">
        <ele>2346.72</ele>
        <time>2018-06-24T07:53:57Z</time>
      </trkpt>
      <trkpt lat="42.74561" lon="1.39225">
        <ele>2348.16</ele>
        <time>2018-06-24T07:58:20Z</time>
      </trkpt>
      <trkpt lat="42.7455" lon="1.39224">
        <ele>2349.12</ele>
        <time>2018-06-24T07:58:46Z</time>
      </trkpt>
      <trkpt lat="42.74539" lon="1.3922">
        <ele>2354.41</ele>
        <time>2018-06-24T07:59:43Z</time>
      </trkpt>
      <trkpt lat="42.74532" lon="1.39222">
        <ele>2355.37</ele>
        <time>2018-06-24T08:00:04Z</time>
      </trkpt>
      <trkpt lat="42.74517" lon="1.39203">
        <ele>2364.02</ele>
        <time>2018-06-24T08:01:08Z</time>
      </trkpt>
      <trkpt lat="42.74523" lon="1.39193">
        <ele>2366.9</ele>
        <time>2018-06-24T08:01:42Z</time>
      </trkpt>
      <trkpt lat="42.74513" lon="1.39191">
        <ele>2370.75</ele>
        <time>2018-06-24T08:02:17Z</time>
      </trkpt>
      <trkpt lat="42.74507" lon="1.39193">
        <ele>2373.63</ele>
        <time>2018-06-24T08:02:45Z</time>
      </trkpt>
      <trkpt lat="42.74493" lon="1.39191">
        <ele>2377</ele>
        <time>2018-06-24T08:03:23Z</time>
      </trkpt>
      <trkpt lat="42.74486" lon="1.39193">
        <ele>2381.32</ele>
        <time>2018-06-24T08:03:57Z</time>
      </trkpt>
      <trkpt lat="42.74472" lon="1.39196">
        <ele>2381.8</ele>
        <time>2018-06-24T08:04:22Z</time>
      </trkpt>
      <trkpt lat="42.74463" lon="1.39195">
        <ele>2386.61</ele>
        <time>2018-06-24T08:04:47Z</time>
      </trkpt>
      <trkpt lat="42.74452" lon="1.39198">
        <ele>2387.09</ele>
        <time>2018-06-24T08:05:06Z</time>
      </trkpt>
      <trkpt lat="42.74443" lon="1.39203">
        <ele>2386.61</ele>
        <time>2018-06-24T08:05:35Z</time>
      </trkpt>
      <trkpt lat="42.74439" lon="1.39213">
        <ele>2385.65</ele>
        <time>2018-06-24T08:06:11Z</time>
      </trkpt>
      <trkpt lat="42.74429" lon="1.39222">
        <ele>2384.21</ele>
        <time>2018-06-24T08:06:33Z</time>
      </trkpt>
      <trkpt lat="42.7442" lon="1.39221">
        <ele>2385.65</ele>
        <time>2018-06-24T08:07:03Z</time>
      </trkpt>
      <trkpt lat="42.7441" lon="1.39218">
        <ele>2388.05</ele>
        <time>2018-06-24T08:07:18Z</time>
      </trkpt>
      <trkpt lat="42.74404" lon="1.3921">
        <ele>2389.97</ele>
        <time>2018-06-24T08:07:34Z</time>
      </trkpt>
      <trkpt lat="42.74396" lon="1.39204">
        <ele>2390.94</ele>
        <time>2018-06-24T08:07:52Z</time>
      </trkpt>
      <trkpt lat="42.74395" lon="1.39197">
        <ele>2392.86</ele>
        <time>2018-06-24T08:08:19Z</time>
      </trkpt>
      <trkpt lat="42.74386" lon="1.39201">
        <ele>2390.94</ele>
        <time>2018-06-24T08:09:07Z</time>
      </trkpt>
      <trkpt lat="42.74377" lon="1.39193">
        <ele>2391.42</ele>
        <time>2018-06-24T08:09:24Z</time>
      </trkpt>
      <trkpt lat="42.74367" lon="1.39189">
        <ele>2391.9</ele>
        <time>2018-06-24T08:09:39Z</time>
      </trkpt>
      <trkpt lat="42.74358" lon="1.39184">
        <ele>2392.86</ele>
        <time>2018-06-24T08:09:55Z</time>
      </trkpt>
      <trkpt lat="42.74349" lon="1.39178">
        <ele>2393.82</ele>
        <time>2018-06-24T08:10:17Z</time>
      </trkpt>
      <trkpt lat="42.74342" lon="1.39172">
        <ele>2395.74</ele>
        <time>2018-06-24T08:10:47Z</time>
      </trkpt>
      <trkpt lat="42.74334" lon="1.39163">
        <ele>2398.15</ele>
        <time>2018-06-24T08:11:12Z</time>
      </trkpt>
      <trkpt lat="42.74327" lon="1.39156">
        <ele>2400.55</ele>
        <time>2018-06-24T08:11:35Z</time>
      </trkpt>
      <trkpt lat="42.7432" lon="1.39151">
        <ele>2402.95</ele>
        <time>2018-06-24T08:12:00Z</time>
      </trkpt>
      <trkpt lat="42.74321" lon="1.39147">
        <ele>2402.47</ele>
        <time>2018-06-24T08:17:26Z</time>
      </trkpt>
      <trkpt lat="42.74321" lon="1.39135">
        <ele>2405.84</ele>
        <time>2018-06-24T08:17:48Z</time>
      </trkpt>
      <trkpt lat="42.74314" lon="1.39128">
        <ele>2409.2</ele>
        <time>2018-06-24T08:18:14Z</time>
      </trkpt>
      <trkpt lat="42.74305" lon="1.39119">
        <ele>2411.12</ele>
        <time>2018-06-24T08:18:38Z</time>
      </trkpt>
      <trkpt lat="42.743" lon="1.39108">
        <ele>2413.05</ele>
        <time>2018-06-24T08:19:03Z</time>
      </trkpt>
      <trkpt lat="42.74292" lon="1.39097">
        <ele>2415.45</ele>
        <time>2018-06-24T08:19:35Z</time>
      </trkpt>
      <trkpt lat="42.74287" lon="1.39089">
        <ele>2417.85</ele>
        <time>2018-06-24T08:20:04Z</time>
      </trkpt>
      <trkpt lat="42.74282" lon="1.39084">
        <ele>2419.3</ele>
        <time>2018-06-24T08:20:27Z</time>
      </trkpt>
      <trkpt lat="42.74269" lon="1.39076">
        <ele>2421.22</ele>
        <time>2018-06-24T08:20:51Z</time>
      </trkpt>
      <trkpt lat="42.74259" lon="1.39071">
        <ele>2421.7</ele>
        <time>2018-06-24T08:21:10Z</time>
      </trkpt>
      <trkpt lat="42.74259" lon="1.39063">
        <ele>2423.62</ele>
        <time>2018-06-24T08:21:31Z</time>
      </trkpt>
      <trkpt lat="42.7425" lon="1.39056">
        <ele>2426.5</ele>
        <time>2018-06-24T08:21:54Z</time>
      </trkpt>
      <trkpt lat="42.74244" lon="1.39047">
        <ele>2428.91</ele>
        <time>2018-06-24T08:22:19Z</time>
      </trkpt>
      <trkpt lat="42.74235" lon="1.39038">
        <ele>2431.31</ele>
        <time>2018-06-24T08:22:58Z</time>
      </trkpt>
      <trkpt lat="42.74229" lon="1.39034">
        <ele>2433.23</ele>
        <time>2018-06-24T08:23:21Z</time>
      </trkpt>
      <trkpt lat="42.74221" lon="1.39026">
        <ele>2435.16</ele>
        <time>2018-06-24T08:23:43Z</time>
      </trkpt>
      <trkpt lat="42.74212" lon="1.39021">
        <ele>2436.6</ele>
        <time>2018-06-24T08:24:05Z</time>
      </trkpt>
      <trkpt lat="42.74203" lon="1.39016">
        <ele>2438.52</ele>
        <time>2018-06-24T08:24:28Z</time>
      </trkpt>
      <trkpt lat="42.74196" lon="1.39007">
        <ele>2441.89</ele>
        <time>2018-06-24T08:25:01Z</time>
      </trkpt>
      <trkpt lat="42.74188" lon="1.38999">
        <ele>2445.25</ele>
        <time>2018-06-24T08:25:48Z</time>
      </trkpt>
      <trkpt lat="42.74178" lon="1.38995">
        <ele>2447.17</ele>
        <time>2018-06-24T08:26:17Z</time>
      </trkpt>
      <trkpt lat="42.74169" lon="1.38991">
        <ele>2449.1</ele>
        <time>2018-06-24T08:27:16Z</time>
      </trkpt>
      <trkpt lat="42.7416" lon="1.3899">
        <ele>2450.54</ele>
        <time>2018-06-24T08:27:31Z</time>
      </trkpt>
      <trkpt lat="42.7415" lon="1.38994">
        <ele>2451.98</ele>
        <time>2018-06-24T08:27:55Z</time>
      </trkpt>
      <trkpt lat="42.74139" lon="1.38998">
        <ele>2451.98</ele>
        <time>2018-06-24T08:28:15Z</time>
      </trkpt>
      <trkpt lat="42.74133" lon="1.39">
        <ele>2454.38</ele>
        <time>2018-06-24T08:28:33Z</time>
      </trkpt>
      <trkpt lat="42.74124" lon="1.39001">
        <ele>2455.82</ele>
        <time>2018-06-24T08:28:52Z</time>
      </trkpt>
      <trkpt lat="42.74116" lon="1.39002">
        <ele>2457.75</ele>
        <time>2018-06-24T08:29:13Z</time>
      </trkpt>
      <trkpt lat="42.74106" lon="1.39003">
        <ele>2460.63</ele>
        <time>2018-06-24T08:29:35Z</time>
      </trkpt>
      <trkpt lat="42.74095" lon="1.39009">
        <ele>2462.07</ele>
        <time>2018-06-24T08:30:26Z</time>
      </trkpt>
      <trkpt lat="42.74087" lon="1.39013">
        <ele>2464.96</ele>
        <time>2018-06-24T08:30:48Z</time>
      </trkpt>
      <trkpt lat="42.74078" lon="1.39015">
        <ele>2467.84</ele>
        <time>2018-06-24T08:31:18Z</time>
      </trkpt>
      <trkpt lat="42.7407" lon="1.39019">
        <ele>2471.21</ele>
        <time>2018-06-24T08:31:48Z</time>
      </trkpt>
      <trkpt lat="42.7406" lon="1.39022">
        <ele>2474.09</ele>
        <time>2018-06-24T08:32:18Z</time>
      </trkpt>
      <trkpt lat="42.74052" lon="1.39023">
        <ele>2477.45</ele>
        <time>2018-06-24T08:32:48Z</time>
      </trkpt>
      <trkpt lat="42.74045" lon="1.39029">
        <ele>2480.34</ele>
        <time>2018-06-24T08:33:32Z</time>
      </trkpt>
      <trkpt lat="42.74036" lon="1.39031">
        <ele>2483.7</ele>
        <time>2018-06-24T08:33:58Z</time>
      </trkpt>
      <trkpt lat="42.74028" lon="1.39038">
        <ele>2484.66</ele>
        <time>2018-06-24T08:34:30Z</time>
      </trkpt>
      <trkpt lat="42.74021" lon="1.39044">
        <ele>2484.66</ele>
        <time>2018-06-24T08:34:45Z</time>
      </trkpt>
      <trkpt lat="42.74015" lon="1.3905">
        <ele>2485.15</ele>
        <time>2018-06-24T08:35:01Z</time>
      </trkpt>
      <trkpt lat="42.74007" lon="1.39059">
        <ele>2485.15</ele>
        <time>2018-06-24T08:35:21Z</time>
      </trkpt>
      <trkpt lat="42.73997" lon="1.39064">
        <ele>2487.07</ele>
        <time>2018-06-24T08:35:44Z</time>
      </trkpt>
      <trkpt lat="42.73988" lon="1.39062">
        <ele>2488.51</ele>
        <time>2018-06-24T08:36:02Z</time>
      </trkpt>
      <trkpt lat="42.73978" lon="1.39061">
        <ele>2489.95</ele>
        <time>2018-06-24T08:36:23Z</time>
      </trkpt>
      <trkpt lat="42.73969" lon="1.39055">
        <ele>2491.39</ele>
        <time>2018-06-24T08:36:43Z</time>
      </trkpt>
      <trkpt lat="42.7396" lon="1.39053">
        <ele>2492.84</ele>
        <time>2018-06-24T08:37:07Z</time>
      </trkpt>
      <trkpt lat="42.73952" lon="1.3905">
        <ele>2494.76</ele>
        <time>2018-06-24T08:37:29Z</time>
      </trkpt>
      <trkpt lat="42.7394" lon="1.39044">
        <ele>2496.68</ele>
        <time>2018-06-24T08:37:53Z</time>
      </trkpt>
      <trkpt lat="42.73931" lon="1.39039">
        <ele>2498.6</ele>
        <time>2018-06-24T08:38:17Z</time>
      </trkpt>
      <trkpt lat="42.73922" lon="1.39038">
        <ele>2499.57</ele>
        <time>2018-06-24T08:38:39Z</time>
      </trkpt>
      <trkpt lat="42.73911" lon="1.39036">
        <ele>2501.49</ele>
        <time>2018-06-24T08:39:04Z</time>
      </trkpt>
      <trkpt lat="42.73902" lon="1.39037">
        <ele>2503.41</ele>
        <time>2018-06-24T08:39:23Z</time>
      </trkpt>
      <trkpt lat="42.73893" lon="1.3904">
        <ele>2505.33</ele>
        <time>2018-06-24T08:39:43Z</time>
      </trkpt>
      <trkpt lat="42.73885" lon="1.39043">
        <ele>2506.77</ele>
        <time>2018-06-24T08:40:19Z</time>
      </trkpt>
      <trkpt lat="42.73877" lon="1.39048">
        <ele>2509.18</ele>
        <time>2018-06-24T08:40:39Z</time>
      </trkpt>
      <trkpt lat="42.73869" lon="1.39053">
        <ele>2510.14</ele>
        <time>2018-06-24T08:41:01Z</time>
      </trkpt>
      <trkpt lat="42.73862" lon="1.39061">
        <ele>2511.58</ele>
        <time>2018-06-24T08:41:18Z</time>
      </trkpt>
      <trkpt lat="42.73854" lon="1.39068">
        <ele>2512.54</ele>
        <time>2018-06-24T08:41:38Z</time>
      </trkpt>
      <trkpt lat="42.73845" lon="1.39068">
        <ele>2515.43</ele>
        <time>2018-06-24T08:42:23Z</time>
      </trkpt>
      <trkpt lat="42.73838" lon="1.39059">
        <ele>2517.83</ele>
        <time>2018-06-24T08:42:46Z</time>
      </trkpt>
      <trkpt lat="42.73833" lon="1.39051">
        <ele>2521.19</ele>
        <time>2018-06-24T08:43:28Z</time>
      </trkpt>
      <trkpt lat="42.73822" lon="1.39047">
        <ele>2521.19</ele>
        <time>2018-06-24T08:43:47Z</time>
      </trkpt>
      <trkpt lat="42.73813" lon="1.39042">
        <ele>2521.68</ele>
        <time>2018-06-24T08:44:01Z</time>
      </trkpt>
      <trkpt lat="42.73805" lon="1.39043">
        <ele>2522.16</ele>
        <time>2018-06-24T08:44:18Z</time>
      </trkpt>
      <trkpt lat="42.73795" lon="1.39042">
        <ele>2522.64</ele>
        <time>2018-06-24T08:44:33Z</time>
      </trkpt>
      <trkpt lat="42.73789" lon="1.39043">
        <ele>2524.08</ele>
        <time>2018-06-24T08:45:11Z</time>
      </trkpt>
      <trkpt lat="42.73781" lon="1.39044">
        <ele>2525.52</ele>
        <time>2018-06-24T08:45:27Z</time>
      </trkpt>
      <trkpt lat="42.73773" lon="1.39048">
        <ele>2527.92</ele>
        <time>2018-06-24T08:45:45Z</time>
      </trkpt>
      <trkpt lat="42.73763" lon="1.39056">
        <ele>2530.33</ele>
        <time>2018-06-24T08:46:13Z</time>
      </trkpt>
      <trkpt lat="42.73755" lon="1.39063">
        <ele>2532.73</ele>
        <time>2018-06-24T08:46:46Z</time>
      </trkpt>
      <trkpt lat="42.73749" lon="1.39072">
        <ele>2535.61</ele>
        <time>2018-06-24T08:47:43Z</time>
      </trkpt>
      <trkpt lat="42.73742" lon="1.39079">
        <ele>2538.5</ele>
        <time>2018-06-24T08:48:10Z</time>
      </trkpt>
      <trkpt lat="42.73735" lon="1.39087">
        <ele>2541.38</ele>
        <time>2018-06-24T08:48:57Z</time>
      </trkpt>
      <trkpt lat="42.73728" lon="1.39096">
        <ele>2545.23</ele>
        <time>2018-06-24T08:49:41Z</time>
      </trkpt>
      <trkpt lat="42.73722" lon="1.39106">
        <ele>2548.59</ele>
        <time>2018-06-24T08:50:32Z</time>
      </trkpt>
      <trkpt lat="42.73715" lon="1.39116">
        <ele>2551.96</ele>
        <time>2018-06-24T08:51:23Z</time>
      </trkpt>
      <trkpt lat="42.73706" lon="1.39117">
        <ele>2556.76</ele>
        <time>2018-06-24T08:52:37Z</time>
      </trkpt>
      <trkpt lat="42.73702" lon="1.39112">
        <ele>2562.53</ele>
        <time>2018-06-24T08:57:13Z</time>
      </trkpt>
      <trkpt lat="42.73698" lon="1.39116">
        <ele>2565.42</ele>
        <time>2018-06-24T08:57:46Z</time>
      </trkpt>
      <trkpt lat="42.73696" lon="1.39108">
        <ele>2567.34</ele>
        <time>2018-06-24T08:58:11Z</time>
      </trkpt>
      <trkpt lat="42.7369" lon="1.39116">
        <ele>2571.66</ele>
        <time>2018-06-24T08:58:44Z</time>
      </trkpt>
      <trkpt lat="42.73684" lon="1.39116">
        <ele>2574.55</ele>
        <time>2018-06-24T08:59:16Z</time>
      </trkpt>
      <trkpt lat="42.73679" lon="1.39124">
        <ele>2576.95</ele>
        <time>2018-06-24T08:59:51Z</time>
      </trkpt>
      <trkpt lat="42.73674" lon="1.39131">
        <ele>2580.8</ele>
        <time>2018-06-24T09:00:23Z</time>
      </trkpt>
      <trkpt lat="42.73667" lon="1.39143">
        <ele>2583.68</ele>
        <time>2018-06-24T09:00:54Z</time>
      </trkpt>
      <trkpt lat="42.73661" lon="1.39142">
        <ele>2588.49</ele>
        <time>2018-06-24T09:01:28Z</time>
      </trkpt>
      <trkpt lat="42.73654" lon="1.39141">
        <ele>2592.81</ele>
        <time>2018-06-24T09:02:05Z</time>
      </trkpt>
      <trkpt lat="42.73647" lon="1.39151">
        <ele>2596.18</ele>
        <time>2018-06-24T09:02:31Z</time>
      </trkpt>
      <trkpt lat="42.73642" lon="1.39157">
        <ele>2599.54</ele>
        <time>2018-06-24T09:03:24Z</time>
      </trkpt>
      <trkpt lat="42.73636" lon="1.39146">
        <ele>2603.87</ele>
        <time>2018-06-24T09:03:57Z</time>
      </trkpt>
      <trkpt lat="42.7363" lon="1.39143">
        <ele>2606.75</ele>
        <time>2018-06-24T09:04:25Z</time>
      </trkpt>
      <trkpt lat="42.73622" lon="1.39143">
        <ele>2609.64</ele>
        <time>2018-06-24T09:04:55Z</time>
      </trkpt>
      <trkpt lat="42.73615" lon="1.3914">
        <ele>2613.48</ele>
        <time>2018-06-24T09:05:22Z</time>
      </trkpt>
      <trkpt lat="42.73607" lon="1.39144">
        <ele>2616.37</ele>
        <time>2018-06-24T09:05:56Z</time>
      </trkpt>
      <trkpt lat="42.736" lon="1.39146">
        <ele>2620.69</ele>
        <time>2018-06-24T09:06:26Z</time>
      </trkpt>
      <trkpt lat="42.73596" lon="1.39146">
        <ele>2624.06</ele>
        <time>2018-06-24T09:06:53Z</time>
      </trkpt>
      <trkpt lat="42.73587" lon="1.3915">
        <ele>2626.94</ele>
        <time>2018-06-24T09:07:26Z</time>
      </trkpt>
      <trkpt lat="42.73582" lon="1.39159">
        <ele>2631.27</ele>
        <time>2018-06-24T09:07:59Z</time>
      </trkpt>
      <trkpt lat="42.73576" lon="1.39161">
        <ele>2634.63</ele>
        <time>2018-06-24T09:08:30Z</time>
      </trkpt>
      <trkpt lat="42.73567" lon="1.39165">
        <ele>2637.99</ele>
        <time>2018-06-24T09:08:59Z</time>
      </trkpt>
      <trkpt lat="42.73562" lon="1.39176">
        <ele>2640.88</ele>
        <time>2018-06-24T09:09:25Z</time>
      </trkpt>
      <trkpt lat="42.73557" lon="1.39173">
        <ele>2643.76</ele>
        <time>2018-06-24T09:09:54Z</time>
      </trkpt>
      <trkpt lat="42.73549" lon="1.39172">
        <ele>2647.13</ele>
        <time>2018-06-24T09:10:21Z</time>
      </trkpt>
      <trkpt lat="42.7354" lon="1.3917">
        <ele>2650.01</ele>
        <time>2018-06-24T09:10:51Z</time>
      </trkpt>
      <trkpt lat="42.73531" lon="1.39169">
        <ele>2653.38</ele>
        <time>2018-06-24T09:11:18Z</time>
      </trkpt>
      <trkpt lat="42.73522" lon="1.39165">
        <ele>2656.74</ele>
        <time>2018-06-24T09:11:54Z</time>
      </trkpt>
      <trkpt lat="42.73511" lon="1.39158">
        <ele>2662.03</ele>
        <time>2018-06-24T09:12:35Z</time>
      </trkpt>
      <trkpt lat="42.73501" lon="1.39155">
        <ele>2665.87</ele>
        <time>2018-06-24T09:13:07Z</time>
      </trkpt>
      <trkpt lat="42.73493" lon="1.39157">
        <ele>2668.76</ele>
        <time>2018-06-24T09:13:34Z</time>
      </trkpt>
      <trkpt lat="42.73487" lon="1.39166">
        <ele>2671.64</ele>
        <time>2018-06-24T09:13:58Z</time>
      </trkpt>
      <trkpt lat="42.73481" lon="1.39175">
        <ele>2674.04</ele>
        <time>2018-06-24T09:14:43Z</time>
      </trkpt>
      <trkpt lat="42.73482" lon="1.39175">
        <ele>2674.52</ele>
        <time>2018-06-24T09:15:51Z</time>
      </trkpt>
      <trkpt lat="42.73483" lon="1.39176">
        <ele>2675.01</ele>
        <time>2018-06-24T09:19:12Z</time>
      </trkpt>
      <trkpt lat="42.73485" lon="1.3918">
        <ele>2675.49</ele>
        <time>2018-06-24T09:23:05Z</time>
      </trkpt>
      <trkpt lat="42.73481" lon="1.39175">
        <ele>2674.04</ele>
        <time>2018-06-24T09:28:20Z</time>
      </trkpt>
      <trkpt lat="42.73483" lon="1.39177">
        <ele>2673.56</ele>
        <time>2018-06-24T09:30:23Z</time>
      </trkpt>
      <trkpt lat="42.73483" lon="1.39176">
        <ele>2674.04</ele>
        <time>2018-06-24T09:30:51Z</time>
      </trkpt>
      <trkpt lat="42.73481" lon="1.39173">
        <ele>2674.52</ele>
        <time>2018-06-24T09:35:03Z</time>
      </trkpt>
      <trkpt lat="42.73482" lon="1.39167">
        <ele>2674.52</ele>
        <time>2018-06-24T09:35:54Z</time>
      </trkpt>
      <trkpt lat="42.73483" lon="1.39177">
        <ele>2674.04</ele>
        <time>2018-06-24T09:36:12Z</time>
      </trkpt>
      <trkpt lat="42.7349" lon="1.39182">
        <ele>2672.12</ele>
        <time>2018-06-24T09:37:04Z</time>
      </trkpt>
      <trkpt lat="42.7349" lon="1.39189">
        <ele>2671.64</ele>
        <time>2018-06-24T09:38:20Z</time>
      </trkpt>
      <trkpt lat="42.7348" lon="1.39187">
        <ele>2669.72</ele>
        <time>2018-06-24T09:42:54Z</time>
      </trkpt>
      <trkpt lat="42.73476" lon="1.39187">
        <ele>2664.91</ele>
        <time>2018-06-24T09:43:23Z</time>
      </trkpt>
      <trkpt lat="42.73473" lon="1.39191">
        <ele>2661.55</ele>
        <time>2018-06-24T09:44:08Z</time>
      </trkpt>
      <trkpt lat="42.73473" lon="1.39201">
        <ele>2658.66</ele>
        <time>2018-06-24T09:44:37Z</time>
      </trkpt>
      <trkpt lat="42.73464" lon="1.39203">
        <ele>2657.22</ele>
        <time>2018-06-24T09:47:11Z</time>
      </trkpt>
      <trkpt lat="42.73467" lon="1.39199">
        <ele>2658.18</ele>
        <time>2018-06-24T09:51:13Z</time>
      </trkpt>
      <trkpt lat="42.73462" lon="1.39206">
        <ele>2654.82</ele>
        <time>2018-06-24T09:51:31Z</time>
      </trkpt>
      <trkpt lat="42.73455" lon="1.39217">
        <ele>2650.49</ele>
        <time>2018-06-24T09:52:06Z</time>
      </trkpt>
      <trkpt lat="42.73449" lon="1.39228">
        <ele>2643.28</ele>
        <time>2018-06-24T09:53:27Z</time>
      </trkpt>
      <trkpt lat="42.73444" lon="1.39248">
        <ele>2634.63</ele>
        <time>2018-06-24T09:55:55Z</time>
      </trkpt>
      <trkpt lat="42.7344" lon="1.39259">
        <ele>2629.82</ele>
        <time>2018-06-24T09:56:20Z</time>
      </trkpt>
      <trkpt lat="42.73438" lon="1.39269">
        <ele>2625.02</ele>
        <time>2018-06-24T09:56:40Z</time>
      </trkpt>
      <trkpt lat="42.73435" lon="1.39284">
        <ele>2621.65</ele>
        <time>2018-06-24T09:56:58Z</time>
      </trkpt>
      <trkpt lat="42.73434" lon="1.39297">
        <ele>2617.33</ele>
        <time>2018-06-24T09:57:22Z</time>
      </trkpt>
      <trkpt lat="42.73426" lon="1.39297">
        <ele>2613</ele>
        <time>2018-06-24T09:57:59Z</time>
      </trkpt>
      <trkpt lat="42.73419" lon="1.39296">
        <ele>2606.75</ele>
        <time>2018-06-24T09:58:40Z</time>
      </trkpt>
      <trkpt lat="42.73414" lon="1.39305">
        <ele>2600.98</ele>
        <time>2018-06-24T09:59:12Z</time>
      </trkpt>
      <trkpt lat="42.73403" lon="1.39303">
        <ele>2596.66</ele>
        <time>2018-06-24T09:59:50Z</time>
      </trkpt>
      <trkpt lat="42.73395" lon="1.39298">
        <ele>2590.89</ele>
        <time>2018-06-24T10:00:19Z</time>
      </trkpt>
      <trkpt lat="42.73388" lon="1.39293">
        <ele>2587.04</ele>
        <time>2018-06-24T10:00:42Z</time>
      </trkpt>
      <trkpt lat="42.73382" lon="1.39292">
        <ele>2582.24</ele>
        <time>2018-06-24T10:01:07Z</time>
      </trkpt>
      <trkpt lat="42.73375" lon="1.39294">
        <ele>2577.91</ele>
        <time>2018-06-24T10:02:34Z</time>
      </trkpt>
      <trkpt lat="42.73367" lon="1.393">
        <ele>2573.59</ele>
        <time>2018-06-24T10:02:51Z</time>
      </trkpt>
      <trkpt lat="42.73357" lon="1.39308">
        <ele>2567.34</ele>
        <time>2018-06-24T10:03:11Z</time>
      </trkpt>
      <trkpt lat="42.73348" lon="1.39313">
        <ele>2562.05</ele>
        <time>2018-06-24T10:03:30Z</time>
      </trkpt>
      <trkpt lat="42.73339" lon="1.39311">
        <ele>2557.73</ele>
        <time>2018-06-24T10:04:03Z</time>
      </trkpt>
      <trkpt lat="42.7333" lon="1.39307">
        <ele>2555.32</ele>
        <time>2018-06-24T10:04:15Z</time>
      </trkpt>
      <trkpt lat="42.73323" lon="1.39301">
        <ele>2553.4</ele>
        <time>2018-06-24T10:04:27Z</time>
      </trkpt>
      <trkpt lat="42.73314" lon="1.39297">
        <ele>2551.48</ele>
        <time>2018-06-24T10:04:40Z</time>
      </trkpt>
      <trkpt lat="42.73307" lon="1.39293">
        <ele>2549.07</ele>
        <time>2018-06-24T10:04:58Z</time>
      </trkpt>
      <trkpt lat="42.733" lon="1.39287">
        <ele>2546.19</ele>
        <time>2018-06-24T10:05:13Z</time>
      </trkpt>
      <trkpt lat="42.73293" lon="1.3929">
        <ele>2542.82</ele>
        <time>2018-06-24T10:05:42Z</time>
      </trkpt>
      <trkpt lat="42.73284" lon="1.39292">
        <ele>2538.5</ele>
        <time>2018-06-24T10:05:58Z</time>
      </trkpt>
      <trkpt lat="42.73275" lon="1.39295">
        <ele>2533.69</ele>
        <time>2018-06-24T10:06:13Z</time>
      </trkpt>
      <trkpt lat="42.73267" lon="1.39296">
        <ele>2530.33</ele>
        <time>2018-06-24T10:06:47Z</time>
      </trkpt>
      <trkpt lat="42.73259" lon="1.393">
        <ele>2526.48</ele>
        <time>2018-06-24T10:07:02Z</time>
      </trkpt>
      <trkpt lat="42.7325" lon="1.39304">
        <ele>2521.68</ele>
        <time>2018-06-24T10:07:21Z</time>
      </trkpt>
      <trkpt lat="42.73241" lon="1.39307">
        <ele>2516.87</ele>
        <time>2018-06-24T10:07:38Z</time>
      </trkpt>
      <trkpt lat="42.73233" lon="1.39315">
        <ele>2512.54</ele>
        <time>2018-06-24T10:07:54Z</time>
      </trkpt>
      <trkpt lat="42.7323" lon="1.39323">
        <ele>2507.74</ele>
        <time>2018-06-24T10:08:42Z</time>
      </trkpt>
      <trkpt lat="42.73224" lon="1.39332">
        <ele>2504.37</ele>
        <time>2018-06-24T10:08:56Z</time>
      </trkpt>
      <trkpt lat="42.73218" lon="1.39341">
        <ele>2499.57</ele>
        <time>2018-06-24T10:09:12Z</time>
      </trkpt>
      <trkpt lat="42.73212" lon="1.3935">
        <ele>2495.72</ele>
        <time>2018-06-24T10:09:27Z</time>
      </trkpt>
      <trkpt lat="42.73208" lon="1.39361">
        <ele>2491.87</ele>
        <time>2018-06-24T10:09:53Z</time>
      </trkpt>
      <trkpt lat="42.73205" lon="1.39373">
        <ele>2489.47</ele>
        <time>2018-06-24T10:10:05Z</time>
      </trkpt>
      <trkpt lat="42.73202" lon="1.39382">
        <ele>2486.11</ele>
        <time>2018-06-24T10:10:20Z</time>
      </trkpt>
      <trkpt lat="42.73199" lon="1.39395">
        <ele>2482.74</ele>
        <time>2018-06-24T10:10:36Z</time>
      </trkpt>
      <trkpt lat="42.73196" lon="1.39407">
        <ele>2479.38</ele>
        <time>2018-06-24T10:10:50Z</time>
      </trkpt>
      <trkpt lat="42.73191" lon="1.39415">
        <ele>2476.49</ele>
        <time>2018-06-24T10:11:04Z</time>
      </trkpt>
      <trkpt lat="42.73185" lon="1.39421">
        <ele>2471.69</ele>
        <time>2018-06-24T10:11:19Z</time>
      </trkpt>
      <trkpt lat="42.73184" lon="1.39436">
        <ele>2469.28</ele>
        <time>2018-06-24T10:11:32Z</time>
      </trkpt>
      <trkpt lat="42.73179" lon="1.39455">
        <ele>2466.88</ele>
        <time>2018-06-24T10:11:47Z</time>
      </trkpt>
      <trkpt lat="42.73175" lon="1.39459">
        <ele>2462.55</ele>
        <time>2018-06-24T10:12:01Z</time>
      </trkpt>
      <trkpt lat="42.73171" lon="1.39464">
        <ele>2459.19</ele>
        <time>2018-06-24T10:12:14Z</time>
      </trkpt>
      <trkpt lat="42.73167" lon="1.39469">
        <ele>2456.31</ele>
        <time>2018-06-24T10:12:58Z</time>
      </trkpt>
      <trkpt lat="42.73164" lon="1.39486">
        <ele>2453.42</ele>
        <time>2018-06-24T10:13:10Z</time>
      </trkpt>
      <trkpt lat="42.73156" lon="1.39488">
        <ele>2449.58</ele>
        <time>2018-06-24T10:13:23Z</time>
      </trkpt>
      <trkpt lat="42.73148" lon="1.39494">
        <ele>2446.69</ele>
        <time>2018-06-24T10:13:37Z</time>
      </trkpt>
      <trkpt lat="42.73147" lon="1.39498">
        <ele>2442.37</ele>
        <time>2018-06-24T10:15:56Z</time>
      </trkpt>
      <trkpt lat="42.73137" lon="1.39499">
        <ele>2439</ele>
        <time>2018-06-24T10:16:10Z</time>
      </trkpt>
      <trkpt lat="42.7313" lon="1.39502">
        <ele>2435.16</ele>
        <time>2018-06-24T10:16:24Z</time>
      </trkpt>
      <trkpt lat="42.73123" lon="1.39503">
        <ele>2430.83</ele>
        <time>2018-06-24T10:16:42Z</time>
      </trkpt>
      <trkpt lat="42.73114" lon="1.39494">
        <ele>2427.95</ele>
        <time>2018-06-24T10:16:55Z</time>
      </trkpt>
      <trkpt lat="42.73107" lon="1.39489">
        <ele>2425.06</ele>
        <time>2018-06-24T10:17:08Z</time>
      </trkpt>
      <trkpt lat="42.73098" lon="1.39485">
        <ele>2421.7</ele>
        <time>2018-06-24T10:17:24Z</time>
      </trkpt>
      <trkpt lat="42.7309" lon="1.39489">
        <ele>2416.89</ele>
        <time>2018-06-24T10:17:40Z</time>
      </trkpt>
      <trkpt lat="42.73082" lon="1.39495">
        <ele>2411.6</ele>
        <time>2018-06-24T10:17:58Z</time>
      </trkpt>
      <trkpt lat="42.73074" lon="1.39498">
        <ele>2406.32</ele>
        <time>2018-06-24T10:18:14Z</time>
      </trkpt>
      <trkpt lat="42.73064" lon="1.39501">
        <ele>2401.51</ele>
        <time>2018-06-24T10:18:58Z</time>
      </trkpt>
      <trkpt lat="42.73056" lon="1.39502">
        <ele>2396.7</ele>
        <time>2018-06-24T10:19:11Z</time>
      </trkpt>
      <trkpt lat="42.73047" lon="1.39505">
        <ele>2391.9</ele>
        <time>2018-06-24T10:19:24Z</time>
      </trkpt>
      <trkpt lat="42.7304" lon="1.39512">
        <ele>2386.61</ele>
        <time>2018-06-24T10:19:38Z</time>
      </trkpt>
      <trkpt lat="42.73034" lon="1.39521">
        <ele>2382.28</ele>
        <time>2018-06-24T10:19:54Z</time>
      </trkpt>
      <trkpt lat="42.73026" lon="1.39526">
        <ele>2378.44</ele>
        <time>2018-06-24T10:20:07Z</time>
      </trkpt>
      <trkpt lat="42.73017" lon="1.3953">
        <ele>2374.11</ele>
        <time>2018-06-24T10:20:22Z</time>
      </trkpt>
      <trkpt lat="42.73009" lon="1.3953">
        <ele>2369.79</ele>
        <time>2018-06-24T10:20:48Z</time>
      </trkpt>
      <trkpt lat="42.72999" lon="1.39533">
        <ele>2364.98</ele>
        <time>2018-06-24T10:21:02Z</time>
      </trkpt>
      <trkpt lat="42.72991" lon="1.39537">
        <ele>2359.69</ele>
        <time>2018-06-24T10:21:17Z</time>
      </trkpt>
      <trkpt lat="42.72982" lon="1.39541">
        <ele>2355.85</ele>
        <time>2018-06-24T10:21:30Z</time>
      </trkpt>
      <trkpt lat="42.72974" lon="1.39544">
        <ele>2352</ele>
        <time>2018-06-24T10:21:42Z</time>
      </trkpt>
      <trkpt lat="42.72965" lon="1.39545">
        <ele>2348.64</ele>
        <time>2018-06-24T10:21:54Z</time>
      </trkpt>
      <trkpt lat="42.72957" lon="1.39543">
        <ele>2345.75</ele>
        <time>2018-06-24T10:22:17Z</time>
      </trkpt>
      <trkpt lat="42.7295" lon="1.39548">
        <ele>2341.91</ele>
        <time>2018-06-24T10:22:35Z</time>
      </trkpt>
      <trkpt lat="42.72942" lon="1.39553">
        <ele>2337.58</ele>
        <time>2018-06-24T10:22:49Z</time>
      </trkpt>
      <trkpt lat="42.72935" lon="1.39559">
        <ele>2334.22</ele>
        <time>2018-06-24T10:23:06Z</time>
      </trkpt>
      <trkpt lat="42.72928" lon="1.39566">
        <ele>2329.41</ele>
        <time>2018-06-24T10:23:21Z</time>
      </trkpt>
      <trkpt lat="42.7292" lon="1.39574">
        <ele>2325.57</ele>
        <time>2018-06-24T10:23:37Z</time>
      </trkpt>
      <trkpt lat="42.72912" lon="1.39578">
        <ele>2321.24</ele>
        <time>2018-06-24T10:24:30Z</time>
      </trkpt>
      <trkpt lat="42.72909" lon="1.39587">
        <ele>2316.91</ele>
        <time>2018-06-24T10:24:41Z</time>
      </trkpt>
      <trkpt lat="42.72903" lon="1.39595">
        <ele>2312.59</ele>
        <time>2018-06-24T10:25:02Z</time>
      </trkpt>
      <trkpt lat="42.72897" lon="1.39606">
        <ele>2309.7</ele>
        <time>2018-06-24T10:25:18Z</time>
      </trkpt>
      <trkpt lat="42.72891" lon="1.39613">
        <ele>2305.86</ele>
        <time>2018-06-24T10:25:30Z</time>
      </trkpt>
      <trkpt lat="42.72888" lon="1.39623">
        <ele>2302.98</ele>
        <time>2018-06-24T10:25:43Z</time>
      </trkpt>
      <trkpt lat="42.72883" lon="1.39634">
        <ele>2300.09</ele>
        <time>2018-06-24T10:25:56Z</time>
      </trkpt>
      <trkpt lat="42.72877" lon="1.39645">
        <ele>2296.25</ele>
        <time>2018-06-24T10:26:09Z</time>
      </trkpt>
      <trkpt lat="42.7287" lon="1.3965">
        <ele>2292.88</ele>
        <time>2018-06-24T10:26:22Z</time>
      </trkpt>
      <trkpt lat="42.72861" lon="1.39655">
        <ele>2289.04</ele>
        <time>2018-06-24T10:26:35Z</time>
      </trkpt>
      <trkpt lat="42.7286" lon="1.39669">
        <ele>2286.15</ele>
        <time>2018-06-24T10:26:55Z</time>
      </trkpt>
      <trkpt lat="42.72859" lon="1.39683">
        <ele>2283.75</ele>
        <time>2018-06-24T10:27:07Z</time>
      </trkpt>
      <trkpt lat="42.72852" lon="1.39691">
        <ele>2279.9</ele>
        <time>2018-06-24T10:27:19Z</time>
      </trkpt>
      <trkpt lat="42.72845" lon="1.39695">
        <ele>2276.54</ele>
        <time>2018-06-24T10:27:33Z</time>
      </trkpt>
      <trkpt lat="42.72839" lon="1.39702">
        <ele>2272.69</ele>
        <time>2018-06-24T10:27:46Z</time>
      </trkpt>
      <trkpt lat="42.72833" lon="1.39711">
        <ele>2269.33</ele>
        <time>2018-06-24T10:27:59Z</time>
      </trkpt>
      <trkpt lat="42.72827" lon="1.39722">
        <ele>2265.96</ele>
        <time>2018-06-24T10:28:14Z</time>
      </trkpt>
      <trkpt lat="42.72822" lon="1.3973">
        <ele>2261.16</ele>
        <time>2018-06-24T10:28:39Z</time>
      </trkpt>
      <trkpt lat="42.72821" lon="1.39746">
        <ele>2258.75</ele>
        <time>2018-06-24T10:29:09Z</time>
      </trkpt>
      <trkpt lat="42.72817" lon="1.3975">
        <ele>2255.87</ele>
        <time>2018-06-24T10:29:24Z</time>
      </trkpt>
      <trkpt lat="42.72808" lon="1.39754">
        <ele>2251.54</ele>
        <time>2018-06-24T10:29:37Z</time>
      </trkpt>
      <trkpt lat="42.728" lon="1.39757">
        <ele>2246.74</ele>
        <time>2018-06-24T10:29:50Z</time>
      </trkpt>
      <trkpt lat="42.72793" lon="1.39765">
        <ele>2243.37</ele>
        <time>2018-06-24T10:30:03Z</time>
      </trkpt>
      <trkpt lat="42.72785" lon="1.39769">
        <ele>2239.05</ele>
        <time>2018-06-24T10:30:15Z</time>
      </trkpt>
      <trkpt lat="42.72776" lon="1.39773">
        <ele>2235.68</ele>
        <time>2018-06-24T10:30:27Z</time>
      </trkpt>
      <trkpt lat="42.72768" lon="1.39778">
        <ele>2231.84</ele>
        <time>2018-06-24T10:30:40Z</time>
      </trkpt>
      <trkpt lat="42.72763" lon="1.39789">
        <ele>2228.47</ele>
        <time>2018-06-24T10:30:52Z</time>
      </trkpt>
      <trkpt lat="42.72758" lon="1.398">
        <ele>2225.11</ele>
        <time>2018-06-24T10:31:05Z</time>
      </trkpt>
      <trkpt lat="42.72748" lon="1.39801">
        <ele>2221.26</ele>
        <time>2018-06-24T10:31:18Z</time>
      </trkpt>
      <trkpt lat="42.72745" lon="1.39796">
        <ele>2219.34</ele>
        <time>2018-06-24T10:32:54Z</time>
      </trkpt>
      <trkpt lat="42.7274" lon="1.39797">
        <ele>2215.5</ele>
        <time>2018-06-24T10:33:14Z</time>
      </trkpt>
      <trkpt lat="42.72736" lon="1.39806">
        <ele>2211.17</ele>
        <time>2018-06-24T10:34:35Z</time>
      </trkpt>
      <trkpt lat="42.72734" lon="1.39808">
        <ele>2206.84</ele>
        <time>2018-06-24T10:44:20Z</time>
      </trkpt>
      <trkpt lat="42.72728" lon="1.39818">
        <ele>2203</ele>
        <time>2018-06-24T10:44:44Z</time>
      </trkpt>
      <trkpt lat="42.72728" lon="1.39824">
        <ele>2200.11</ele>
        <time>2018-06-24T10:45:09Z</time>
      </trkpt>
      <trkpt lat="42.72721" lon="1.39821">
        <ele>2196.75</ele>
        <time>2018-06-24T10:45:35Z</time>
      </trkpt>
      <trkpt lat="42.72712" lon="1.39817">
        <ele>2191.94</ele>
        <time>2018-06-24T10:45:58Z</time>
      </trkpt>
      <trkpt lat="42.72703" lon="1.39816">
        <ele>2188.58</ele>
        <time>2018-06-24T10:46:34Z</time>
      </trkpt>
      <trkpt lat="42.72697" lon="1.3983">
        <ele>2184.73</ele>
        <time>2018-06-24T10:47:08Z</time>
      </trkpt>
      <trkpt lat="42.72693" lon="1.39841">
        <ele>2182.33</ele>
        <time>2018-06-24T10:47:24Z</time>
      </trkpt>
      <trkpt lat="42.72687" lon="1.39852">
        <ele>2179.45</ele>
        <time>2018-06-24T10:47:39Z</time>
      </trkpt>
      <trkpt lat="42.72681" lon="1.39862">
        <ele>2176.56</ele>
        <time>2018-06-24T10:47:58Z</time>
      </trkpt>
      <trkpt lat="42.72674" lon="1.3987">
        <ele>2175.12</ele>
        <time>2018-06-24T10:48:11Z</time>
      </trkpt>
      <trkpt lat="42.72664" lon="1.39876">
        <ele>2173.68</ele>
        <time>2018-06-24T10:48:25Z</time>
      </trkpt>
      <trkpt lat="42.72657" lon="1.39878">
        <ele>2169.83</ele>
        <time>2018-06-24T10:48:43Z</time>
      </trkpt>
      <trkpt lat="42.72649" lon="1.39881">
        <ele>2166.95</ele>
        <time>2018-06-24T10:49:06Z</time>
      </trkpt>
      <trkpt lat="42.7264" lon="1.39888">
        <ele>2163.1</ele>
        <time>2018-06-24T10:49:22Z</time>
      </trkpt>
      <trkpt lat="42.72632" lon="1.39895">
        <ele>2159.26</ele>
        <time>2018-06-24T10:49:43Z</time>
      </trkpt>
      <trkpt lat="42.72626" lon="1.39892">
        <ele>2154.93</ele>
        <time>2018-06-24T10:50:05Z</time>
      </trkpt>
      <trkpt lat="42.72619" lon="1.39896">
        <ele>2149.16</ele>
        <time>2018-06-24T10:50:33Z</time>
      </trkpt>
      <trkpt lat="42.72611" lon="1.39891">
        <ele>2145.32</ele>
        <time>2018-06-24T10:50:50Z</time>
      </trkpt>
      <trkpt lat="42.72603" lon="1.39891">
        <ele>2140.99</ele>
        <time>2018-06-24T10:51:13Z</time>
      </trkpt>
      <trkpt lat="42.72594" lon="1.39896">
        <ele>2135.71</ele>
        <time>2018-06-24T10:51:34Z</time>
      </trkpt>
      <trkpt lat="42.72592" lon="1.39891">
        <ele>2133.3</ele>
        <time>2018-06-24T10:51:59Z</time>
      </trkpt>
      <trkpt lat="42.72585" lon="1.39895">
        <ele>2130.9</ele>
        <time>2018-06-24T10:52:21Z</time>
      </trkpt>
      <trkpt lat="42.72576" lon="1.39898">
        <ele>2126.57</ele>
        <time>2018-06-24T10:52:43Z</time>
      </trkpt>
      <trkpt lat="42.72571" lon="1.39904">
        <ele>2123.21</ele>
        <time>2018-06-24T10:53:04Z</time>
      </trkpt>
      <trkpt lat="42.72562" lon="1.39911">
        <ele>2118.4</ele>
        <time>2018-06-24T10:53:27Z</time>
      </trkpt>
      <trkpt lat="42.72554" lon="1.39922">
        <ele>2113.6</ele>
        <time>2018-06-24T10:53:53Z</time>
      </trkpt>
      <trkpt lat="42.72554" lon="1.39935">
        <ele>2113.6</ele>
        <time>2018-06-24T10:54:19Z</time>
      </trkpt>
      <trkpt lat="42.72551" lon="1.39941">
        <ele>2110.71</ele>
        <time>2018-06-24T10:54:37Z</time>
      </trkpt>
      <trkpt lat="42.72542" lon="1.3993">
        <ele>2107.83</ele>
        <time>2018-06-24T10:54:59Z</time>
      </trkpt>
      <trkpt lat="42.72534" lon="1.39925">
        <ele>2103.98</ele>
        <time>2018-06-24T10:55:22Z</time>
      </trkpt>
      <trkpt lat="42.72526" lon="1.39926">
        <ele>2099.66</ele>
        <time>2018-06-24T10:55:48Z</time>
      </trkpt>
      <trkpt lat="42.72516" lon="1.39929">
        <ele>2095.81</ele>
        <time>2018-06-24T10:56:07Z</time>
      </trkpt>
      <trkpt lat="42.72512" lon="1.39937">
        <ele>2091.97</ele>
        <time>2018-06-24T10:56:38Z</time>
      </trkpt>
      <trkpt lat="42.72517" lon="1.39955">
        <ele>2090.04</ele>
        <time>2018-06-24T10:57:17Z</time>
      </trkpt>
      <trkpt lat="42.7251" lon="1.39951">
        <ele>2086.2</ele>
        <time>2018-06-24T10:57:52Z</time>
      </trkpt>
      <trkpt lat="42.72506" lon="1.39966">
        <ele>2083.31</ele>
        <time>2018-06-24T10:58:17Z</time>
      </trkpt>
      <trkpt lat="42.72503" lon="1.39978">
        <ele>2083.31</ele>
        <time>2018-06-24T10:58:42Z</time>
      </trkpt>
      <trkpt lat="42.72495" lon="1.39992">
        <ele>2079.47</ele>
        <time>2018-06-24T10:59:27Z</time>
      </trkpt>
      <trkpt lat="42.72487" lon="1.40002">
        <ele>2077.07</ele>
        <time>2018-06-24T11:00:03Z</time>
      </trkpt>
      <trkpt lat="42.72481" lon="1.40015">
        <ele>2078.03</ele>
        <time>2018-06-24T11:00:33Z</time>
      </trkpt>
      <trkpt lat="42.72474" lon="1.40022">
        <ele>2076.1</ele>
        <time>2018-06-24T11:00:57Z</time>
      </trkpt>
      <trkpt lat="42.72462" lon="1.40025">
        <ele>2071.3</ele>
        <time>2018-06-24T11:01:24Z</time>
      </trkpt>
      <trkpt lat="42.72454" lon="1.40027">
        <ele>2067.93</ele>
        <time>2018-06-24T11:01:54Z</time>
      </trkpt>
      <trkpt lat="42.72447" lon="1.40038">
        <ele>2066.01</ele>
        <time>2018-06-24T11:02:20Z</time>
      </trkpt>
      <trkpt lat="42.72439" lon="1.40041">
        <ele>2061.2</ele>
        <time>2018-06-24T11:02:54Z</time>
      </trkpt>
      <trkpt lat="42.72425" lon="1.40052">
        <ele>2054.47</ele>
        <time>2018-06-24T11:04:03Z</time>
      </trkpt>
      <trkpt lat="42.72417" lon="1.40053">
        <ele>2050.63</ele>
        <time>2018-06-24T11:04:33Z</time>
      </trkpt>
      <trkpt lat="42.72411" lon="1.40058">
        <ele>2043.9</ele>
        <time>2018-06-24T11:05:11Z</time>
      </trkpt>
      <trkpt lat="42.72403" lon="1.40045">
        <ele>2038.13</ele>
        <time>2018-06-24T11:05:49Z</time>
      </trkpt>
      <trkpt lat="42.72396" lon="1.40051">
        <ele>2031.88</ele>
        <time>2018-06-24T11:06:24Z</time>
      </trkpt>
      <trkpt lat="42.72387" lon="1.40056">
        <ele>2026.6</ele>
        <time>2018-06-24T11:06:54Z</time>
      </trkpt>
      <trkpt lat="42.72379" lon="1.40053">
        <ele>2020.83</ele>
        <time>2018-06-24T11:07:19Z</time>
      </trkpt>
      <trkpt lat="42.72373" lon="1.4004">
        <ele>2016.02</ele>
        <time>2018-06-24T11:07:50Z</time>
      </trkpt>
      <trkpt lat="42.72366" lon="1.40045">
        <ele>2010.73</ele>
        <time>2018-06-24T11:08:19Z</time>
      </trkpt>
      <trkpt lat="42.7236" lon="1.40047">
        <ele>2006.89</ele>
        <time>2018-06-24T11:08:44Z</time>
      </trkpt>
      <trkpt lat="42.72356" lon="1.40051">
        <ele>2002.08</ele>
        <time>2018-06-24T11:09:09Z</time>
      </trkpt>
      <trkpt lat="42.72352" lon="1.40051">
        <ele>1999.2</ele>
        <time>2018-06-24T11:09:31Z</time>
      </trkpt>
      <trkpt lat="42.72346" lon="1.40055">
        <ele>1994.87</ele>
        <time>2018-06-24T11:09:59Z</time>
      </trkpt>
      <trkpt lat="42.72343" lon="1.40044">
        <ele>1991.99</ele>
        <time>2018-06-24T11:10:18Z</time>
      </trkpt>
      <trkpt lat="42.72338" lon="1.40048">
        <ele>1987.18</ele>
        <time>2018-06-24T11:10:46Z</time>
      </trkpt>
      <trkpt lat="42.7233" lon="1.40054">
        <ele>1981.9</ele>
        <time>2018-06-24T11:11:13Z</time>
      </trkpt>
      <trkpt lat="42.72321" lon="1.40063">
        <ele>1976.61</ele>
        <time>2018-06-24T11:11:37Z</time>
      </trkpt>
      <trkpt lat="42.72317" lon="1.40065">
        <ele>1972.28</ele>
        <time>2018-06-24T11:12:05Z</time>
      </trkpt>
      <trkpt lat="42.72309" lon="1.4006">
        <ele>1966.99</ele>
        <time>2018-06-24T11:12:36Z</time>
      </trkpt>
      <trkpt lat="42.72304" lon="1.40055">
        <ele>1961.71</ele>
        <time>2018-06-24T11:13:22Z</time>
      </trkpt>
      <trkpt lat="42.72297" lon="1.40048">
        <ele>1956.42</ele>
        <time>2018-06-24T11:13:44Z</time>
      </trkpt>
      <trkpt lat="42.72293" lon="1.40055">
        <ele>1952.09</ele>
        <time>2018-06-24T11:17:19Z</time>
      </trkpt>
      <trkpt lat="42.72284" lon="1.40057">
        <ele>1946.81</ele>
        <time>2018-06-24T11:17:42Z</time>
      </trkpt>
      <trkpt lat="42.72279" lon="1.40054">
        <ele>1942</ele>
        <time>2018-06-24T11:18:03Z</time>
      </trkpt>
      <trkpt lat="42.72272" lon="1.40058">
        <ele>1937.19</ele>
        <time>2018-06-24T11:18:28Z</time>
      </trkpt>
      <trkpt lat="42.72265" lon="1.40053">
        <ele>1933.35</ele>
        <time>2018-06-24T11:18:51Z</time>
      </trkpt>
      <trkpt lat="42.72258" lon="1.40056">
        <ele>1927.58</ele>
        <time>2018-06-24T11:19:17Z</time>
      </trkpt>
      <trkpt lat="42.72252" lon="1.40058">
        <ele>1921.81</ele>
        <time>2018-06-24T11:20:00Z</time>
      </trkpt>
      <trkpt lat="42.72243" lon="1.40053">
        <ele>1915.56</ele>
        <time>2018-06-24T11:20:35Z</time>
      </trkpt>
      <trkpt lat="42.72236" lon="1.40058">
        <ele>1910.28</ele>
        <time>2018-06-24T11:21:00Z</time>
      </trkpt>
      <trkpt lat="42.72231" lon="1.40068">
        <ele>1905.47</ele>
        <time>2018-06-24T11:21:22Z</time>
      </trkpt>
      <trkpt lat="42.72224" lon="1.40064">
        <ele>1902.11</ele>
        <time>2018-06-24T11:21:48Z</time>
      </trkpt>
      <trkpt lat="42.72216" lon="1.4007">
        <ele>1897.78</ele>
        <time>2018-06-24T11:22:14Z</time>
      </trkpt>
      <trkpt lat="42.7221" lon="1.40067">
        <ele>1893.45</ele>
        <time>2018-06-24T11:22:41Z</time>
      </trkpt>
      <trkpt lat="42.72203" lon="1.40071">
        <ele>1888.17</ele>
        <time>2018-06-24T11:23:11Z</time>
      </trkpt>
      <trkpt lat="42.72197" lon="1.4008">
        <ele>1885.28</ele>
        <time>2018-06-24T11:23:31Z</time>
      </trkpt>
      <trkpt lat="42.72192" lon="1.40094">
        <ele>1880</ele>
        <time>2018-06-24T11:24:12Z</time>
      </trkpt>
      <trkpt lat="42.72188" lon="1.40093">
        <ele>1876.15</ele>
        <time>2018-06-24T11:24:38Z</time>
      </trkpt>
      <trkpt lat="42.72184" lon="1.40104">
        <ele>1871.34</ele>
        <time>2018-06-24T11:25:10Z</time>
      </trkpt>
      <trkpt lat="42.72179" lon="1.40102">
        <ele>1865.58</ele>
        <time>2018-06-24T11:25:35Z</time>
      </trkpt>
      <trkpt lat="42.72171" lon="1.40104">
        <ele>1861.25</ele>
        <time>2018-06-24T11:26:02Z</time>
      </trkpt>
      <trkpt lat="42.72163" lon="1.40107">
        <ele>1854.52</ele>
        <time>2018-06-24T11:26:31Z</time>
      </trkpt>
      <trkpt lat="42.72157" lon="1.40102">
        <ele>1849.23</ele>
        <time>2018-06-24T11:27:03Z</time>
      </trkpt>
      <trkpt lat="42.7215" lon="1.40107">
        <ele>1844.91</ele>
        <time>2018-06-24T11:27:33Z</time>
      </trkpt>
      <trkpt lat="42.72145" lon="1.40107">
        <ele>1839.14</ele>
        <time>2018-06-24T11:28:02Z</time>
      </trkpt>
      <trkpt lat="42.72137" lon="1.40118">
        <ele>1833.37</ele>
        <time>2018-06-24T11:28:32Z</time>
      </trkpt>
      <trkpt lat="42.72129" lon="1.40125">
        <ele>1825.68</ele>
        <time>2018-06-24T11:29:44Z</time>
      </trkpt>
      <trkpt lat="42.72123" lon="1.40136">
        <ele>1822.32</ele>
        <time>2018-06-24T11:30:20Z</time>
      </trkpt>
      <trkpt lat="42.72116" lon="1.40143">
        <ele>1819.43</ele>
        <time>2018-06-24T11:31:02Z</time>
      </trkpt>
      <trkpt lat="42.72107" lon="1.40137">
        <ele>1811.26</ele>
        <time>2018-06-24T11:32:28Z</time>
      </trkpt>
      <trkpt lat="42.72101" lon="1.40129">
        <ele>1807.42</ele>
        <time>2018-06-24T11:32:56Z</time>
      </trkpt>
      <trkpt lat="42.72091" lon="1.40134">
        <ele>1803.09</ele>
        <time>2018-06-24T11:33:23Z</time>
      </trkpt>
      <trkpt lat="42.72082" lon="1.40141">
        <ele>1799.73</ele>
        <time>2018-06-24T11:33:46Z</time>
      </trkpt>
      <trkpt lat="42.72071" lon="1.4014">
        <ele>1793.48</ele>
        <time>2018-06-24T11:34:09Z</time>
      </trkpt>
      <trkpt lat="42.72061" lon="1.40143">
        <ele>1789.63</ele>
        <time>2018-06-24T11:34:28Z</time>
      </trkpt>
      <trkpt lat="42.72052" lon="1.4015">
        <ele>1785.79</ele>
        <time>2018-06-24T11:35:10Z</time>
      </trkpt>
      <trkpt lat="42.72048" lon="1.40163">
        <ele>1784.34</ele>
        <time>2018-06-24T11:35:24Z</time>
      </trkpt>
      <trkpt lat="42.72038" lon="1.40167">
        <ele>1781.94</ele>
        <time>2018-06-24T11:35:45Z</time>
      </trkpt>
      <trkpt lat="42.72031" lon="1.40174">
        <ele>1780.98</ele>
        <time>2018-06-24T11:35:59Z</time>
      </trkpt>
      <trkpt lat="42.72023" lon="1.40182">
        <ele>1779.06</ele>
        <time>2018-06-24T11:36:18Z</time>
      </trkpt>
      <trkpt lat="42.72011" lon="1.40191">
        <ele>1775.69</ele>
        <time>2018-06-24T11:37:13Z</time>
      </trkpt>
      <trkpt lat="42.72005" lon="1.40193">
        <ele>1775.69</ele>
        <time>2018-06-24T11:38:02Z</time>
      </trkpt>
      <trkpt lat="42.71995" lon="1.40189">
        <ele>1772.81</ele>
        <time>2018-06-24T11:38:19Z</time>
      </trkpt>
      <trkpt lat="42.71983" lon="1.40192">
        <ele>1771.37</ele>
        <time>2018-06-24T11:38:40Z</time>
      </trkpt>
      <trkpt lat="42.71977" lon="1.40205">
        <ele>1769.92</ele>
        <time>2018-06-24T11:39:00Z</time>
      </trkpt>
      <trkpt lat="42.71969" lon="1.40214">
        <ele>1768</ele>
        <time>2018-06-24T11:39:15Z</time>
      </trkpt>
      <trkpt lat="42.71967" lon="1.40213">
        <ele>1765.12</ele>
        <time>2018-06-24T11:39:37Z</time>
      </trkpt>
      <trkpt lat="42.7197" lon="1.40197">
        <ele>1762.71</ele>
        <time>2018-06-24T11:39:53Z</time>
      </trkpt>
      <trkpt lat="42.71971" lon="1.40175">
        <ele>1760.79</ele>
        <time>2018-06-24T11:40:24Z</time>
      </trkpt>
      <trkpt lat="42.71984" lon="1.40173">
        <ele>1758.87</ele>
        <time>2018-06-24T11:40:43Z</time>
      </trkpt>
      <trkpt lat="42.71996" lon="1.40169">
        <ele>1756.47</ele>
        <time>2018-06-24T11:41:10Z</time>
      </trkpt>
      <trkpt lat="42.71997" lon="1.4016">
        <ele>1755.5</ele>
        <time>2018-06-24T11:42:20Z</time>
      </trkpt>
      <trkpt lat="42.71999" lon="1.40142">
        <ele>1753.58</ele>
        <time>2018-06-24T11:42:58Z</time>
      </trkpt>
      <trkpt lat="42.72006" lon="1.40125">
        <ele>1751.66</ele>
        <time>2018-06-24T11:43:25Z</time>
      </trkpt>
      <trkpt lat="42.72009" lon="1.40107">
        <ele>1750.22</ele>
        <time>2018-06-24T11:43:46Z</time>
      </trkpt>
      <trkpt lat="42.72002" lon="1.40106">
        <ele>1747.33</ele>
        <time>2018-06-24T11:44:17Z</time>
      </trkpt>
      <trkpt lat="42.7199" lon="1.40106">
        <ele>1743.97</ele>
        <time>2018-06-24T11:44:38Z</time>
      </trkpt>
      <trkpt lat="42.71985" lon="1.40102">
        <ele>1739.64</ele>
        <time>2018-06-24T11:45:14Z</time>
      </trkpt>
      <trkpt lat="42.71991" lon="1.40092">
        <ele>1738.2</ele>
        <time>2018-06-24T11:45:28Z</time>
      </trkpt>
      <trkpt lat="42.71997" lon="1.4008">
        <ele>1736.76</ele>
        <time>2018-06-24T11:45:47Z</time>
      </trkpt>
      <trkpt lat="42.72008" lon="1.40065">
        <ele>1735.8</ele>
        <time>2018-06-24T11:46:19Z</time>
      </trkpt>
      <trkpt lat="42.72004" lon="1.40051">
        <ele>1734.36</ele>
        <time>2018-06-24T11:46:39Z</time>
      </trkpt>
      <trkpt lat="42.72005" lon="1.40036">
        <ele>1731.95</ele>
        <time>2018-06-24T11:46:53Z</time>
      </trkpt>
      <trkpt lat="42.7201" lon="1.40024">
        <ele>1729.55</ele>
        <time>2018-06-24T11:47:07Z</time>
      </trkpt>
      <trkpt lat="42.7201" lon="1.40012">
        <ele>1725.22</ele>
        <time>2018-06-24T11:47:25Z</time>
      </trkpt>
      <trkpt lat="42.72001" lon="1.39997">
        <ele>1722.82</ele>
        <time>2018-06-24T11:47:40Z</time>
      </trkpt>
      <trkpt lat="42.71993" lon="1.39997">
        <ele>1718.97</ele>
        <time>2018-06-24T11:48:09Z</time>
      </trkpt>
      <trkpt lat="42.71989" lon="1.40011">
        <ele>1717.53</ele>
        <time>2018-06-24T11:48:28Z</time>
      </trkpt>
      <trkpt lat="42.71981" lon="1.4002">
        <ele>1715.13</ele>
        <time>2018-06-24T11:48:40Z</time>
      </trkpt>
      <trkpt lat="42.7198" lon="1.40035">
        <ele>1714.17</ele>
        <time>2018-06-24T11:48:55Z</time>
      </trkpt>
      <trkpt lat="42.71975" lon="1.40045">
        <ele>1711.76</ele>
        <time>2018-06-24T11:49:43Z</time>
      </trkpt>
      <trkpt lat="42.71964" lon="1.40049">
        <ele>1710.32</ele>
        <time>2018-06-24T11:50:02Z</time>
      </trkpt>
      <trkpt lat="42.71954" lon="1.40054">
        <ele>1708.4</ele>
        <time>2018-06-24T11:50:17Z</time>
      </trkpt>
      <trkpt lat="42.71945" lon="1.40062">
        <ele>1706.96</ele>
        <time>2018-06-24T11:50:32Z</time>
      </trkpt>
      <trkpt lat="42.71937" lon="1.40071">
        <ele>1703.11</ele>
        <time>2018-06-24T11:50:52Z</time>
      </trkpt>
      <trkpt lat="42.71936" lon="1.40087">
        <ele>1699.75</ele>
        <time>2018-06-24T11:51:14Z</time>
      </trkpt>
      <trkpt lat="42.71935" lon="1.40099">
        <ele>1700.71</ele>
        <time>2018-06-24T11:51:37Z</time>
      </trkpt>
      <trkpt lat="42.71926" lon="1.40107">
        <ele>1698.79</ele>
        <time>2018-06-24T11:51:52Z</time>
      </trkpt>
      <trkpt lat="42.71915" lon="1.40116">
        <ele>1695.9</ele>
        <time>2018-06-24T11:52:11Z</time>
      </trkpt>
      <trkpt lat="42.71906" lon="1.40121">
        <ele>1694.94</ele>
        <time>2018-06-24T11:52:26Z</time>
      </trkpt>
      <trkpt lat="42.71895" lon="1.40126">
        <ele>1693.98</ele>
        <time>2018-06-24T11:52:40Z</time>
      </trkpt>
      <trkpt lat="42.71889" lon="1.40135">
        <ele>1692.54</ele>
        <time>2018-06-24T11:52:59Z</time>
      </trkpt>
      <trkpt lat="42.71881" lon="1.40143">
        <ele>1690.14</ele>
        <time>2018-06-24T11:53:14Z</time>
      </trkpt>
      <trkpt lat="42.7187" lon="1.40148">
        <ele>1688.69</ele>
        <time>2018-06-24T11:53:27Z</time>
      </trkpt>
      <trkpt lat="42.71866" lon="1.40162">
        <ele>1687.25</ele>
        <time>2018-06-24T11:53:46Z</time>
      </trkpt>
      <trkpt lat="42.71856" lon="1.40171">
        <ele>1685.81</ele>
        <time>2018-06-24T11:53:59Z</time>
      </trkpt>
      <trkpt lat="42.71847" lon="1.40179">
        <ele>1684.37</ele>
        <time>2018-06-24T11:54:12Z</time>
      </trkpt>
      <trkpt lat="42.71835" lon="1.40189">
        <ele>1681</ele>
        <time>2018-06-24T11:54:29Z</time>
      </trkpt>
      <trkpt lat="42.7183" lon="1.40196">
        <ele>1679.08</ele>
        <time>2018-06-24T11:54:40Z</time>
      </trkpt>
      <trkpt lat="42.7182" lon="1.40205">
        <ele>1676.68</ele>
        <time>2018-06-24T11:54:59Z</time>
      </trkpt>
      <trkpt lat="42.71812" lon="1.40195">
        <ele>1672.83</ele>
        <time>2018-06-24T11:55:24Z</time>
      </trkpt>
      <trkpt lat="42.71816" lon="1.40186">
        <ele>1671.39</ele>
        <time>2018-06-24T11:55:48Z</time>
      </trkpt>
      <trkpt lat="42.7182" lon="1.40165">
        <ele>1669.95</ele>
        <time>2018-06-24T11:55:58Z</time>
      </trkpt>
      <trkpt lat="42.71823" lon="1.4015">
        <ele>1668.99</ele>
        <time>2018-06-24T11:56:08Z</time>
      </trkpt>
      <trkpt lat="42.7183" lon="1.40137">
        <ele>1667.54</ele>
        <time>2018-06-24T11:56:19Z</time>
      </trkpt>
      <trkpt lat="42.71835" lon="1.40128">
        <ele>1667.06</ele>
        <time>2018-06-24T11:56:30Z</time>
      </trkpt>
      <trkpt lat="42.71835" lon="1.40114">
        <ele>1664.66</ele>
        <time>2018-06-24T11:56:57Z</time>
      </trkpt>
      <trkpt lat="42.71839" lon="1.40089">
        <ele>1662.74</ele>
        <time>2018-06-24T11:57:31Z</time>
      </trkpt>
      <trkpt lat="42.71846" lon="1.40084">
        <ele>1660.81</ele>
        <time>2018-06-24T11:58:07Z</time>
      </trkpt>
      <trkpt lat="42.71849" lon="1.40098">
        <ele>1659.85</ele>
        <time>2018-06-24T11:58:26Z</time>
      </trkpt>
      <trkpt lat="42.71858" lon="1.40092">
        <ele>1657.93</ele>
        <time>2018-06-24T11:58:48Z</time>
      </trkpt>
      <trkpt lat="42.71869" lon="1.40083">
        <ele>1656.49</ele>
        <time>2018-06-24T11:59:04Z</time>
      </trkpt>
      <trkpt lat="42.71867" lon="1.40078">
        <ele>1653.6</ele>
        <time>2018-06-24T11:59:27Z</time>
      </trkpt>
      <trkpt lat="42.71856" lon="1.40087">
        <ele>1652.16</ele>
        <time>2018-06-24T11:59:40Z</time>
      </trkpt>
      <trkpt lat="42.71845" lon="1.40091">
        <ele>1649.76</ele>
        <time>2018-06-24T11:59:56Z</time>
      </trkpt>
      <trkpt lat="42.71837" lon="1.40102">
        <ele>1648.32</ele>
        <time>2018-06-24T12:00:13Z</time>
      </trkpt>
      <trkpt lat="42.7183" lon="1.4011">
        <ele>1645.91</ele>
        <time>2018-06-24T12:00:45Z</time>
      </trkpt>
      <trkpt lat="42.71819" lon="1.40125">
        <ele>1643.51</ele>
        <time>2018-06-24T12:01:10Z</time>
      </trkpt>
      <trkpt lat="42.71808" lon="1.40129">
        <ele>1641.59</ele>
        <time>2018-06-24T12:01:29Z</time>
      </trkpt>
      <trkpt lat="42.71793" lon="1.40149">
        <ele>1638.22</ele>
        <time>2018-06-24T12:02:01Z</time>
      </trkpt>
      <trkpt lat="42.71786" lon="1.40149">
        <ele>1635.82</ele>
        <time>2018-06-24T12:02:47Z</time>
      </trkpt>
      <trkpt lat="42.71784" lon="1.40135">
        <ele>1632.94</ele>
        <time>2018-06-24T12:03:06Z</time>
      </trkpt>
      <trkpt lat="42.71788" lon="1.40123">
        <ele>1632.94</ele>
        <time>2018-06-24T12:03:22Z</time>
      </trkpt>
      <trkpt lat="42.71796" lon="1.40117">
        <ele>1631.98</ele>
        <time>2018-06-24T12:03:40Z</time>
      </trkpt>
      <trkpt lat="42.71805" lon="1.40111">
        <ele>1630.05</ele>
        <time>2018-06-24T12:03:58Z</time>
      </trkpt>
      <trkpt lat="42.71812" lon="1.40104">
        <ele>1630.05</ele>
        <time>2018-06-24T12:04:14Z</time>
      </trkpt>
      <trkpt lat="42.71811" lon="1.40089">
        <ele>1627.65</ele>
        <time>2018-06-24T12:04:28Z</time>
      </trkpt>
      <trkpt lat="42.71815" lon="1.40072">
        <ele>1626.69</ele>
        <time>2018-06-24T12:04:43Z</time>
      </trkpt>
      <trkpt lat="42.71824" lon="1.40058">
        <ele>1624.77</ele>
        <time>2018-06-24T12:04:58Z</time>
      </trkpt>
      <trkpt lat="42.71828" lon="1.40043">
        <ele>1623.32</ele>
        <time>2018-06-24T12:05:13Z</time>
      </trkpt>
      <trkpt lat="42.71826" lon="1.40037">
        <ele>1619.96</ele>
        <time>2018-06-24T12:05:50Z</time>
      </trkpt>
      <trkpt lat="42.71831" lon="1.40026">
        <ele>1619</ele>
        <time>2018-06-24T12:06:04Z</time>
      </trkpt>
      <trkpt lat="42.71824" lon="1.40043">
        <ele>1616.11</ele>
        <time>2018-06-24T12:06:19Z</time>
      </trkpt>
      <trkpt lat="42.71815" lon="1.4006">
        <ele>1613.23</ele>
        <time>2018-06-24T12:06:43Z</time>
      </trkpt>
      <trkpt lat="42.71801" lon="1.40056">
        <ele>1608.9</ele>
        <time>2018-06-24T12:07:10Z</time>
      </trkpt>
      <trkpt lat="42.71791" lon="1.40062">
        <ele>1606.5</ele>
        <time>2018-06-24T12:07:30Z</time>
      </trkpt>
      <trkpt lat="42.71776" lon="1.40089">
        <ele>1601.69</ele>
        <time>2018-06-24T12:08:05Z</time>
      </trkpt>
      <trkpt lat="42.71761" lon="1.40098">
        <ele>1597.85</ele>
        <time>2018-06-24T12:08:32Z</time>
      </trkpt>
      <trkpt lat="42.71749" lon="1.40109">
        <ele>1594</ele>
        <time>2018-06-24T12:09:09Z</time>
      </trkpt>
      <trkpt lat="42.71738" lon="1.40109">
        <ele>1592.56</ele>
        <time>2018-06-24T12:09:30Z</time>
      </trkpt>
      <trkpt lat="42.71727" lon="1.40107">
        <ele>1589.68</ele>
        <time>2018-06-24T12:09:45Z</time>
      </trkpt>
      <trkpt lat="42.71718" lon="1.40103">
        <ele>1589.2</ele>
        <time>2018-06-24T12:09:57Z</time>
      </trkpt>
      <trkpt lat="42.71699" lon="1.40106">
        <ele>1586.31</ele>
        <time>2018-06-24T12:10:26Z</time>
      </trkpt>
      <trkpt lat="42.71678" lon="1.40089">
        <ele>1585.35</ele>
        <time>2018-06-24T12:12:11Z</time>
      </trkpt>
      <trkpt lat="42.71667" lon="1.40097">
        <ele>1582.95</ele>
        <time>2018-06-24T12:12:30Z</time>
      </trkpt>
      <trkpt lat="42.71647" lon="1.40113">
        <ele>1580.54</ele>
        <time>2018-06-24T12:13:01Z</time>
      </trkpt>
      <trkpt lat="42.71632" lon="1.40121">
        <ele>1579.1</ele>
        <time>2018-06-24T12:13:25Z</time>
      </trkpt>
      <trkpt lat="42.71618" lon="1.40116">
        <ele>1576.22</ele>
        <time>2018-06-24T12:13:47Z</time>
      </trkpt>
      <trkpt lat="42.71591" lon="1.40105">
        <ele>1571.41</ele>
        <time>2018-06-24T12:14:44Z</time>
      </trkpt>
      <trkpt lat="42.71576" lon="1.40129">
        <ele>1574.78</ele>
        <time>2018-06-24T12:16:09Z</time>
      </trkpt>
      <trkpt lat="42.71568" lon="1.40129">
        <ele>1570.93</ele>
        <time>2018-06-24T12:16:44Z</time>
      </trkpt>
      <trkpt lat="42.7157" lon="1.40108">
        <ele>1568.05</ele>
        <time>2018-06-24T12:17:04Z</time>
      </trkpt>
      <trkpt lat="42.71571" lon="1.40076">
        <ele>1566.61</ele>
        <time>2018-06-24T12:17:24Z</time>
      </trkpt>
      <trkpt lat="42.71575" lon="1.40049">
        <ele>1566.61</ele>
        <time>2018-06-24T12:17:41Z</time>
      </trkpt>
      <trkpt lat="42.71585" lon="1.4003">
        <ele>1564.68</ele>
        <time>2018-06-24T12:18:06Z</time>
      </trkpt>
      <trkpt lat="42.71589" lon="1.40026">
        <ele>1565.16</ele>
        <time>2018-06-24T12:18:30Z</time>
      </trkpt>
      <trkpt lat="42.71596" lon="1.40024">
        <ele>1564.2</ele>
        <time>2018-06-24T12:18:49Z</time>
      </trkpt>
      <trkpt lat="42.71604" lon="1.40014">
        <ele>1562.28</ele>
        <time>2018-06-24T12:19:14Z</time>
      </trkpt>
      <trkpt lat="42.71612" lon="1.40004">
        <ele>1561.32</ele>
        <time>2018-06-24T12:19:32Z</time>
      </trkpt>
      <trkpt lat="42.71623" lon="1.40001">
        <ele>1560.36</ele>
        <time>2018-06-24T12:19:46Z</time>
      </trkpt>
      <trkpt lat="42.71625" lon="1.39992">
        <ele>1558.43</ele>
        <time>2018-06-24T12:20:01Z</time>
      </trkpt>
      <trkpt lat="42.71634" lon="1.39992">
        <ele>1557.95</ele>
        <time>2018-06-24T12:20:17Z</time>
      </trkpt>
      <trkpt lat="42.71636" lon="1.39978">
        <ele>1556.99</ele>
        <time>2018-06-24T12:20:34Z</time>
      </trkpt>
      <trkpt lat="42.71638" lon="1.39973">
        <ele>1555.07</ele>
        <time>2018-06-24T12:20:53Z</time>
      </trkpt>
      <trkpt lat="42.71626" lon="1.4">
        <ele>1550.26</ele>
        <time>2018-06-24T12:21:15Z</time>
      </trkpt>
      <trkpt lat="42.71609" lon="1.40018">
        <ele>1545.46</ele>
        <time>2018-06-24T12:21:38Z</time>
      </trkpt>
      <trkpt lat="42.71604" lon="1.4004">
        <ele>1540.65</ele>
        <time>2018-06-24T12:22:06Z</time>
      </trkpt>
      <trkpt lat="42.71593" lon="1.40049">
        <ele>1536.32</ele>
        <time>2018-06-24T12:22:29Z</time>
      </trkpt>
      <trkpt lat="42.71582" lon="1.4005">
        <ele>1532</ele>
        <time>2018-06-24T12:22:47Z</time>
      </trkpt>
      <trkpt lat="42.71571" lon="1.40054">
        <ele>1530.56</ele>
        <time>2018-06-24T12:23:03Z</time>
      </trkpt>
      <trkpt lat="42.71561" lon="1.4007">
        <ele>1527.67</ele>
        <time>2018-06-24T12:23:24Z</time>
      </trkpt>
      <trkpt lat="42.71552" lon="1.40094">
        <ele>1528.15</ele>
        <time>2018-06-24T12:23:53Z</time>
      </trkpt>
      <trkpt lat="42.71542" lon="1.40125">
        <ele>1527.19</ele>
        <time>2018-06-24T12:24:26Z</time>
      </trkpt>
      <trkpt lat="42.7153" lon="1.40135">
        <ele>1524.31</ele>
        <time>2018-06-24T12:24:48Z</time>
      </trkpt>
      <trkpt lat="42.71522" lon="1.4014">
        <ele>1518.54</ele>
        <time>2018-06-24T12:25:18Z</time>
      </trkpt>
      <trkpt lat="42.71509" lon="1.40152">
        <ele>1511.81</ele>
        <time>2018-06-24T12:25:52Z</time>
      </trkpt>
      <trkpt lat="42.71503" lon="1.40167">
        <ele>1507.97</ele>
        <time>2018-06-24T12:26:17Z</time>
      </trkpt>
      <trkpt lat="42.71492" lon="1.4018">
        <ele>1506.04</ele>
        <time>2018-06-24T12:26:40Z</time>
      </trkpt>
      <trkpt lat="42.7148" lon="1.40187">
        <ele>1503.64</ele>
        <time>2018-06-24T12:26:59Z</time>
      </trkpt>
      <trkpt lat="42.71469" lon="1.40195">
        <ele>1500.76</ele>
        <time>2018-06-24T12:27:26Z</time>
      </trkpt>
      <trkpt lat="42.71459" lon="1.40207">
        <ele>1497.39</ele>
        <time>2018-06-24T12:27:54Z</time>
      </trkpt>
      <trkpt lat="42.71443" lon="1.40213">
        <ele>1493.06</ele>
        <time>2018-06-24T12:28:23Z</time>
      </trkpt>
      <trkpt lat="42.71428" lon="1.40218">
        <ele>1490.18</ele>
        <time>2018-06-24T12:28:47Z</time>
      </trkpt>
      <trkpt lat="42.71413" lon="1.40217">
        <ele>1483.93</ele>
        <time>2018-06-24T12:29:18Z</time>
      </trkpt>
      <trkpt lat="42.714" lon="1.40215">
        <ele>1480.09</ele>
        <time>2018-06-24T12:29:42Z</time>
      </trkpt>
      <trkpt lat="42.71384" lon="1.40222">
        <ele>1476.72</ele>
        <time>2018-06-24T12:30:04Z</time>
      </trkpt>
      <trkpt lat="42.71373" lon="1.40234">
        <ele>1474.8</ele>
        <time>2018-06-24T12:30:26Z</time>
      </trkpt>
      <trkpt lat="42.71355" lon="1.40246">
        <ele>1469.51</ele>
        <time>2018-06-24T12:31:00Z</time>
      </trkpt>
      <trkpt lat="42.71342" lon="1.40247">
        <ele>1461.34</ele>
        <time>2018-06-24T12:31:38Z</time>
      </trkpt>
      <trkpt lat="42.71326" lon="1.4025">
        <ele>1456.05</ele>
        <time>2018-06-24T12:32:06Z</time>
      </trkpt>
      <trkpt lat="42.71313" lon="1.40253">
        <ele>1452.69</ele>
        <time>2018-06-24T12:32:25Z</time>
      </trkpt>
      <trkpt lat="42.71302" lon="1.40264">
        <ele>1448.84</ele>
        <time>2018-06-24T12:32:45Z</time>
      </trkpt>
      <trkpt lat="42.71289" lon="1.40261">
        <ele>1444.04</ele>
        <time>2018-06-24T12:33:11Z</time>
      </trkpt>
      <trkpt lat="42.71277" lon="1.40267">
        <ele>1443.08</ele>
        <time>2018-06-24T12:33:28Z</time>
      </trkpt>
      <trkpt lat="42.71264" lon="1.40276">
        <ele>1442.11</ele>
        <time>2018-06-24T12:33:47Z</time>
      </trkpt>
      <trkpt lat="42.7125" lon="1.40287">
        <ele>1441.15</ele>
        <time>2018-06-24T12:34:06Z</time>
      </trkpt>
      <trkpt lat="42.7124" lon="1.40294">
        <ele>1441.63</ele>
        <time>2018-06-24T12:34:19Z</time>
      </trkpt>
      <trkpt lat="42.7123" lon="1.40301">
        <ele>1439.71</ele>
        <time>2018-06-24T12:34:34Z</time>
      </trkpt>
      <trkpt lat="42.71219" lon="1.40314">
        <ele>1437.79</ele>
        <time>2018-06-24T12:34:55Z</time>
      </trkpt>
      <trkpt lat="42.71202" lon="1.40328">
        <ele>1435.87</ele>
        <time>2018-06-24T12:35:12Z</time>
      </trkpt>
      <trkpt lat="42.71189" lon="1.4034">
        <ele>1434.42</ele>
        <time>2018-06-24T12:35:26Z</time>
      </trkpt>
      <trkpt lat="42.71178" lon="1.40353">
        <ele>1432.98</ele>
        <time>2018-06-24T12:35:41Z</time>
      </trkpt>
      <trkpt lat="42.71164" lon="1.40369">
        <ele>1432.5</ele>
        <time>2018-06-24T12:36:01Z</time>
      </trkpt>
      <trkpt lat="42.71151" lon="1.40386">
        <ele>1434.91</ele>
        <time>2018-06-24T12:36:20Z</time>
      </trkpt>
      <trkpt lat="42.71154" lon="1.40386">
        <ele>1436.83</ele>
        <time>2018-06-24T12:36:54Z</time>
      </trkpt>
      <trkpt lat="42.71141" lon="1.40403">
        <ele>1438.75</ele>
        <time>2018-06-24T12:37:54Z</time>
      </trkpt>
      <trkpt lat="42.71137" lon="1.4042">
        <ele>1440.67</ele>
        <time>2018-06-24T12:38:21Z</time>
      </trkpt>
      <trkpt lat="42.71132" lon="1.40446">
        <ele>1443.56</ele>
        <time>2018-06-24T12:38:51Z</time>
      </trkpt>
      <trkpt lat="42.71127" lon="1.40465">
        <ele>1444.52</ele>
        <time>2018-06-24T12:39:14Z</time>
      </trkpt>
      <trkpt lat="42.71126" lon="1.4048">
        <ele>1446.44</ele>
        <time>2018-06-24T12:39:37Z</time>
      </trkpt>
      <trkpt lat="42.71122" lon="1.40499">
        <ele>1445.96</ele>
        <time>2018-06-24T12:39:57Z</time>
      </trkpt>
      <trkpt lat="42.71119" lon="1.40522">
        <ele>1446.92</ele>
        <time>2018-06-24T12:40:24Z</time>
      </trkpt>
      <trkpt lat="42.7112" lon="1.4055">
        <ele>1449.81</ele>
        <time>2018-06-24T12:40:55Z</time>
      </trkpt>
      <trkpt lat="42.71119" lon="1.40567">
        <ele>1449.32</ele>
        <time>2018-06-24T12:41:12Z</time>
      </trkpt>
      <trkpt lat="42.71121" lon="1.40582">
        <ele>1449.81</ele>
        <time>2018-06-24T12:41:32Z</time>
      </trkpt>
      <trkpt lat="42.71122" lon="1.40603">
        <ele>1449.81</ele>
        <time>2018-06-24T12:41:51Z</time>
      </trkpt>
      <trkpt lat="42.71125" lon="1.40623">
        <ele>1448.84</ele>
        <time>2018-06-24T12:42:09Z</time>
      </trkpt>
      <trkpt lat="42.71124" lon="1.40641">
        <ele>1445.96</ele>
        <time>2018-06-24T12:42:28Z</time>
      </trkpt>
      <trkpt lat="42.71128" lon="1.40661">
        <ele>1444.52</ele>
        <time>2018-06-24T12:42:49Z</time>
      </trkpt>
      <trkpt lat="42.71131" lon="1.40687">
        <ele>1445</ele>
        <time>2018-06-24T12:43:13Z</time>
      </trkpt>
      <trkpt lat="42.71135" lon="1.40712">
        <ele>1445</ele>
        <time>2018-06-24T12:43:37Z</time>
      </trkpt>
      <trkpt lat="42.71143" lon="1.40728">
        <ele>1444.52</ele>
        <time>2018-06-24T12:44:02Z</time>
      </trkpt>
      <trkpt lat="42.71157" lon="1.40758">
        <ele>1445.48</ele>
        <time>2018-06-24T12:44:30Z</time>
      </trkpt>
      <trkpt lat="42.71166" lon="1.40773">
        <ele>1446.44</ele>
        <time>2018-06-24T12:44:47Z</time>
      </trkpt>
      <trkpt lat="42.71172" lon="1.40786">
        <ele>1446.92</ele>
        <time>2018-06-24T12:45:06Z</time>
      </trkpt>
      <trkpt lat="42.71178" lon="1.40803">
        <ele>1446.44</ele>
        <time>2018-06-24T12:45:20Z</time>
      </trkpt>
      <trkpt lat="42.71185" lon="1.40817">
        <ele>1445.48</ele>
        <time>2018-06-24T12:45:33Z</time>
      </trkpt>
      <trkpt lat="42.71193" lon="1.40829">
        <ele>1444.52</ele>
        <time>2018-06-24T12:45:46Z</time>
      </trkpt>
      <trkpt lat="42.71199" lon="1.40844">
        <ele>1444.04</ele>
        <time>2018-06-24T12:45:58Z</time>
      </trkpt>
      <trkpt lat="42.71205" lon="1.40859">
        <ele>1444.04</ele>
        <time>2018-06-24T12:46:10Z</time>
      </trkpt>
      <trkpt lat="42.71211" lon="1.40873">
        <ele>1443.56</ele>
        <time>2018-06-24T12:46:23Z</time>
      </trkpt>
      <trkpt lat="42.71216" lon="1.40889">
        <ele>1442.6</ele>
        <time>2018-06-24T12:46:36Z</time>
      </trkpt>
      <trkpt lat="42.71222" lon="1.40903">
        <ele>1440.67</ele>
        <time>2018-06-24T12:46:49Z</time>
      </trkpt>
      <trkpt lat="42.71228" lon="1.40916">
        <ele>1440.19</ele>
        <time>2018-06-24T12:47:01Z</time>
      </trkpt>
      <trkpt lat="42.71232" lon="1.40933">
        <ele>1439.71</ele>
        <time>2018-06-24T12:47:15Z</time>
      </trkpt>
      <trkpt lat="42.71237" lon="1.40951">
        <ele>1439.71</ele>
        <time>2018-06-24T12:47:28Z</time>
      </trkpt>
      <trkpt lat="42.71239" lon="1.40969">
        <ele>1439.71</ele>
        <time>2018-06-24T12:47:42Z</time>
      </trkpt>
      <trkpt lat="42.71246" lon="1.40984">
        <ele>1436.35</ele>
        <time>2018-06-24T12:47:57Z</time>
      </trkpt>
      <trkpt lat="42.71253" lon="1.40994">
        <ele>1433.46</ele>
        <time>2018-06-24T12:48:13Z</time>
      </trkpt>
      <trkpt lat="42.71259" lon="1.41007">
        <ele>1431.06</ele>
        <time>2018-06-24T12:48:31Z</time>
      </trkpt>
      <trkpt lat="42.71246" lon="1.41032">
        <ele>1432.02</ele>
        <time>2018-06-24T12:48:51Z</time>
      </trkpt>
      <trkpt lat="42.71239" lon="1.41052">
        <ele>1432.5</ele>
        <time>2018-06-24T12:49:11Z</time>
      </trkpt>
      <trkpt lat="42.71236" lon="1.41067">
        <ele>1432.02</ele>
        <time>2018-06-24T12:49:31Z</time>
      </trkpt>
      <trkpt lat="42.7124" lon="1.41095">
        <ele>1430.58</ele>
        <time>2018-06-24T12:49:57Z</time>
      </trkpt>
      <trkpt lat="42.71242" lon="1.41124">
        <ele>1427.7</ele>
        <time>2018-06-24T12:50:26Z</time>
      </trkpt>
      <trkpt lat="42.71249" lon="1.41156">
        <ele>1426.73</ele>
        <time>2018-06-24T12:50:50Z</time>
      </trkpt>
      <trkpt lat="42.71263" lon="1.41174">
        <ele>1422.89</ele>
        <time>2018-06-24T12:51:15Z</time>
      </trkpt>
      <trkpt lat="42.71267" lon="1.41191">
        <ele>1418.56</ele>
        <time>2018-06-24T12:51:37Z</time>
      </trkpt>
      <trkpt lat="42.71257" lon="1.41198">
        <ele>1417.6</ele>
        <time>2018-06-24T12:51:49Z</time>
      </trkpt>
      <trkpt lat="42.71243" lon="1.41209">
        <ele>1418.56</ele>
        <time>2018-06-24T12:52:07Z</time>
      </trkpt>
      <trkpt lat="42.71234" lon="1.41226">
        <ele>1418.56</ele>
        <time>2018-06-24T12:52:26Z</time>
      </trkpt>
      <trkpt lat="42.71221" lon="1.41236">
        <ele>1416.16</ele>
        <time>2018-06-24T12:52:40Z</time>
      </trkpt>
      <trkpt lat="42.71208" lon="1.41251">
        <ele>1415.2</ele>
        <time>2018-06-24T12:52:57Z</time>
      </trkpt>
      <trkpt lat="42.71198" lon="1.41262">
        <ele>1413.28</ele>
        <time>2018-06-24T12:53:09Z</time>
      </trkpt>
      <trkpt lat="42.7119" lon="1.41282">
        <ele>1413.28</ele>
        <time>2018-06-24T12:53:24Z</time>
      </trkpt>
      <trkpt lat="42.71185" lon="1.4131">
        <ele>1412.79</ele>
        <time>2018-06-24T12:53:45Z</time>
      </trkpt>
      <trkpt lat="42.71175" lon="1.41337">
        <ele>1410.87</ele>
        <time>2018-06-24T12:54:09Z</time>
      </trkpt>
      <trkpt lat="42.71168" lon="1.4137">
        <ele>1410.39</ele>
        <time>2018-06-24T12:55:55Z</time>
      </trkpt>
      <trkpt lat="42.7117" lon="1.41398">
        <ele>1409.43</ele>
        <time>2018-06-24T12:56:15Z</time>
      </trkpt>
      <trkpt lat="42.71168" lon="1.41422">
        <ele>1407.51</ele>
        <time>2018-06-24T12:56:33Z</time>
      </trkpt>
      <trkpt lat="42.71163" lon="1.41441">
        <ele>1404.62</ele>
        <time>2018-06-24T12:56:50Z</time>
      </trkpt>
      <trkpt lat="42.71156" lon="1.41463">
        <ele>1402.22</ele>
        <time>2018-06-24T12:57:06Z</time>
      </trkpt>
      <trkpt lat="42.71148" lon="1.41492">
        <ele>1399.82</ele>
        <time>2018-06-24T12:57:27Z</time>
      </trkpt>
      <trkpt lat="42.71153" lon="1.41528">
        <ele>1395.49</ele>
        <time>2018-06-24T12:57:52Z</time>
      </trkpt>
      <trkpt lat="42.71155" lon="1.41562">
        <ele>1393.09</ele>
        <time>2018-06-24T12:58:22Z</time>
      </trkpt>
      <trkpt lat="42.71155" lon="1.41585">
        <ele>1387.32</ele>
        <time>2018-06-24T12:58:46Z</time>
      </trkpt>
      <trkpt lat="42.7115" lon="1.41621">
        <ele>1383.96</ele>
        <time>2018-06-24T12:59:12Z</time>
      </trkpt>
      <trkpt lat="42.71151" lon="1.4166">
        <ele>1380.59</ele>
        <time>2018-06-24T12:59:40Z</time>
      </trkpt>
      <trkpt lat="42.71149" lon="1.41685">
        <ele>1382.03</ele>
        <time>2018-06-24T12:59:59Z</time>
      </trkpt>
      <trkpt lat="42.71143" lon="1.41709">
        <ele>1377.23</ele>
        <time>2018-06-24T13:00:19Z</time>
      </trkpt>
      <trkpt lat="42.71135" lon="1.41734">
        <ele>1373.86</ele>
        <time>2018-06-24T13:00:42Z</time>
      </trkpt>
      <trkpt lat="42.71127" lon="1.41756">
        <ele>1370.5</ele>
        <time>2018-06-24T13:01:03Z</time>
      </trkpt>
      <trkpt lat="42.71114" lon="1.41798">
        <ele>1360.4</ele>
        <time>2018-06-24T13:01:51Z</time>
      </trkpt>
      <trkpt lat="42.71102" lon="1.41835">
        <ele>1351.75</ele>
        <time>2018-06-24T13:02:35Z</time>
      </trkpt>
      <trkpt lat="42.71084" lon="1.41885">
        <ele>1337.81</ele>
        <time>2018-06-24T13:03:39Z</time>
      </trkpt>
      <trkpt lat="42.71074" lon="1.41938">
        <ele>1322.91</ele>
        <time>2018-06-24T13:04:50Z</time>
      </trkpt>
      <trkpt lat="42.71061" lon="1.41986">
        <ele>1312.34</ele>
        <time>2018-06-24T13:05:38Z</time>
      </trkpt>
      <trkpt lat="42.71051" lon="1.42017">
        <ele>1305.61</ele>
        <time>2018-06-24T13:06:11Z</time>
      </trkpt>
      <trkpt lat="42.71044" lon="1.42036">
        <ele>1300.32</ele>
        <time>2018-06-24T13:06:36Z</time>
      </trkpt>
      <trkpt lat="42.7104" lon="1.42071">
        <ele>1293.59</ele>
        <time>2018-06-24T13:07:11Z</time>
      </trkpt>
      <trkpt lat="42.71038" lon="1.42104">
        <ele>1286.86</ele>
        <time>2018-06-24T13:07:48Z</time>
      </trkpt>
      <trkpt lat="42.7103" lon="1.4216">
        <ele>1271.96</ele>
        <time>2018-06-24T13:08:46Z</time>
      </trkpt>
      <trkpt lat="42.71025" lon="1.42187">
        <ele>1262.35</ele>
        <time>2018-06-24T13:09:27Z</time>
      </trkpt>
      <trkpt lat="42.71016" lon="1.42214">
        <ele>1254.18</ele>
        <time>2018-06-24T13:10:01Z</time>
      </trkpt>
      <trkpt lat="42.71008" lon="1.42248">
        <ele>1243.6</ele>
        <time>2018-06-24T13:10:43Z</time>
      </trkpt>
      <trkpt lat="42.71008" lon="1.42279">
        <ele>1237.83</ele>
        <time>2018-06-24T13:11:11Z</time>
      </trkpt>
      <trkpt lat="42.71015" lon="1.42295">
        <ele>1233.99</ele>
        <time>2018-06-24T13:11:27Z</time>
      </trkpt>
      <trkpt lat="42.71022" lon="1.42313">
        <ele>1231.59</ele>
        <time>2018-06-24T13:11:42Z</time>
      </trkpt>
      <trkpt lat="42.71004" lon="1.42302">
        <ele>1227.26</ele>
        <time>2018-06-24T13:12:19Z</time>
      </trkpt>
      <trkpt lat="42.70993" lon="1.42274">
        <ele>1223.42</ele>
        <time>2018-06-24T13:12:43Z</time>
      </trkpt>
      <trkpt lat="42.70985" lon="1.42249">
        <ele>1224.38</ele>
        <time>2018-06-24T13:13:05Z</time>
      </trkpt>
      <trkpt lat="42.7098" lon="1.42216">
        <ele>1224.38</ele>
        <time>2018-06-24T13:13:24Z</time>
      </trkpt>
      <trkpt lat="42.70977" lon="1.42186">
        <ele>1221.49</ele>
        <time>2018-06-24T13:13:55Z</time>
      </trkpt>
      <trkpt lat="42.70968" lon="1.42158">
        <ele>1220.53</ele>
        <time>2018-06-24T13:14:20Z</time>
      </trkpt>
      <trkpt lat="42.70956" lon="1.42133">
        <ele>1217.17</ele>
        <time>2018-06-24T13:14:47Z</time>
      </trkpt>
      <trkpt lat="42.70936" lon="1.42107">
        <ele>1215.24</ele>
        <time>2018-06-24T13:15:17Z</time>
      </trkpt>
      <trkpt lat="42.70936" lon="1.4212">
        <ele>1208.03</ele>
        <time>2018-06-24T13:15:47Z</time>
      </trkpt>
      <trkpt lat="42.70945" lon="1.42143">
        <ele>1200.34</ele>
        <time>2018-06-24T13:16:23Z</time>
      </trkpt>
      <trkpt lat="42.70954" lon="1.42176">
        <ele>1196.98</ele>
        <time>2018-06-24T13:16:47Z</time>
      </trkpt>
      <trkpt lat="42.70955" lon="1.42203">
        <ele>1196.98</ele>
        <time>2018-06-24T13:17:12Z</time>
      </trkpt>
      <trkpt lat="42.70959" lon="1.42234">
        <ele>1196.5</ele>
        <time>2018-06-24T13:17:30Z</time>
      </trkpt>
      <trkpt lat="42.70963" lon="1.42263">
        <ele>1196.98</ele>
        <time>2018-06-24T13:17:51Z</time>
      </trkpt>
      <trkpt lat="42.70964" lon="1.42293">
        <ele>1196.02</ele>
        <time>2018-06-24T13:18:06Z</time>
      </trkpt>
      <trkpt lat="42.70966" lon="1.4232">
        <ele>1196.5</ele>
        <time>2018-06-24T13:18:24Z</time>
      </trkpt>
      <trkpt lat="42.70975" lon="1.42338">
        <ele>1195.54</ele>
        <time>2018-06-24T13:18:41Z</time>
      </trkpt>
      <trkpt lat="42.70985" lon="1.42351">
        <ele>1195.06</ele>
        <time>2018-06-24T13:18:54Z</time>
      </trkpt>
      <trkpt lat="42.70989" lon="1.42373">
        <ele>1195.54</ele>
        <time>2018-06-24T13:19:11Z</time>
      </trkpt>
      <trkpt lat="42.70994" lon="1.42395">
        <ele>1194.58</ele>
        <time>2018-06-24T13:19:25Z</time>
      </trkpt>
      <trkpt lat="42.71002" lon="1.42434">
        <ele>1194.09</ele>
        <time>2018-06-24T13:19:48Z</time>
      </trkpt>
      <trkpt lat="42.71009" lon="1.42464">
        <ele>1194.09</ele>
        <time>2018-06-24T13:20:09Z</time>
      </trkpt>
      <trkpt lat="42.7102" lon="1.42481">
        <ele>1195.06</ele>
        <time>2018-06-24T13:20:25Z</time>
      </trkpt>
      <trkpt lat="42.71028" lon="1.42497">
        <ele>1194.09</ele>
        <time>2018-06-24T13:20:40Z</time>
      </trkpt>
      <trkpt lat="42.71024" lon="1.42489">
        <ele>1194.09</ele>
        <time>2018-06-24T13:22:41Z</time>
      </trkpt>
      <trkpt lat="42.71039" lon="1.42521">
        <ele>1192.65</ele>
        <time>2018-06-24T13:24:42Z</time>
      </trkpt>
      <trkpt lat="42.7104" lon="1.42526">
        <ele>1191.69</ele>
        <time>2018-06-24T13:26:45Z</time>
      </trkpt>
    </trkseg>
  </trk>
</gpx>